     2.10           OBSERVATION DATA    M (MIXED)           RINEX VERSION / TYPE
JPS2RIN 1.09 06-MAY-04 00:03                                PGM / RUN BY / DATE
build August 24, 2001 (c) Topcon Positioning Systems        COMMENT
METZ0021.tps                                                COMMENT
METZ                                                        MARKER NAME
10503M005                                                   MARKER NUMBER
MPA FGI/Metsahovi                                           OBSERVER / AGENCY
MT302125212 JPS EUROCARD 2.3 Nov,12,2002                    REC # / TYPE / VERS
CRG0112 ASH701073.1 NONE                                    ANT # / TYPE
  2892569.0499  1311843.1482  5512633.5238                  APPROX POSITION XYZ
        9.0000        0.0000        0.0000                  ANTENNA: DELTA H/E/N
     1     1                                                WAVELENGTH FACT L1/2
  2004     5     5     0     0    0.0000000     GPS         TIME OF FIRST OBS
  2004     5     5    23    59   30.0000000     GPS         TIME OF LAST OBS
    30.000                                                  INTERVAL
    13                                                      LEAP SECONDS
    34                                                      # OF SATELLITES
     7    C1    P1    P2    L1    L2    D1    D2            # / TYPES OF OBSERV
   G 1  1004   866   865  1004   865  1004   865            PRN / # OF OBS
   G 3   997   886   886   997   886   997   886            PRN / # OF OBS
   G 4  1060   945   945  1060   945  1060   945            PRN / # OF OBS
   G 5   947   706   706   947   706   947   706            PRN / # OF OBS
   G 6   956   699   699   956   699   956   699            PRN / # OF OBS
   G 7  1067   951   951  1067   951  1067   951            PRN / # OF OBS
   G 9   980   909   909   980   909   980   909            PRN / # OF OBS
   G10  1048   944   944  1048   944  1048   944            PRN / # OF OBS
   G11   978   736   736   978   736   978   736            PRN / # OF OBS
   G13   983   686   686   983   686   983   686            PRN / # OF OBS
   G14  1061   955   955  1061   955  1061   955            PRN / # OF OBS
   G15   964   835   835   964   835   964   835            PRN / # OF OBS
   G16  1048   912   912  1048   912  1048   912            PRN / # OF OBS
   G17  1057   934   934  1057   934  1057   934            PRN / # OF OBS
   G18  1042   929   929  1042   929  1042   929            PRN / # OF OBS
   G19  1033   990   990  1033   990  1033   990            PRN / # OF OBS
   G20   968   784   784   968   784   968   784            PRN / # OF OBS
   G21   991   849   849   991   849   991   849            PRN / # OF OBS
   G22  1038   998   998  1038   998  1038   998            PRN / # OF OBS
   G24  1070   973   973  1070   973  1070   973            PRN / # OF OBS
   G25  1069  1002  1002  1069  1002  1069  1002            PRN / # OF OBS
   G26  1020   907   907  1020   907  1020   907            PRN / # OF OBS
   G27  1010   803   803  1010   803  1010   803            PRN / # OF OBS
   G28  1035   823   823  1035   823  1035   823            PRN / # OF OBS
   G29  1038   913   913  1038   913  1038   913            PRN / # OF OBS
   G30   967   826   826   967   826   967   826            PRN / # OF OBS
   R 2  1019  1019  1019  1019  1019  1019  1019            PRN / # OF OBS
   R 3  1034  1034  1034  1034  1034  1034  1034            PRN / # OF OBS
   R 4  1027  1027  1027  1027  1027  1027  1027            PRN / # OF OBS
   R 5  1026  1026  1026  1026  1026  1026  1026            PRN / # OF OBS
   R21   969   969   969   969   969   969   969            PRN / # OF OBS
   R22   973   973   973   973   973   973   973            PRN / # OF OBS
   R23  1099  1099  1099  1099  1099  1099  1099            PRN / # OF OBS
   R24  1128  1128  1128  1128  1128  1128  1128            PRN / # OF OBS
                                                            END OF HEADER
 04  5  5  0  0  0.0000000  0 10G 4G 5G 7G 9G14G22G28G30R23R24
  24175607.35446  24175603.16741  24175608.16041 127043699.5844   98995082.7144
      3119.920        2431.156
  21465539.39048  21465538.47544  21465542.64644 112802226.0004   87897846.5404
      2502.951        1950.353
  21754428.25248  21754427.28344  21754431.58244 114320327.9344   89080794.2924
     -1445.158       -1126.089
  20252589.75148  20252588.66245  20252592.31845 106428120.1204   82931038.7144
      -869.022        -677.160
  23418461.72646  23418459.15741  23418464.69541 123064839.1154   95894712.6364
      2309.168        1799.406
  25086475.96145  25086474.32741  25086473.72341 131830367.3704  102724987.8084
     -2640.847       -2057.822
  24900064.54445                                 130850813.8084
     -3482.659
  24724733.14846                                 129929331.9644
      3776.295
  21348003.74648  21348003.21747  21348006.60443 114517893.1444   89069520.5304
     -3448.489       -2682.165
  19379846.95648  19379848.02148  19379851.57045 103669132.7664   80631590.4564
       568.533         442.190
 04  5  5  0  0 30.0000000  0 10G 4G 5G 7G 9G14G22G28G30R23R24
  24157820.94346  24157822.49441  24157824.44741 126950231.1014   98922250.2064
      3110.686        2423.888
  21451282.89647  21451281.94744  21451286.25544 112727309.2824   87839469.9034
      2490.802        1940.890
  21762721.41448  21762720.35344  21762725.03144 114363909.3654   89114753.8404
     -1460.921       -1138.372
  20257604.97648  20257604.50245  20257607.95145 106454477.9054   82951577.2414
      -888.823        -692.579
  23405323.11046  23405322.81941  23405326.35841 122995796.4304   95840913.1944
      2292.984        1786.718
  25101579.22246  25101580.60941  25101580.42441 131909732.6364  102786830.9664
     -2650.849       -2065.536
  24919953.32145                                 130955321.8684
     -3485.181
  24703179.21946                                 129816069.6424
      3773.822
  21367327.70447  21367327.94947  21367331.43043 114621560.8444   89150150.9464
     -3463.264       -2693.639
  19376729.48948  19376730.98848  19376734.83345 103652459.4614   80618622.3364
       542.360         421.837
 04  5  5  0  1  0.0000000  0 10G 4G 5G 7G 9G14G22G28G30R23R24
  24140086.35746  24140088.58141  24140088.43541 126857031.4314   98849627.1184
      3101.818        2416.971
  21437095.64248  21437094.49344  21437098.21244 112652749.6434   87781371.4884
      2479.055        1931.734
  21771103.27648  21771101.80244  21771106.41444 114407954.4924   89149074.7094
     -1476.178       -1150.267
  20262731.94949  20262731.77145  20262735.43245 106481421.1344   82972571.9624
      -908.161        -707.653
  23392275.70946  23392275.13141  23392279.25841 122927231.9144   95787486.2874
      2277.238        1774.470
  25116739.89745  25116736.81541  25116743.50941 131989390.3834  102848901.7104
     -2660.364       -2073.040
  24939852.45245                                 131059894.3504
     -3487.179
  24681638.21346                                 129702871.3624
      3771.866
  21386734.73947  21386734.26347  21386738.39243 114725662.1394   89231118.6204
     -3477.553       -2704.763
  19373758.06348  19373759.46248  19373763.29545 103636562.9864   80606258.3984
       516.639         401.827
 04  5  5  0  1 30.0000000  0 10G 4G 5G 7G 9G14G22G28G30R23R24
  24122403.25546  24122401.60741  24122407.02141 126764114.5674   98777224.3984
      3092.429        2409.688
  21422977.44048  21422976.20344  21422980.64144 112578559.1424   87723560.7084
      2466.856        1922.219
  21779574.81348  21779573.51744  21779577.41344 114452472.4804   89183764.0354
     -1491.806       -1162.443
  20267972.32748  20267972.08545  20267975.46145 106508959.8864   82994030.7314
      -927.864        -723.012
  23379322.98347  23379321.43341  23379326.66041 122859158.3354   95734441.9774
      2260.911        1761.728
  25131954.15545  25131951.63241  25131951.88441 132069348.2324  102911206.5714
     -2670.233       -2080.705
  24959764.07945                                 131164540.5734
     -3489.525
  24660112.37246                                 129589749.4044
      3769.444
  21406221.97147  21406222.24847  21406225.71543 114830203.5424   89312428.5354
     -3492.012       -2715.990
  19370933.50548  19370934.69648  19370938.27445 103621453.7134   80594506.7444
       490.545         381.538
 04  5  5  0  2  0.0000000  0 10G 4G 5G 7G 9G14G22G28G30R23R24
  24104776.96646  24104776.04841  24104781.29741 126671488.8504   98705048.5934
      3083.371        2402.640
  21408930.96548  21408929.83344  21408933.45544 112504744.3324   87666042.6734
      2455.003        1912.996
  21788136.58948  21788135.60644  21788140.30444 114497466.9894   89218824.6974
     -1506.959       -1174.266
  20273327.39148  20273326.48245  20273330.07845 106537098.6354   83015957.0264
      -947.173        -738.063
  23366462.94546  23366461.11741  23366465.91841 122791583.4444   95681786.2074
      2244.929        1749.297
  25147225.04545  25147225.13241  25147228.79141 132149608.6544  102973747.0394
     -2679.573       -2087.990
  24979693.23645                                 131269264.6154
     -3491.319
  24638599.44645                                 129476710.4394
      3767.377
  21425794.58247  21425793.79947  21425797.66843 114935187.2944   89394082.5324
     -3506.029       -2726.912
  19368257.57748  19368258.72648  19368262.56145 103607137.4784   80583371.9024
       464.798         361.505
 04  5  5  0  2 30.0000000  0 10G 4G 5G 7G 9G14G22G28G30R23R24
  24087203.81246  24087201.68541  24087205.29041 126579136.0254   98633085.3634
      3073.638        2395.081
  21394951.90348  21394951.02844  21394954.96844 112431284.9894   87608801.6524
      2442.521        1903.251
  21796785.42748  21796784.15344  21796788.89744 114542914.9864   89254238.7174
     -1522.660       -1186.490
  20278791.58949  20278791.16645  20278794.76045 106565815.2794   83038333.6334
      -967.046        -753.532
  23353694.84946  23353694.38141  23353696.31441 122724488.2004   95629504.2454
      2228.261        1736.347
  25162552.45045  25162550.39441  25162555.60241 132230147.2564  103036504.2994
     -2689.424       -2095.639
  24999632.00645                                 131374043.4764
     -3493.722
  24617104.05445                                 129363734.4014
      3764.602
  21445442.96647  21445441.82647  21445445.45243 115040587.4054   89476060.3564
     -3520.433       -2738.112
  19365725.37348  19365726.56148  19365730.30945 103593591.9114   80572836.4784
       438.472         341.028
 04  5  5  0  3  0.0000000  0 10G 4G 5G 7G 9G14G22G28G30R23R24
  24069685.57046  24069681.36841  24069688.68741 126487074.7644   98561349.3644
      3063.718        2387.305
  21381043.66848  21381042.92944  21381047.21244 112358198.3874   87551851.0684
      2429.912        1893.418
  21805522.54848  21805521.84644  21805525.91844 114588830.7684   89290017.2484
     -1538.358       -1198.738
  20284369.15648  20284368.74245  20284372.41945 106595124.7974   83061172.2194
      -986.928        -769.036
  23341020.93547  23341022.01941  23341025.40441 122657890.3874   95577609.8324
      2211.519        1723.245
  25177932.90045  25177927.53041  25177935.28241 132310977.0334  103099488.5304
     -2699.255       -2103.345
  25019585.48145                                 131478891.7834
     -3496.106
  24595620.52946                                 129250838.3824
      3761.732
  21465169.41747  21465169.61347  21465173.03543 115146415.9824   89558371.4274
     -3534.823       -2749.311
  19363339.71448  19363340.91148  19363344.90445 103580832.6944   80562912.6434
       412.128         320.535
 04  5  5  0  3 30.0000000  0 10G 4G 5G 7G 9G14G22G28G30R23R24
  24052219.76746  24052217.76541  24052225.67741 126395304.4224   98489840.0904
      3054.506        2380.135
  21367205.98848  21367205.72544  21367209.43244 112285482.1924   87495189.1164
      2418.090        1884.205
  21814348.06248  21814346.80844  21814351.71844 114635208.4934   89326155.7294
     -1553.218       -1210.291
  20290058.59449  20290058.08945  20290061.36845 106625022.5194   83084469.1434
     -1005.993        -783.890
  23328442.00146  23328441.57941  23328447.07241 122591788.2984   95526101.7364
      2195.525        1710.810
  25193369.71845  25193368.35241  25193370.44141 132392090.7314  103162693.8014
     -2708.106       -2110.218
  25039548.73245                                 131583803.8974
     -3497.730
  24574149.86745                                 129138019.5044
      3759.761
  21484976.28447  21484976.40247  21484980.83343 115252665.4834   89641009.8964
     -3548.217       -2759.727
  19361101.19548  19361102.26848  19361105.95845 103568855.9964   80553597.4584
       386.576         300.664
 04  5  5  0  4  0.0000000  0 10G 4G 5G 7G 9G14G22G28G30R23R24
  24034814.24746  24034815.18341  24034814.67941 126303834.0844   98418564.5084
      3043.489        2371.547
  21353441.17248  21353440.18844  21353443.82244 112213143.7004   87438821.4824
      2404.541        1873.669
  21823262.77448  21823261.26844  21823265.60644 114682053.0714   89362657.9904
     -1569.686       -1223.126
  20295861.04848  20295860.37245  20295863.98845 106655514.1594   83108228.8624
     -1026.707        -800.030
  23315960.02346  23315959.61441  23315962.19141 122526190.5384   95474986.6274
      2177.692        1696.910
  25208857.40945  25208852.66241  25208856.93241 132473492.1014  103226123.3744
     -2718.639       -2118.471
  25059524.13845                                 131688785.2224
     -3500.968
  24552698.20145                                 129025285.6624
      3755.941
  21504862.25747  21504862.50747  21504865.84643 115359339.0874   89723978.2364
     -3563.275       -2771.431
  19359009.21848  19359010.48948  19359014.46145 103557667.6884   80544895.4464
       359.392         279.526
 04  5  5  0  4 30.0000000  0 10G 4G 5G 7G 9G14G22G28G30R23R24
  24017465.15846  24017464.88741  24017469.70441 126212665.5914   98347524.1394
      3033.922        2364.146
  21339747.41548  21339746.64244  21339750.52644 112141182.9074   87382748.1374
      2392.407        1864.220
  21832264.52548  21832264.09544  21832268.32444 114729361.5184   89399521.7134
     -1584.652       -1234.776
  20301775.80848  20301775.31945  20301778.82245 106686597.4884   83132449.6364
     -1045.933        -815.011
  23303573.14946  23303573.33641  23303576.19641 122461097.8874   95424265.1204
      2161.349        1684.175
  25224405.22845  25224401.95941  25224400.82741 132555176.8404  103289773.6994
     -2727.490       -2125.322
  25079514.86845                                 131793832.9834
     -3502.639
  24531259.12145                                 128912636.9554
      3753.580
  21524826.78547  21524826.75747  21524830.13943 115466431.7764   89807272.5174
     -3576.611       -2781.817
  19357064.91748  19357066.17448  19357070.21545 103547266.4984   80536805.6194
       333.560         259.433
 04  5  5  0  5  0.0000000  0 10G 4G 5G 7G 9G14G22G28G30R23R24
  24000174.29446  24000174.72541  24000177.71841 126121802.6054   98276721.8884
      3024.282        2356.588
  21326125.82648  21326125.12944  21326128.81544 112069601.3734   87326970.3334
      2380.356        1854.825
  21841355.41948  21841354.58644  21841358.95544 114777132.7274   89436746.0264
     -1599.408       -1246.297
  20307803.66348  20307802.79945  20307806.30545 106718272.2714   83157131.2854
     -1065.026        -829.886
  23291283.57546  23291282.02341  23291285.55841 122396513.1664   95373939.3734
      2144.974        1671.386
  25240002.67845  25240005.94641  25240005.39641 132637142.8034  103353643.1154
     -2736.206       -2132.083
  25099517.08845                                 131898946.3534
     -3504.243
  24509840.86546                                 128800075.0894
      3751.226
  21544868.32247  21544867.48047  21544870.14143 115573939.2744   89890889.4484
     -3589.834       -2792.086
  19355268.17748  19355269.28448  19355272.97045 103537652.8764   80529328.3574
       308.004         239.564
 04  5  5  0  5 30.0000000  0 10G 4G 5G 7G 9G14G22G28G30R23R24
  23982941.87646  23982940.22341  23982943.69941 126031232.6804   98206147.9664
      3013.981        2348.525
  21312573.13248  21312572.63244  21312576.89344 111998385.1534   87271477.1894
      2367.657        1844.919
  21850530.87248  21850529.54344  21850534.74644 114825349.6024   89474317.6034
     -1614.751       -1258.236
  20313940.13748  20313939.82945  20313943.34745 106750522.4594   83182261.3064
     -1084.700        -845.216
  23279087.63946  23279087.85741  23279090.73441 122332423.0034   95323999.0104
      2127.970        1658.166
  25255649.62645  25255656.14441  25255652.34241 132719371.2994  103417717.2244
     -2745.342       -2139.201
  25119527.94545                                 132004108.7744
     -3506.279
  24488436.94746                                 128687586.1714
      3748.341
  21564982.84347  21564981.84447  21564985.77443 115681842.9274   89974814.4474
     -3603.460       -2802.691
  19353615.34848  19353616.11848  19353619.90345 103528810.0064   80522450.5684
       281.831         219.203
 04  5  5  0  6  0.0000000  0 10G 4G 5G 7G 9G14G22G28G30R23R24
  23965764.80246  23965764.56541  23965770.90741 125940969.3004   98135812.9094
      3003.177        2340.131
  21299093.21548  21299092.94244  21299096.39644 111927546.1784   87216277.9964
      2354.561        1834.710
  21859792.40048  21859791.65944  21859795.62944 114874020.9924   89512243.3614
     -1630.368       -1270.425
  20320188.66248  20320188.10345  20320191.54445 106783357.5684   83207847.1034
     -1104.679        -860.793
  23266988.01746  23266988.28241  23266989.85941 122268840.0814   95274453.9004
      2110.507        1644.529
  25271349.62345  25271347.72341  25271346.85441 132801869.8174  103482001.6254
     -2754.893       -2146.679
  25139551.51445                                 132109329.4554
     -3508.716
  24467047.39346                                 128575181.9824
      3744.941
  21585174.76447  21585173.50247  21585177.05743 115790149.7044   90059053.0384
     -3617.375       -2813.523
  19352107.90548  19352109.12148  19352113.09645 103520749.4954   80516181.2884
       255.234         198.509
 04  5  5  0  6 30.0000000  0 10G 4G 5G 7G 9G14G22G28G30R23R24
  23948647.06646  23948642.38141  23948646.37841 125851017.7624   98065720.8604
      2992.880        2332.149
  21285685.83148  21285684.85444  21285688.35144 111857087.9064   87161375.4574
      2341.925        1824.879
  21869140.76347  21869140.11844  21869144.47944 114923147.3124   89550523.6134
     -1645.423       -1282.157
  20326548.84648  20326547.96345  20326551.52345 106816778.7634   83233889.5964
     -1124.106        -875.928
  23254984.74946  23254985.14341  23254988.25541 122205768.8004   95225307.4964
      2093.509        1631.294
  25287100.79145  25287105.44341  25287100.21041 132884637.4864  103546495.7334
     -2763.680       -2153.405
  25159583.68845                                 132214608.6694
     -3510.600
  24445675.10546                                 128462865.9354
      3742.051
  21605438.26247  21605437.75447  21605442.34943 115898858.4434   90143604.2534
     -3630.603       -2823.790
  19350747.99248  19350748.80148  19350752.61245 103513471.9264   80510520.9634
       229.243         178.301
 04  5  5  0  7  0.0000000  0 10G 4G 5G 7G 9G14G22G28G30R23R24
  23931586.81946  23931585.77141  23931588.38741 125761369.2504   97995864.8784
      2982.642        2324.129
  21272348.73548  21272347.85544  21272351.09444 111786999.8464   87106761.3994
      2329.552        1815.235
  21878573.99848  21878572.48544  21878576.45244 114972714.9844   89589147.7714
     -1660.155       -1293.634
  20333017.71549  20333016.97645  20333020.57545 106850773.2524   83260378.8084
     -1143.234        -890.839
  23243078.90446  23243078.92141  23243082.86541 122143199.2964   95176552.0804
      2076.743        1618.231
  25302897.10245  25302889.81641  25302895.81641 132967659.7074  103611188.1924
     -2772.144       -2160.114
  25179629.30045                                 132319933.6364
     -3512.150
  24424313.58646                                 128350627.5374
      3739.419
  21625774.77847  21625774.80047  21625777.47243 116007952.2014   90228454.9104
     -3643.378       -2833.725
  19349531.75248  19349531.99248  19349536.22745 103506964.8274   80505459.8904
       203.555         158.323
 04  5  5  0  7 30.0000000  0  9G 4G 5G 7G 9G14G22G30R23R24
  23914588.35146  23914588.35341  23914589.44641 125672040.6794   97926258.2734
      2972.271        2316.088
  21259084.20148  21259083.75344  21259087.32244 111717297.3644   87052447.7874
      2316.996        1805.445
  21888091.92348  21888091.11344  21888095.66244 115022736.5194   89628125.5694
     -1674.936       -1305.147
  20339598.31048  20339597.56745  20339601.08345 106885354.4554   83287325.1974
     -1162.463        -905.814
  23231272.31847  23231271.43841  23231274.15241 122081147.5634   95128200.0994
      2059.760        1605.034
  25318749.27845  25318747.63741  25318756.79941 133050947.7474  103676087.8674
     -2780.613       -2166.719
  24402971.71145                                 128238482.3254
      3736.615
  21646186.43847  21646185.79647  21646188.95143 116117441.7684   90313613.3854
     -3656.187       -2843.689
  19348460.85548  19348462.16948  19348466.09945 103501241.7834   80501008.6444
       177.685         138.196
 04  5  5  0  8  0.0000000  0  9G 4G 5G 7G 9G14G22G30R23R24
  23897651.41946  23897652.56541  23897650.30541 125583032.1564   97856901.0304
      2961.126        2307.367
  21245894.25148  21245892.87244  21245896.20544 111647979.0214   86998433.5034
      2303.766        1795.135
  21897696.80548  21897695.85044  21897700.09644 115073207.1964   89667453.3674
     -1690.269       -1317.102
  20346289.32949  20346288.77045  20346292.55245 106920518.5034   83314725.7494
     -1182.276        -921.253
  23219561.79547  23219561.48941  23219565.97141 122019612.9204   95080251.0314
      2042.089        1591.236
  25334646.24045  25334645.26341  25334645.83241 133134495.5234  103741190.0804
     -2789.700       -2173.681
  24381648.54745                                 128126428.6494
      3733.131
  21666668.89647  21666668.54847  21666672.71643 116227320.7914   90399074.7614
     -3669.554       -2854.100
  19347536.26148  19347538.49048  19347542.11045 103496299.9444   80497165.0134
       151.347         117.707
 04  5  5  0  8 30.0000000  0  9G 4G 5G 7G 9G14G22G30R23R24
  23880775.39946  23880776.50941  23880777.30941 125494344.9064   97787794.1264
      2950.637        2299.234
  21232775.77848  21232774.94244  21232778.79544 111579044.0094   86944717.9184
      2291.244        1785.396
  21907385.86648  21907384.34944  21907389.49344 115124123.5444   89707128.4334
     -1704.827       -1328.431
  20353091.39648  20353090.94845  20353094.50545 106956262.7374   83342578.3874
     -1201.340        -936.109
  23207949.91046  23207950.93541  23207954.35641 121958595.6664   95032705.1524
      2025.079        1577.960
  25350593.00545  25350587.05641  25350594.50941 133218298.1274  103806490.5654
     -2797.822       -2180.039
  24360345.15346                                 128014466.2644
      3730.396
  21687222.74247  21687223.67747  21687227.81943 116337584.1464   90484835.1084
     -3682.012       -2863.777
  19346759.17648  19346760.29148  19346764.22145 103492137.2614   80493927.3824
       125.556          97.657
 04  5  5  0  9  0.0000000  0  8G 4G 5G 7G 9G14G30R23R24
  23863959.04746  23863959.31041  23863961.88441 125405975.7104   97718935.0674
      2939.978        2290.886
  21219729.64048  21219728.95744  21219732.60644 111510487.1484   86891296.9984
      2278.595        1775.523
  21917157.67248  21917156.94544  21917161.10844 115175477.4234   89747144.4404
     -1719.383       -1339.764
  20360002.55849  20360001.85745  20360005.13545 106992579.8064   83370877.3894
     -1220.413        -950.960
  23196436.89346  23196436.66241  23196440.32841 121898091.3694   94985558.9684
      2007.955        1564.629
  24339054.55246                                 127902589.8994
      3727.443
  21707847.99547  21707847.63347  21707851.42343 116448220.6254   90570885.6574
     -3694.388       -2873.393
  19346125.11548  19346126.35148  19346130.18545 103488746.2964   80491289.9744
        99.820          77.640
 04  5  5  0  9 30.0000000  0  8G 4G 5G 7G 9G14G30R23R24
  23847202.68746  23847202.75541  23847207.25441 125317932.7264   97650330.1864
      2929.186        2282.449
  21206757.55548  21206756.01444  21206760.34544 111442314.8464   86838175.7384
      2265.870        1765.588
  21927014.59448  21927012.92244  21927018.16344 115227272.3804   89787504.1464
     -1733.965       -1351.153
  20367022.96148  20367022.43345  20367025.98645 107029473.8894   83399626.0294
     -1239.527        -965.876
  23185021.76047  23185023.22941  23185025.60341 121838107.4474   94938818.2934
      1990.647        1551.148
  24317783.93846                                 127790806.2164
      3724.454
  21728542.78747  21728542.53947  21728546.70043 116559232.1954   90657227.9444
     -3706.735       -2883.029
  19345636.81848  19345637.74748  19345641.64345 103486131.8554   80489256.5284
        74.111          57.638
 04  5  5  0 10  0.0000000  0  8G 4G 5G 7G 9G14G30R23R24
  23830512.33346  23830513.53241  23830517.34041 125230217.4904   97581980.6374
      2918.405        2274.105
  21193857.66448  21193856.51344  21193860.74144 111374526.9674   86785354.0194
      2253.187        1755.717
  21936953.27948  21936952.57144  21936956.67144 115279505.0294   89828204.8974
     -1748.338       -1362.348
  20374153.26048  20374152.68045  20374156.18945 107066942.3884   83428822.2554
     -1258.486        -980.647
  23173708.08046  23173706.55341  23173709.63341 121778644.4254   94892483.4794
      1973.435        1537.731
  24296529.00945                                 127679115.1034
      3721.503
  21749306.34947  21749305.69647  21749309.75743 116670614.1904   90743858.3224
     -3718.839       -2892.423
  19345292.31648  19345293.66748  19345297.12945 103484291.1524   80487824.8774
        48.506          37.723
 04  5  5  0 10 30.0000000  0  8G 4G 5G 7G 9G14G30R23R24
  23813882.39046  23813881.97841  23813890.45141 125142834.6374   97513890.1754
      2907.466        2265.567
  21181031.83448  21181030.70844  21181034.18844 111307126.4394   86732834.1254
      2240.480        1745.837
  21946976.43948  21946975.67944  21946979.87744 115332175.4504   89869246.7814
     -1762.733       -1373.537
  20381392.77848  20381392.14745  20381395.52645 107104986.2204   83458466.7884
     -1277.454        -995.419
  23162491.88546  23162490.77341  23162495.84341 121719705.7514   94846557.2154
      1956.096        1524.237
  24275293.67546                                 127567519.5994
      3718.477
  21770140.01247  21770138.32147  21770141.75043 116782364.7144   90830775.3614
     -3730.878       -2901.796
  19345093.31048  19345094.64048  19345097.97945 103483225.5244   80486996.0604
        22.862          17.782
 04  5  5  0 11  0.0000000  0  8G 4G 5G 7G 9G14G30R23R24
  23797317.79246  23797315.49541  23797325.41941 125055788.6494   97446062.1734
      2896.251        2256.786
  21168280.20148  21168278.98844  21168283.15144 111240116.2644   86680618.4244
      2227.547        1735.759
  21957083.39348  21957081.75344  21957085.53744 115385283.2994   89910629.5124
     -1777.158       -1384.801
  20388741.82948  20388740.99845  20388744.82345 107143605.9044   83488560.0324
     -1296.510       -1010.263
  23151375.86047  23151375.35641  23151378.06241 121661295.2604   94801042.5774
      1938.589        1510.605
  24254075.95245  24254077.72841  24254082.59541 127456022.5414   99316399.6594
      3715.338        2895.032
  21791038.82747  21791037.74647  21791042.19543 116894480.3804   90917976.3734
     -3742.849       -2911.115
  19345039.01348  19345040.42548  19345044.27845 103482935.6934   80486770.6384
        -2.862          -2.231
 04  5  5  0 11 30.0000000  0  8G 4G 5G 7G 9G14G30R23R24
  23780820.60146  23780820.66741  23780818.37341 124969081.9344   97378498.5624
      2884.482        2247.622
  21155602.76448  21155601.44444  21155605.83944 111173496.6524   86628707.0474
      2214.073        1725.242
  21967271.60948  21967270.25344  21967274.78044 115438826.2404   89952351.2704
     -1792.053       -1396.413
  20396199.85848  20396199.40145  20396203.13045 107182799.6014   83519100.5554
     -1316.069       -1025.516
  23140362.39147  23140361.38441  23140364.64041 121603414.2434   94755940.4894
      1920.471        1496.465
  24232876.39945  24232878.83441  24232883.93841 127344624.7144   99229596.1554
      3711.520        2892.115
  21812006.43447  21812006.24947  21812009.32043 117006957.4734   91005458.4964
     -3755.290       -2920.767
  19345129.27848  19345131.19648  19345134.44645 103483420.6344   80487147.8134
       -29.141         -22.678
 04  5  5  0 12  0.0000000  0  8G 4G 5G 7G 9G14G30R23R24
  23764382.50146  23764382.56241  23764390.10341 124882713.1504   97311198.2204
      2873.091        2238.749
  21142999.42648  21142998.20944  21143001.88944 111107264.6374   86577097.7114
      2201.062        1715.108
  21977541.74748  21977540.79144  21977545.16444 115492798.2484   89994407.3804
     -1806.375       -1407.574
  20403766.92348  20403766.30645  20403769.72145 107222562.1954   83550084.3784
     -1335.094       -1040.333
  23129447.77047  23129445.98941  23129451.82141 121546060.2864   94711249.1054
      1902.824        1482.696
  24211697.55446  24211697.95041  24211704.85241 127233323.2984   99142867.9054
      3708.236        2889.459
  21833040.00047  21833039.86147  21833043.53743 117119788.2904   91093215.7904
     -3767.094       -2929.954
  19345364.26048  19345365.61648  19345368.98345 103484674.8934   80488123.3564
       -54.817         -42.640
 04  5  5  0 12 30.0000000  0  8G 4G 5G 7G 9G14G30R23R24
  23748010.98146  23748011.78741  23748015.67041 124796689.9964   97244167.1954
      2861.862        2230.000
  21130470.18548  21130469.51044  21130473.37444 111041426.1604   86525795.0064
      2188.220        1705.104
  21987894.61848  21987893.60043  21987897.89244 115547202.3964   90036800.2084
     -1820.453       -1418.526
  20411442.28548  20411441.67245  20411445.09645 107262897.2884   83581514.2974
     -1353.832       -1054.933
  23118634.48046  23118635.58341  23118637.84642 121489240.2494   94666973.7854
      1885.260        1469.043
  24190538.14646  24190535.34941  24190539.64141 127122124.6224   99056219.5934
      3705.050        2887.097
  21854139.22947  21854138.75947  21854142.35143 117232973.5534   91181248.7094
     -3778.500       -2938.806
  19345743.62248  19345744.36548  19345747.91345 103486702.6194   80489700.4854
       -80.270         -62.446
 04  5  5  0 13  0.0000000  0  8G 4G 5G 7G 9G14G30R23R24
  23731711.43146  23731709.97141  23731715.50841 124711019.5284   97177411.0414
      2849.488        2220.410
  21118018.34148  21118016.54144  21118020.42144 110975986.9404   86474803.4224
      2174.325        1694.287
  21998330.68148  21998329.82444  21998333.84244 115602040.4844   90079531.1734
     -1835.473       -1430.233
  20419227.22748  20419226.66745  20419230.17945 107303807.5654   83613392.4184
     -1373.582       -1070.324
  23107925.05747  23107924.84541  23107927.79342 121432959.8924   94623118.9394
      1866.634        1454.565
  24169397.10645  24169398.33641  24169402.56841 127011033.7034   98969655.3594
      3700.867        2883.836
  21875305.04947  21875304.90647  21875307.61943 117346513.9474   91269557.8994
     -3790.884       -2948.461
  19346267.77448  19346268.59148  19346272.67745 103489506.7264   80491881.4594
      -106.753         -83.024
 04  5  5  0 13 30.0000000  0  8G 4G 5G 7G 9G14G30R23R24
  23715474.62946  23715475.77741  23715479.12441 124625702.5714   97110930.3784
      2837.926        2211.338
  21105640.78948  21105639.95844  21105643.74044 110910945.9634   86424122.1624
      2161.361        1684.174
  22008847.37747  22008846.44543  22008850.92644 115657308.9044   90122597.4564
     -1849.424       -1441.102
  20427121.21448  20427120.39245  20427123.98445 107345289.9714   83645716.3524
     -1392.284       -1084.901
  23097318.65847  23097318.36642  23097319.38741 121377219.3594   94579684.7794
      1849.014        1440.755
  24148276.73246  24148278.69141  24148281.93641 126900049.9784   98883174.6284
      3697.663        2881.321
  21896537.60947  21896536.97247  21896539.03443 117460403.8004   91358138.8344
     -3802.079       -2957.181
  19346935.53248  19346937.47048  19346941.38845 103493084.8384   80494664.4384
      -132.178        -102.807
 04  5  5  0 14  0.0000000  0  8G 4G 5G 7G 9G14G30R23R24
  23699310.73346  23699308.72541  23699314.43141 124540740.2884   97044725.9824
      2825.904        2202.037
  21093339.96648  21093338.74644  21093342.70744 110846302.8584   86373750.9284
      2147.884        1673.669
  22019446.20248  22019445.60643  22019449.49344 115713004.0964   90165996.2964
     -1863.827       -1452.336
  20435123.16148  20435122.57745  20435126.10245 107387341.7524   83678483.9504
     -1411.442       -1099.816
  23086814.63847  23086812.37342  23086816.14442 121322018.5274   94536671.1514
      1830.775        1426.588
  24127177.82546  24127178.24741  24127183.82641 126789173.0854   98796777.1494
      3693.883        2878.367
  21917832.49547  21917831.61247  21917834.69543 117574636.8864   91446986.7524
     -3813.679       -2966.207
  19347749.40548  19347750.48848  19347754.18545 103497433.9094   80498047.0544
      -158.091        -122.953
 04  5  5  0 14 30.0000000  0  8G 4G 5G 7G 9G14G30R23R24
  23683212.32046  23683211.25941  23683214.52541 124456150.7604   96978812.1424
      2813.898        2192.645
  21081117.15748  21081116.26544  21081120.24844 110782073.1554   86323701.8254
      2134.521        1663.269
  22030128.49747  22030127.58143  22030131.21143 115769139.1954   90209737.9094
     -1878.028       -1463.390
  20443236.26448  20443235.74845  20443239.06545 107429976.6874   83711705.9534
     -1430.417       -1114.600
  23076415.18547  23076415.39941  23076418.92142 121267374.2314   94494091.1934
      1812.625        1412.421
  24106103.15946  24106101.53241  24106106.24341 126678419.4664   98710475.6904
      3690.167        2875.492
  21939193.23447  21939191.82547  21939195.81343 117689225.2444   91536111.0074
     -3825.045       -2975.051
  19348708.36048  19348709.96348  19348714.09045 103502568.0354   80502040.2724
      -183.772        -142.928
 04  5  5  0 15  0.0000000  0  8G 4G 5G 7G 9G14G30R23R24
  23667183.73446  23667184.30441  23667187.02141 124371924.8974   96913181.6364
      2801.619        2183.105
  21068971.00648  21068970.25844  21068974.17944 110718246.5744   86273966.8534
      2120.983        1652.710
  22040891.68847  22040890.50943  22040894.84744 115825700.6134   90253811.7384
     -1892.287       -1474.522
  20451458.02948  20451457.34945  20451460.86945 107473181.6644   83745372.1534
     -1449.489       -1129.464
  23066121.12447  23066121.02141  23066123.73542 121213276.5914   94451937.1744
      1794.298        1398.127
  24085047.97046  24085049.13641  24085050.27741 126567778.5824   98624262.0724
      3686.314        2872.397
  21960618.11747  21960616.58947  21960619.23043 117804153.5004   91625499.6074
     -3836.382       -2983.842
  19349812.86248  19349814.39948  19349818.10645 103508474.0774   80506633.8694
      -209.550        -162.987
 04  5  5  0 15 30.0000000  0  8G 4G 5G 7G 9G14G30R23R24
  23651225.99146  23651224.38641  23651229.91341 124288066.8414   96847837.7274
      2789.359        2173.527
  21056902.60948  21056901.64044  21056905.72544 110654825.6904   86224548.0004
      2107.476        1642.191
  22051735.66248  22051734.43043  22051739.26943 115882687.6584   90298217.2074
     -1906.415       -1485.505
  20459788.03248  20459787.50245  20459791.06345 107516956.7974   83779482.6404
     -1468.439       -1144.244
  23055931.12447  23055930.64042  23055932.87342 121159728.6014   94410211.5024
      1775.966        1383.853
  24064016.28846  24064017.13741  24064020.75241 126457252.9404   98538138.3054
      3682.504        2869.472
  21982103.56647  21982103.52647  21982106.55243 117919418.5454   91715150.1584
     -3847.499       -2992.502
  19351061.53548  19351062.88948  19351066.71045 103515152.8384   80511828.4674
      -235.268        -182.987
 04  5  5  0 16  0.0000000  0  8G 4G 5G 7G 9G14G30R23R24
  23635338.37246  23635338.35241  23635340.07741 124204571.2424   96782776.2594
      2777.321        2164.146
  21044910.11848  21044909.49544  21044912.68444 110591802.9494   86175439.3844
      2094.316        1631.932
  22062659.26848  22062658.21543  22062661.98543 115940089.9284   90342946.2514
     -1920.105       -1496.187
  20468224.73948  20468224.46045  20468227.80445 107561292.4074   83814029.8594
     -1486.976       -1158.680
  23045845.06347  23045844.64042  23045847.55542 121106723.7544   94368909.0144
      1757.938        1369.833
  24043003.21246  24043005.53841  24043006.62441 126346835.6574   98452098.9494
      3678.999        2866.770
  22003651.98047  22003651.32247  22003656.32943 118035008.5204   91805053.4424
     -3858.208       -3000.826
  19352452.48048  19352454.01848  19352457.76245 103522594.5694   80517616.4954
      -260.507        -202.618
 04  5  5  0 16 30.0000000  0  8G 4G 5G 7G 9G14G30R23R24
  23619518.81446  23619520.60941  23619524.37441 124121446.3664   96718003.6864
      2764.598        2154.192
  21032994.48848  21032993.32144  21032996.90544 110529185.1654   86126646.3104
      2080.468        1621.158
  22073662.65448  22073661.29843  22073665.75343 115997911.2734   90388001.8094
     -1934.337       -1507.270
  20476769.31048  20476768.77145  20476772.27145 107606193.2304   83849017.5014
     -1506.130       -1173.595
  23035863.02847  23035862.68342  23035864.85342 121054269.3834   94328035.4684
      1739.219        1355.250
  24022015.27446  24022014.62841  24022016.09641 126236533.8344   98366149.5954
      3674.752        2863.479
  22025261.02847  22025260.08547  22025265.19743 118150925.4544   91895211.0474
     -3869.330       -3009.499
  19353986.55148  19353988.25048  19353992.07245 103530803.3284   80524001.0814
      -286.448        -222.788
 04  5  5  0 17  0.0000000  0  8G 4G 5G 7G 9G14G30R23R24
  23603771.66546  23603773.44441  23603774.04341 124038689.8884   96653518.1254
      2752.813        2145.116
  21021154.74748  21021153.52644  21021157.39444 110466967.8464   86078165.2994
      2067.662        1611.165
  22084742.89647  22084742.24943  22084746.74643 116056144.2864   90433378.1844
     -1947.502       -1517.538
  20485420.21148  20485419.38845  20485422.86145 107651652.2234   83884440.0824
     -1524.141       -1187.641
  23025985.51447  23025983.84142  23025987.22642 121002362.1294   94287588.2624
      1721.543        1341.452
  24001045.37246  24001043.29341  24001048.14941 126126343.0754   98280286.7364
      3671.623        2860.986
  22046929.33547  22046928.83947  22046931.76043 118267160.1044   91985615.7304
     -3879.262       -3017.209
  19355664.13448  19355665.27748  19355668.93445 103539772.7384   80530977.2954
      -311.229        -242.062
 04  5  5  0 17 30.0000000  0  8G 4G 5G 7G 9G14G30R23R24
  23588094.57646  23588095.25641  23588099.16841 123956306.6164   96589323.4304
      2739.942        2135.028
  21009391.87648  21009391.08244  21009394.93644 110405154.7204   86029999.2314
      2053.805        1600.374
  22095903.60948  22095902.07543  22095906.82943 116114789.2014   90479075.5044
     -1961.591       -1528.502
  20494177.27448  20494176.34445  20494180.07545 107697670.1984   83920298.2364
     -1543.130       -1202.443
  23016212.41047  23016211.90942  23016215.05042 120951005.4824   94247570.0834
      1702.783        1326.869
  23980100.04946  23980099.08541  23980103.12941 126016266.8784   98194513.1774
      3667.378        2857.666
  22068655.17547  22068655.92747  22068660.07143 118383710.7874   92076266.2104
     -3890.111       -3025.626
  19357483.06148  19357484.43248  19357488.24445 103549503.7784   80538545.8854
      -336.929        -262.064
 04  5  5  0 18  0.0000000  0  8G 4G 5G 7G 9G14G30R23R24
  23572490.65546  23572492.30041  23572496.63741 123874311.2004   96525430.9194
      2726.577        2124.606
  20997708.80348  20997707.90944  20997711.76444 110343758.5634   85982158.0904
      2039.471        1589.184
  22107143.07748  22107142.46743  22107146.59743 116173856.1514   90525101.6814
     -1976.012       -1539.754
  20503042.03148  20503041.56945  20503045.31645 107744258.0904   83956600.4834
     -1562.516       -1217.546
  23006547.27746  23006549.00642  23006550.52342 120900213.2554   94207991.7564
      1683.547        1311.882
  23959176.40846  23959177.04441  23959180.40641 125906318.6744   98108839.2794
      3662.685        2854.065
  22090443.53547  22090442.45847  22090446.22843 118500585.9874   92167169.0904
     -3901.313       -3034.350
  19359446.49748  19359448.18848  19359451.34245 103560007.4894   80546715.4434
      -363.097        -282.410
 04  5  5  0 18 30.0000000  0  8G 4G 5G 7G 9G14G30R23R24
  23556961.12346  23556960.58541  23556965.46241 123792697.9084   96461836.1734
      2713.837        2114.651
  20986102.97048  20986102.23344  20986105.64344 110282771.7074   85934635.8684
      2025.885        1578.602
  22118461.05547  22118460.67443  22118464.62343 116233334.0894   90571448.1034
     -1989.615       -1550.359
  20512014.12648  20512013.52545  20512017.20545 107791405.3884   83993338.6204
     -1581.055       -1231.993
  22996987.99047  22996987.65142  22996990.83642 120849978.2324   94168847.5494
      1665.024        1297.432
  23938276.49446  23938275.77541  23938278.81441 125796490.8664   98023259.2784
      3658.707        2850.915
  22112287.39147  22112287.77247  22112293.90543 118617772.7514   92258314.3004
     -3911.562       -3042.327
  19361553.15548  19361554.04548  19361557.69645 103571273.2994   80555477.7424
      -388.386        -302.078
 04  5  5  0 19  0.0000000  0  8G 4G 5G 7G 9G14G30R23R24
  23541503.49846  23541503.47941  23541506.99041 123711467.1404   96398539.5254
      2701.549        2105.055
  20974575.63148  20974574.34344  20974578.60644 110222193.1564   85887431.8164
      2012.728        1568.362
  22129857.53447  22129855.94943  22129861.03843 116293219.1764   90618111.8014
     -2002.659       -1560.518
  20521091.52948  20521091.10245  20521094.67745 107839108.5434   84030509.9004
     -1599.099       -1246.043
  22987533.91047  22987532.96142  22987536.00142 120800299.8544   94130137.1324
      1646.894        1283.307
  23917399.35046  23917400.46241  23917404.88741 125686782.7054   97937772.5004
      3655.207        2848.213
  22134192.77747  22134191.93747  22134196.47143 118735265.7624   92349697.6914
     -3921.237       -3049.847
  19363801.02648  19363802.04948  19363805.50845 103583297.9264   80564830.2374
      -413.218        -321.396
 04  5  5  0 19 30.0000000  0  8G 4G 5G 7G 9G14G30R23R24
  23526119.49146  23526119.62841  23526124.42541 123630628.6624   96335548.5174
      2688.114        2094.607
  20963127.11948  20963125.99344  20963129.99944 110162030.3814   85840551.7414
      1998.525        1557.290
  22141330.91947  22141330.34343  22141335.16143 116353515.9344   90665096.2744
     -2016.705       -1571.461
  20530275.89048  20530275.41745  20530278.84645 107887373.0794   84068118.6244
     -1618.110       -1260.864
  22978188.64047  22978186.59242  22978190.92242 120751186.4974   94091866.9774
      1627.676        1268.305
  23896547.29946  23896546.78741  23896552.59541 125577202.2454   97852385.1514
      3650.591        2844.642
  22156152.18247  22156151.10247  22156155.72243 118853067.9204   92441321.5564
     -3931.801       -3058.051
  19366191.61448  19366192.98148  19366196.43045 103596086.8874   80574777.2004
      -438.998        -341.445
 04  5  5  0 20  0.0000000  0  8G 4G 5G 7G 9G14G30R23R24
  23510811.94746  23510808.87941  23510814.78941 123550181.7204   96272862.6154
      2674.680        2084.129
  20951756.74548  20951756.05444  20951759.27244 110102281.3164   85793994.0384
      1984.441        1546.320
  22152883.17247  22152881.73243  22152886.73143 116414219.2984   90712397.5774
     -2030.531       -1582.232
  20539566.27548  20539565.95945  20539569.48345 107936194.3044   84106161.1264
     -1636.951       -1275.549
  22968949.47947  22968950.69542  22968953.56742 120702636.5524   94054035.8614
      1608.608        1253.452
  23875718.75946  23875718.54541  23875722.44441 125467747.3594   97767095.7224
      3646.062        2841.109
  22178167.53547  22178167.36547  22178173.36343 118971172.1184   92533180.3244
     -3942.115       -3066.090
  19368723.58248  19368725.43948  19368728.89845 103609635.6124   80585315.1044
      -464.584        -361.340
 04  5  5  0 20 30.0000000  0  8G 4G 5G 7G 9G14G30R23R24
  23495576.89646  23495576.14441  23495581.02141 123470119.6684   96210476.6624
      2662.460        2074.642
  20940463.97948  20940463.34544  20940467.39844 110042937.5874   85747752.1754
      1971.530        1536.263
  22164509.60447  22164508.51043  22164512.54943 116475317.5994   90760006.6174
     -2043.009       -1591.964
  20548961.09148  20548960.54745  20548964.07145 107985561.3394   84144628.9344
     -1654.477       -1289.211
  22959816.10147  22959815.97542  22959818.38142 120654642.1124   94016637.6084
      1590.697        1239.544
  23854912.60546  23854912.22541  23854914.57241 125358410.0104   97681897.8344
      3642.776        2838.567
  22200239.06647  22200238.93947  22200243.74243 119089564.7754   92625263.4814
     -3951.054       -3073.049
  19371396.28848  19371397.81848  19371401.64045 103623931.8574   80596434.4124
      -488.730        -380.131
 04  5  5  0 21  0.0000000  0  8G 4G 5G 7G 9G14G30R23R24
  23480416.36846  23480416.29341  23480420.15041 123390454.6694   96148400.0484
      2648.681        2063.915
  20929250.75448  20929249.56444  20929253.52244 109984009.8294   85701834.4524
      1957.165        1525.072
  22176212.60647  22176211.52343  22176216.07043 116536818.3424   90807929.2624
     -2056.827       -1602.723
  20558460.42348  20558459.94145  20558463.24145 108035482.1814   84183528.2734
     -1673.376       -1303.920
  22950790.58347  22950790.03542  22950793.91142 120607214.0594   93979680.7004
      1571.348        1224.413
  23834131.28646  23834132.33841  23834134.22041 125249200.9224   97596799.9594
      3638.068        2834.850
  22222365.47047  22222365.22247  22222368.71143 119208252.8864   92717576.3774
     -3961.271       -3080.992
  19374210.77548  19374212.07648  19374215.56245 103638985.1764   80608142.5484
      -514.513        -400.178
 04  5  5  0 21 30.0000000  0  8G 4G 5G 7G 9G14G30R23R24
  23465333.49646  23465332.24241  23465339.22241 123311196.5214   96086640.5134
      2635.290        2053.461
  20918118.08448  20918116.85444  20918120.58944 109925506.1634   85656247.1914
      1943.198        1514.182
  22187993.66748  22187992.21543  22187997.22943 116598726.7044   90856169.5074
     -2070.198       -1613.144
  20568066.93248  20568065.88645  20568069.43545 108085962.4014   84222863.5064
     -1691.815       -1318.297
  22941875.55046  22941875.72742  22941877.49442 120560361.3494   93943172.1034
      1552.330        1209.588
  23813375.80046  23813373.23041  23813380.57141 125140128.6624   97511808.6214
      3633.642        2831.359
  22244544.84647  22244545.34947  22244549.77943 119327239.0104   92810121.1004
     -3970.947       -3088.501
  19377167.01048  19377168.40148  19377171.95845 103654801.1704   80620443.8794
      -539.709        -419.778
 04  5  5  0 22  0.0000000  0  8G 4G 5G 7G 9G14G30R23R24
  23450326.48446  23450327.56341  23450331.82841 123232336.7784   96025191.3594
      2622.219        2043.243
  20907063.24348  20907062.83644  20907066.41544 109867416.0214   85610982.1514
      1929.654        1503.628
  22199849.46347  22199848.40343  22199852.49043 116661029.2444   90904716.9104
     -2083.081       -1623.188
  20577776.49348  20577775.91045  20577779.71145 108136989.0884   84262624.5544
     -1709.763       -1332.292
  22933067.09947  22933065.61342  22933070.52042 120514074.1364   93907104.1454
      1533.696        1195.059
  23792642.89346  23792643.42841  23792646.81541 125031183.1294   97426916.0614
      3629.598        2828.245
  22266780.00647  22266779.09447  22266783.55943 119446508.4664   92902886.1864
     -3980.127       -3095.645
  19380264.09748  19380265.27448  19380268.33645 103671365.5274   80633327.2734
      -564.378        -438.967
 04  5  5  0 22 30.0000000  0  8G 4G 5G 7G 9G14G30R23R24
  23435396.59046  23435395.40741  23435400.59841 123153881.2144   95964057.2334
      2608.191        2032.334
  20896088.65648  20896087.81144  20896091.44444 109809743.7014   85566042.6954
      1915.174        1492.345
  22211779.70447  22211779.28443  22211784.33743 116723727.1324   90953572.3844
     -2096.758       -1633.849
  20587590.97848  20587590.34445  20587593.84545 108188563.8334   84302812.6484
     -1728.527       -1346.903
  22924366.73447  22924365.98542  22924370.30242 120468357.0264   93871480.4504
      1514.139        1179.840
  23771936.35746  23771936.24841  23771941.48041 124922368.7224   97342125.6454
      3624.708        2824.433
  22289066.01047  22289065.33547  22289069.43243 119566060.0464   92995870.7024
     -3989.964       -3103.306
  19383500.63748  19383501.67948  19383505.34245 103688681.2914   80646795.0924
      -589.906        -458.824
 04  5  5  0 23  0.0000000  0  8G 4G 5G 7G 9G14G30R23R24
  23420544.70846  23420542.75441  23420549.89741 123075832.8174   95903240.2754
      2594.651        2021.829
  20885193.99648  20885192.95744  20885196.94644 109752490.4274   85521429.7634
      1901.314        1481.541
  22223786.07847  22223784.90143  22223789.50943 116786818.5414   91002734.5034
     -2109.756       -1643.971
  20597509.20548  20597508.63045  20597512.38045 108240685.4054   84343426.8514
     -1746.616       -1361.011
  22915776.86847  22915776.80542  22915778.00442 120423211.4974   93836302.1324
      1495.161        1165.086
  23751255.78446  23751255.00141  23751258.72741 124813687.0984   97257438.6674
      3620.347        2821.031
  22311405.37847  22311404.22047  22311408.77743 119685890.6864   93089072.2524
     -3999.094       -3110.406
  19386877.16948  19386878.83248  19386883.09445 103706746.3824   80660845.7064
      -614.747        -478.145
 04  5  5  0 23 30.0000000  0  8G 4G 5G 7G 9G14G30R23R24
  23405771.17646  23405772.05841  23405776.22441 122998196.4474   95842744.4814
      2581.471        2011.487
  20874379.55848  20874378.36344  20874382.08344 109695659.3304   85477145.8004
      1887.837        1471.045
  22235867.05448  22235866.22843  22235870.81043 116850303.6584   91052203.4204
     -2122.229       -1653.690
  20607531.83348  20607531.71545  20607534.69345 108293354.5124   84384467.7014
     -1764.247       -1374.730
  22907294.98347  22907295.02242  22907297.53742 120378641.4224   93801572.2244
      1476.576        1150.593
  23730599.85746  23730598.74441  23730603.17241 124705141.8484   97172858.0184
      3616.410        2817.961
  22333793.63747  22333793.27847  22333798.07743 119805999.4654   93182490.1264
     -4007.707       -3117.088
  19390395.04248  19390396.45948  19390400.16145 103725561.7594   80675479.8814
      -639.176        -497.139
 04  5  5  0 24  0.0000000  0  8G 4G 5G 7G 9G14G30R23R24
  23391075.70947  23391075.93741  23391077.66041 122920964.4614   95782563.7164
      2567.240        2000.458
  20863643.40048  20863642.55544  20863646.25644 109639241.0934   85433183.5494
      1873.348        1459.747
  22248020.68648  22248019.99443  22248024.59943 116914170.1724   91101969.5174
     -2135.620       -1664.127
  20617656.60448  20617655.83245  20617659.31245 108346559.3464   84425926.0154
     -1782.769       -1389.175
  22898921.23846  22898920.97142  22898923.63642 120334638.0354   93767283.8634
      1456.971        1135.308
  23709969.42846  23709969.28541  23709973.53341 124596723.8214   97088376.5184
      3611.446        2814.114
  22356235.12847  22356234.01547  22356236.69643 119926371.5834   93276112.8274
     -4017.099       -3124.398
  19394050.02548  19394051.59748  19394055.19845 103745115.1034   80690688.0354
      -664.370        -516.736
 04  5  5  0 24 30.0000000  0  9G 4G 5G 7G 9G14G24G30R23R24
  23376457.26447  23376457.47341  23376462.18141 122844145.6784   95722704.9404
      2553.316        1989.612
  20852987.22348  20852986.20444  20852990.11744 109583242.9684   85389548.6514
      1859.200        1448.734
  22260247.84448  22260246.33443  22260251.26743 116978422.0784   91152035.9184
     -2148.507       -1674.157
  20627883.56748  20627883.28645  20627886.84545 108400304.4984   84467805.3354
     -1800.862       -1403.264
  22890657.64147  22890656.83142  22890658.92942 120291208.9714   93733443.0714
      1437.675        1120.261
  25188839.32845                                 132368224.9234
      3476.627
  23689362.45946  23689361.82741  23689366.24541 124488440.7974   97004000.1824
      3606.845        2810.507
  22378722.71147  22378722.43247  22378727.78143 120047010.1564   93369942.7754
     -4026.073       -3131.386
  19397844.47448  19397845.70748  19397850.03145 103765410.3754   80706473.2384
      -689.307        -536.127
 04  5  5  0 25  0.0000000  0  9G 4G 5G 7G 9G14G24G30R23R24
  23361917.53046  23361916.58041  23361921.30541 122767741.3644   95663169.1554
      2540.231        1979.442
  20842410.94448  20842410.22244  20842413.91944 109527664.5624   85346240.8004
      1845.954        1438.405
  22272546.33548  22272546.16543  22272549.64143 117043055.8564   91202399.8894
     -2160.458       -1683.467
  20638213.33148  20638212.90145  20638216.35445 108454586.8794   84510103.2834
     -1818.002       -1416.625
  22882501.23747  22882501.82642  22882504.12942 120248353.7784   93700049.3794
      1419.276        1105.903
  25168994.74545                                 132263938.7634
      3475.729
  23668783.21746  23668783.14841  23668785.20241 124380292.3584   96919728.7044
      3603.024        2807.512
  22401261.17147  22401259.60447  22401263.41543 120167909.5244   93463975.5414
     -4033.967       -3137.533
  19401777.17748  19401778.30948  19401781.78145 103786445.3904   80722833.8024
      -713.104        -554.636
 04  5  5  0 25 30.0000000  0  9G 4G 5G 7G 9G14G24G30R23R24
  23347458.08346  23347458.74941  23347464.65441 122691759.4154   95603962.4714
      2525.750        1968.100
  20831916.01948  20831915.00644  20831918.66644 109472512.0534   85303264.8234
      1831.420        1427.071
  22284919.79047  22284918.43943  22284922.02543 117108074.9424   91253064.0894
     -2173.572       -1693.715
  20648645.85348  20648645.39145  20648649.07745 108509410.3434   84552822.8634
     -1836.346       -1430.922
  22874457.66047  22874457.52142  22874462.04742 120206079.6024   93667108.4974
      1399.549        1090.552
  25149158.04044                                 132159708.2184
      3473.529
  23648228.44446  23648227.64141  23648232.18441 124272285.3424   96835567.4064
      3597.967        2803.630
  22423846.44147  22423846.63646  22423850.52343 120289072.4414   93558213.3204
     -4042.991       -3144.561
  19405847.77048  19405849.12348  19405852.91345 103808223.8074   80739772.5724
      -738.180        -574.151
 04  5  5  0 26  0.0000000  0  9G 4G 5G 7G 9G14G24G30R23R24
  23333080.83747  23333080.07041  23333083.91741 122616201.1704   95545085.9664
      2511.525        1957.004
  20821501.76648  20821500.51644  20821504.31544 109417784.8444   85260620.2414
      1817.183        1415.993
  22297364.69347  22297364.43643  22297368.54743 117173475.7114   91304025.7054
     -2186.326       -1703.624
  20659180.87148  20659180.34845  20659183.99145 108564771.7644   84595961.6224
     -1854.302       -1444.902
  22866524.32147  22866523.34842  22866527.34642 120164386.2374   93634620.1954
      1380.135        1075.433
  25129338.90245                                 132055534.3234
      3471.558
  23627703.50646  23627703.49141  23627707.75441 124164419.7114   96751516.3804
      3593.190        2799.926
  22446483.29547  22446482.74547  22446485.44243 120410492.8434   93652651.3294
     -4051.582       -3151.241
  19410057.57148  19410058.74448  19410062.67445 103830741.6544   80757286.4494
      -762.884        -593.356
 04  5  5  0 26 30.0000000  0  9G 4G 5G 7G 9G14G24G30R23R24
  23318782.64146  23318782.56341  23318784.55441 122541068.4524   95486540.9604
      2496.684        1945.505
  20811168.28948  20811167.35344  20811170.99544 109363483.1864   85218307.2704
      1802.332        1404.425
  22309882.69748  22309881.11643  22309885.40343 117239255.4744   91355282.6374
     -2199.577       -1713.936
  20669817.81448  20669817.19645  20669820.72845 108620668.9274   84639517.8504
     -1872.773       -1459.300
  22858700.46747  22858699.58842  22858702.43442 120123274.1684   93602584.8204
      1360.071        1059.780
  25109523.96745                                 131951419.0094
      3468.857
  23607203.22846  23607203.09241  23607208.81341 124056695.8424   96667575.7494
      3587.770        2795.647
  22469164.71647  22469164.42747  22469168.57543 120532166.5344   93747286.4014
     -4060.627       -3158.254
  19414404.42348  19414406.13648  19414409.93045 103853997.1114   80775374.0224
      -788.044        -612.920
 04  5  5  0 27  0.0000000  0  9G 4G 5G 7G 9G14G24G30R23R24
  23304567.18047  23304567.04341  23304571.20141 122466364.1294   95428329.8594
      2483.391        1935.120
  20800916.05848  20800915.55044  20800919.16444 109309608.5414   85176327.0404
      1789.086        1394.100
  22322471.74047  22322470.94543  22322474.95943 117305412.2984   91406833.3834
     -2211.094       -1722.920
  20680556.49248  20680555.78345  20680559.56545 108677100.4044   84683490.4134
     -1889.540       -1472.364
  22850987.68347  22850987.68242  22850990.03342 120082744.9994   93571003.6724
      1341.636        1045.415
  25089722.76045                                 131847365.3404
      3467.771
  23586733.24846  23586732.67141  23586737.10641 123949115.3824   96583746.8774
      3583.982        2792.705
  22491894.72847  22491892.98647  22491896.83443 120654090.8084   93842116.3044
     -4067.857       -3163.890
  19418889.94748  19418891.07548  19418894.45545 103877987.9414   80794033.5544
      -811.534        -631.200
 04  5  5  0 27 30.0000000  0  9G 4G 5G 7G 9G14G24G30R23R24
  23290433.11946  23290432.54341  23290436.32841 122392089.4984   95370453.5254
      2468.938        1923.873
  20790745.33648  20790744.62544  20790748.19844 109256160.1194   85134678.9294
      1774.836        1382.991
  22335131.20147  22335130.70143  22335135.33943 117371942.8284   91458675.3314
     -2223.553       -1732.647
  20691396.01948  20691395.33045  20691398.93745 108734062.9604   84727876.8114
     -1907.261       -1486.175
  22843386.46347  22843385.02742  22843388.78042 120042799.0354   93539876.9754
      1322.139        1030.230
  25069935.04345                                 131743374.4554
      3465.591
  23566287.26646  23566288.19241  23566291.37341 123841678.5524   96500029.9044
      3579.122        2788.905
  22514667.48447  22514667.08047  22514669.63143 120776260.4984   93937137.1184
     -4076.022       -3170.223
  19423511.70248  19423512.80348  19423516.52145 103902711.5814   80813263.0504
      -836.013        -650.236
 04  5  5  0 28  0.0000000  0  9G 4G 5G 7G 9G14G24G30R23R24
  23276379.06346  23276380.79141  23276383.76341 122318244.3754   95312911.9344
      2454.325        1912.474
  20780655.44948  20780654.48544  20780657.78544 109203136.4294   85093361.7734
      1760.399        1371.741
  22347862.16047  22347861.21543  22347865.48843 117438842.1794   91510804.6854
     -2236.075       -1742.392
  20702336.03048  20702335.29845  20702338.86045 108791552.4864   84772673.8274
     -1925.047       -1500.033
  22835896.68247  22835895.78742  22835898.92042 120003434.6434   93509203.4174
      1302.470        1014.917
  25050157.76445                                 131639446.2264
      3463.229
  23545871.07846  23545870.30141  23545874.65341 123734383.8564   96416423.7464
      3574.155        2785.018
  22537486.73547  22537486.00247  22537491.44043 120898668.5764   94032343.3654
     -4084.151       -3176.576
  19428269.06448  19428270.51148  19428274.06045 103928162.8174   80833058.4524
      -860.439        -669.230
 04  5  5  0 28 30.0000000  0  9G 4G 5G 7G 9G14G24G30R23R24
  23262411.72446  23262411.84841  23262414.14241 122244834.6594   95255709.5514
      2439.377        1900.832
  20770647.21048  20770645.83344  20770649.47044 109150541.7024   85052378.8674
      1745.675        1360.273
  22360662.43247  22360662.19143  22360667.08343 117506111.5094   91563222.3204
     -2248.782       -1752.301
  20713376.21448  20713375.81645  20713379.32245 108849570.3194   84817882.5184
     -1943.040       -1514.060
  22828515.84247  22828515.69742  22828518.76142 119964656.2914   93478986.5104
      1282.516         999.356
  25030393.45445                                 131535586.4064
      3460.451
  23525481.21946  23525479.78341  23525480.83341 123627235.7304   96332931.7824
      3568.838        2780.884
  22560350.36247  22560350.01447  22560352.80043 121021315.4364   94127735.3154
     -4092.489       -3183.080
  19433162.73048  19433164.22648  19433168.13145 103954343.1924   80853420.9584
      -885.143        -688.438
 04  5  5  0 29  0.0000000  0  9G 4G 5G 7G 9G14G24G30R23R24
  23248525.24146  23248525.77941  23248528.09641 122171867.3834   95198851.9864
      2424.398        1889.124
  20760721.12948  20760720.04844  20760723.89144 109098381.3584   85011734.4424
      1730.982        1348.812
  22373534.94247  22373534.24643  22373538.40843 117573753.2094   91615930.1184
     -2261.334       -1762.069
  20724517.83748  20724517.26545  20724520.97645 108908119.1314   84863504.9584
     -1960.897       -1527.972
  22821249.79847  22821248.95142  22821250.97442 119926469.6094   93449230.6804
      1262.569         983.814
  25010644.05545                                 131431801.9124
      3457.723
  23505119.76046  23505119.40041  23505123.35341 123520240.1934   96249558.6764
      3563.512        2776.792
  22583256.47046  22583256.66546  22583261.79243 121144202.1774   94223313.8124
     -4100.596       -3189.333
  19438194.62848  19438195.98348  19438198.94145 103981255.7424   80874352.9434
      -909.664        -707.517
 04  5  5  0 29 30.0000000  0  9G 4G 5G 7G 9G14G24G30R23R24
  23234723.98846  23234722.92441  23234728.07141 122099336.4694   95142334.4274
      2410.684        1878.431
  20750876.33748  20750875.31344  20750879.00744 109046647.8264   84971422.6084
      1717.601        1338.385
  22386475.76647  22386474.45043  22386479.25143 117641756.6374   91668919.7944
     -2272.463       -1770.755
  20735758.32848  20735757.62445  20735761.44545 108967188.7694   84909533.2344
     -1977.379       -1540.823
  22814095.11547  22814094.47442  22814095.77742 119888867.4694   93419930.3064
      1243.931         969.284
  24990907.53145                                 131328087.1654
      3456.185
  23484786.79146  23484786.59141  23484790.62141 123413389.8604   96166298.7224
      3559.514        2773.638
  22606208.99447  22606207.85146  22606212.23743 121267315.7484   94319068.7174
     -4107.338       -3194.603
  19443360.68048  19443361.60948  19443365.23345 104008889.7384   80895846.0584
      -932.865        -725.568
 04  5  5  0 30  0.0000000  0  9G 4G 5G 7G 9G14G24G30R23R24
  23221006.18047  23221006.70141  23221010.35241 122027244.7474   95086159.0694
      2396.218        1867.176
  20741113.43748  20741112.22444  20741116.33944 108995341.9614   84931444.0164
      1703.581        1327.459
  22399485.32247  22399484.12343  22399488.44043 117710119.8594   91722189.8134
     -2284.211       -1779.909
  20747098.62148  20747097.35045  20747100.93245 109026777.9344   84955966.3384
     -1994.422       -1554.101
  22807050.14747  22807049.77042  22807053.89342 119851851.2914   93391086.5364
      1224.605         954.248
  24971185.66345                                 131224445.0414
      3454.008
  23464481.13546  23464481.82341  23464483.59741 123306686.4394   96083153.2114
      3554.837        2770.008
  22629199.76846  22629198.42546  22629203.57443 121390653.6534   94414998.1324
     -4114.484       -3200.157
  19448661.61148  19448662.05148  19448665.57645 104037243.2614   80917898.7894
      -956.608        -744.036
 04  5  5  0 30 30.0000000  0  9G 4G 5G 7G 9G14G24G30R23R24
  23207372.47146  23207371.91541  23207375.47641 121955601.2914   95030333.0484
      2380.674        1855.031
  20731432.82348  20731431.93444  20731435.77944 108944470.8124   84891804.1534
      1688.503        1315.715
  22412563.06747  22412561.80843  22412566.35543 117778847.2904   91775743.6294
     -2296.840       -1789.756
  20758537.06948  20758536.36545  20758539.72645 109086891.0844   85002807.7314
     -2012.416       -1568.110
  22800117.93447  22800119.07942  22800121.54142 119815428.4784   93362705.1284
      1204.243         938.386
  24951478.66945                                 131120884.5784
      3450.687
  23444205.58846  23444205.44041  23444213.28741 123200137.5964   96000128.2194
      3549.091        2765.562
  22652235.33547  22652235.16446  22652238.17243 121514218.7164   94511104.2084
     -4122.512       -3206.403
  19454096.73048  19454097.80748  19454101.61545 104066320.6484   80940514.5264
      -981.209        -763.159
 04  5  5  0 31  0.0000000  0  9G 4G 5G 7G 9G14G24G30R23R24
  23193822.96746  23193823.62441  23193826.21241 121884402.4824   94974853.4524
      2365.422        1843.182
  20721834.58048  20721833.25044  20721836.73244 108894029.8924   84852499.5474
      1673.750        1304.225
  22425708.81947  22425707.93943  22425712.80443 117847930.7384   91829574.8794
     -2309.118       -1799.307
  20770074.58048  20770073.76145  20770077.58645 109147520.8344   85050051.6854
     -2030.009       -1581.824
  22793300.28947  22793299.75742  22793302.86742 119779594.5574   93334782.6404
      1184.181         922.748
  24931784.66345                                 131017402.7334
      3447.624
  23423958.78246  23423959.24641  23423961.26141 123093738.9654   95917220.2254
      3543.642        2761.283
  22675310.92546  22675309.32846  22675313.56342 121638001.2464   94607379.4324
     -4130.182       -3212.389
  19459665.66848  19459667.64448  19459671.10145 104096114.5564   80963687.5624
     -1005.478        -782.032
 04  5  5  0 31 30.0000000  0  9G 4G 5G 7G 9G14G24G30R23R24
  23180361.49346  23180361.93441  23180365.53041 121813660.7374   94919730.0554
      2350.789        1831.787
  20712319.83848  20712318.64044  20712322.21244 108844029.8034   84813538.4454
      1659.701        1293.272
  22438925.75347  22438924.27543  22438927.55443 117917377.9494   91883689.5714
     -2320.562       -1808.219
  20781711.50948  20781711.07845  20781714.86445 109208674.9234   85097704.2064
     -2046.805       -1594.904
  22786595.93447  22786595.11542  22786597.90942 119744360.2024   93307327.3304
      1164.834         907.677
  24912111.40845                                 130914011.9234
      3445.129
  23403744.18447  23403742.94441  23403744.76241 122987501.4974   95834437.8484
      3538.914        2757.596
  22698427.68447  22698427.55747  22698432.89043 121762007.5754   94703828.7344
     -4136.863       -3217.562
  19465371.07848  19465372.05048  19465376.35845 104126631.5264   80987422.9764
     -1028.922        -800.274
 04  5  5  0 32  0.0000000  0  9G 4G 5G 7G 9G14G24G30R23R24
  23166986.19346  23166986.06641  23166991.22941 121743373.3314   94864960.6724
      2335.953        1820.238
  20702887.68848  20702887.07344  20702890.71544 108794465.6214   84774917.0114
      1645.481        1282.185
  22452208.58047  22452207.23443  22452211.25443 117987181.4914   91938081.9154
     -2332.062       -1817.185
  20793447.74648  20793446.80645  20793450.52245 109270345.9954   85145759.5764
     -2063.643       -1608.028
  22780003.96547  22780002.59442  22780005.96442 119709721.3164   93280336.0024
      1145.363         892.498
  24892451.89145                                 130810709.0004
      3442.561
  23383556.95046  23383557.04841  23383562.54741 122881421.3294   95751778.0114
      3534.007        2753.762
  22721584.07346  22721583.23746  22721587.91642 121886229.4674   94800445.7004
     -4143.616       -3222.798
  19471209.38648  19471211.01448  19471214.84145 104157865.4964   81011716.0624
     -1052.376        -818.514
 04  5  5  0 32 30.0000000  0  9G 4G 5G 7G 9G14G24G30R23R24
  23153695.25746  23153695.33041  23153698.40041 121673531.0044   94810538.0924
      2320.127        1807.908
  20693537.30448  20693536.08344  20693540.38844 108745326.9334   84736627.1294
      1630.346        1270.404
  22465555.53147  22465555.20743  22465559.21143 118057327.5394   91992741.1484
     -2344.382       -1826.817
  20805278.80848  20805278.31545  20805281.72545 109332520.7864   85194207.4594
     -2081.369       -1621.848
  22773522.56447  22773522.12342  22773526.33442 119675667.1874   93253800.3464
      1124.863         876.528
  24872811.70245                                 130707485.3374
      3438.906
  23363397.88847  23363399.73941  23363399.40541 122775488.0464   95669232.6164
      3528.138        2749.212
  22744777.59346  22744777.97146  22744783.91742 122010651.3234   94897218.1924
     -4151.204       -3228.702
  19477179.94348  19477181.24348  19477184.72345 104189801.7014   81036555.3264
     -1076.725        -837.459
 04  5  5  0 33  0.0000000  0  9G 4G 5G 7G 9G14G24G30R23R24
  23140494.03346  23140493.25441  23140498.09041 121604151.5624   94756476.2094
      2305.608        1796.574
  20684270.53848  20684269.35344  20684273.24944 108696630.1044   84698681.5614
      1616.581        1259.682
  22478972.58647  22478971.81843  22478976.78443 118127829.5474   92047677.7584
     -2355.254       -1835.279
  20817208.93448  20817208.24345  20817211.74745 109395213.0824   85243058.5784
     -2097.636       -1634.521
  22767157.74647  22767156.29442  22767161.49542 119642214.6434   93227733.4634
      1105.759         861.616
  24853185.68345                                 130604359.0474
      3436.574
  23343270.19646  23343268.37341  23343273.72241 122669718.7764   95586815.0914
      3523.586        2745.652
  22768012.63646  22768011.76846  22768015.10043 122135285.1304   94994155.5234
     -4157.284       -3233.433
  19483283.75248  19483284.88548  19483288.79945 104222453.5734   81061951.2234
     -1099.577        -855.225
 04  5  5  0 33 30.0000000  0 10G 4G 5G 7G 9G14G20G24G30R23R24
  23127377.27146  23127375.68341  23127380.00241 121535225.9894   94702767.9844
      2289.485        1784.027
  20675085.50948  20675084.79044  20675088.15344 108648364.3824   84661071.9254
      1601.191        1247.670
  22492453.81447  22492452.41543  22492457.73843 118198673.6434   92102880.9094
     -2367.588       -1844.892
  20829234.52548  20829233.94245  20829237.63945 109458409.3794   85292302.4314
     -2115.378       -1648.355
  22760904.33047  22760904.00342  22760906.16942 119609352.9814   93202126.9864
      1085.039         845.494
  25287078.82245                                 132884485.3024
      2148.217
  24833579.23745                                 130501321.0814
      3432.654
  23323171.39046  23323172.21041  23323175.81541 122564102.9764   95504517.1274
      3517.525        2740.873
  22791282.91746  22791282.59246  22791288.60243 122260115.1274   95091245.4594
     -4164.706       -3239.215
  19489518.58448  19489520.36948  19489523.62945 104255806.9534   81087892.7434
     -1123.963        -874.198
 04  5  5  0 34  0.0000000  0 10G 4G 5G 7G 9G14G20G24G30R23R24
  23114350.49047  23114351.49841  23114353.44941 121466769.1934   94649425.0454
      2274.237        1772.121
  20665985.37648  20665984.57544  20665988.43244 108600543.0574   84623808.5554
      1586.823        1236.496
  22506001.62147  22506000.92643  22506006.31643 118269870.1804   92158358.6864
     -2378.890       -1853.681
  20841358.50148  20841357.83645  20841361.71545 109522120.2514   85341947.2414
     -2132.065       -1661.345
  22754766.26347  22754764.71242  22754769.15742 119577095.6994   93176991.4874
      1065.361         830.147
  25274855.05345                                 132820251.0694
      2134.064
  24813991.67745                                 130398386.6744
      3429.535
  23303106.71346  23303104.61741  23303109.87441 122458654.5064   95422349.4894
      3512.307        2736.884
  22814589.86246  22814589.33946  22814595.78043 122385151.0424   95188495.5354
     -4171.087       -3244.180
  19495887.60448  19495888.73348  19495892.21845 104289873.4684   81114388.9094
     -1147.226        -892.289
 04  5  5  0 34 30.0000000  0 10G 4G 5G 7G 9G14G20G24G30R23R24
  23101410.73446  23101411.02541  23101415.59741 121398779.3674   94596445.9664
      2258.642        1759.972
  20656969.39948  20656968.28344  20656971.89344 108553162.4244   84586888.5924
      1572.124        1225.038
  22519616.04847  22519614.48743  22519619.35243 118341412.7794   92214106.1484
     -2390.367       -1862.616
  20853578.96348  20853578.40745  20853582.23745 109586339.7454   85391988.3944
     -2148.991       -1674.542
  22748741.31447  22748741.67342  22748744.51842 119545439.5164   93152324.3584
      1045.296         814.498
  25262714.84045                                 132756454.6854
      2119.336
  24794423.29545                                 130295554.3494
      3426.162
  23283073.14747  23283072.00641  23283073.08941 122353370.5534   95340310.0894
      3506.798        2732.616
  22837936.67646  22837935.93646  22837941.41343 122510385.2584   95285899.8454
     -4177.581       -3249.239
  19502387.26348  19502388.39148  19502392.84345 104324645.0604   81141433.4744
     -1170.651        -910.511
 04  5  5  0 35  0.0000000  0 10G 4G 5G 7G 9G14G20G24G30R23R24
  23088563.32647  23088562.97941  23088566.98041 121331253.3294   94543828.3244
      2242.776        1747.609
  20648036.24948  20648035.24944  20648038.67244 108506218.2744   84550308.7444
      1557.215        1213.420
  22533294.57047  22533294.19343  22533298.23843 118413294.0814   92270117.5114
     -2401.956       -1871.646
  20865895.06548  20865894.59245  20865897.93645 109651060.4394   85442420.0864
     -2165.989       -1687.780
  22742831.23547  22742831.14842  22742834.14642 119514380.0414   93128122.2044
      1025.037         798.723
  25250658.18045                                 132693094.2974
      2104.388
  24774873.30745                                 130192821.0864
      3422.460
  23263066.81646  23263068.82441  23263072.60241 122248247.0764   95258395.7294
      3501.138        2728.145
  22861319.84346  22861318.21446  22861320.74942 122635808.9654   95383451.5984
     -4184.239       -3254.395
  19509017.74648  19509019.56348  19509023.08945 104360114.7934   81169021.0294
     -1194.200        -928.817
 04  5  5  0 35 30.0000000  0 10G 4G 5G 7G 9G14G20G24G30R23R24
  23075802.22446  23075801.72541  23075806.24141 121264203.2494   94491581.5174
      2227.375        1735.618
  20639187.87248  20639186.99144  20639190.84744 108459720.8814   84514077.0104
      1542.773        1202.156
  22547038.33247  22547038.19843  22547042.36043 118485521.3074   92326398.4484
     -2413.002       -1880.262
  20878307.33448  20878306.97845  20878311.08345 109716289.9754   85493248.2784
     -2182.483       -1700.642
  22737036.25747  22737036.33442  22737038.62642 119483927.8054   93104393.2214
      1005.273         783.291
  25238685.20745                                 132630181.8934
      2089.948
  24755346.43545                                 130090199.4124
      3419.137
  23243095.74947  23243096.79841  23243100.81841 122143295.1584   95176615.0884
      3495.836        2724.054
  22884734.19846  22884734.96446  22884740.43643 122761427.7904   95481155.0344
     -4190.176       -3259.000
  19515781.18748  19515782.30848  19515786.07145 104396290.3604   81197157.5834
     -1217.254        -946.757
 04  5  5  0 36  0.0000000  0 10G 4G 5G 7G 9G14G20G24G30R23R24
  23063134.12747  23063134.49542  23063138.32942 121197625.5714   94439702.8224
      2210.964        1722.847
  20630423.79648  20630423.05744  20630426.63444 108413664.9084   84478189.2524
      1527.449        1190.213
  22560847.70547  22560847.02943  22560851.27043 118558086.3884   92382942.6274
     -2424.835       -1889.489
  20890816.05848  20890815.23644  20890818.92445 109782020.7024   85544467.0054
     -2199.724       -1714.061
  22731355.88747  22731355.56242  22731358.52942 119454077.7644   93081133.4834
       984.562         767.169
  25226798.32845                                 132567713.5554
      2074.414
  24735836.43845                                 129987685.9294
      3414.909
  23223155.78947  23223154.74441  23223158.59541 122038510.1004   95094964.4364
      3489.658        2719.220
  22908188.98546  22908187.86346  22908191.60443 122887232.6674   95579003.2104
     -4196.955       -3264.273
  19522674.01648  19522675.49648  19522679.22945 104433163.0344   81225836.3224
     -1241.089        -965.293
 04  5  5  0 36 30.0000000  0 10G 4G 5G 7G 9G14G20G24G30R23R24
  23050554.60746  23050555.33142  23050560.02242 121131525.0934   94388195.9964
      2195.545        1710.802
  20621744.54448  20621743.38244  20621747.20444 108368054.0044   84442648.3004
      1513.100        1179.037
  22574719.98347  22574720.12243  22574723.67343 118630989.5134   92439750.2494
     -2435.523       -1897.824
  20903419.31648  20903419.01544  20903422.32645 109848252.7604   85596076.3844
     -2215.872       -1726.652
  22725791.63147  22725791.51742  22725793.33342 119424833.3834   93058345.6944
       964.903         751.888
  25214996.36845                                 132505694.1244
      2060.029
  24716349.95445                                 129885286.0584
      3411.657
  23203247.87246  23203247.13541  23203251.09241 121933895.7884   95013446.8624
      3484.485        2715.193
  22931674.54546  22931673.26746  22931680.54642 123013223.1594   95676995.7784
     -4202.510       -3268.620
  19529696.87148  19529698.43648  19529702.10545 104470733.4534   81255057.7514
     -1263.720        -982.899
 04  5  5  0 37  0.0000000  0 10G 4G 5G 7G 9G14G20G24G30R23R24
  23038067.51247  23038067.18342  23038069.96342 121065901.3064   94337060.5724
      2179.475        1698.261
  20613148.57048  20613148.60944  20613151.82044 108322885.9834   84407452.4414
      1498.229        1167.450
  22588657.33147  22588656.42043  22588661.06243 118704225.8744   92496817.5034
     -2446.720       -1906.526
  20916117.38848  20916117.09345  20916120.73445 109914981.6924   85648072.9454
     -2232.535       -1739.632
  22720340.90047  22720340.12042  22720343.72342 119396192.7014   93036028.3004
       944.639         736.104
  25203279.35045                                 132444122.8244
      2044.905
  24696886.38445                                 129782999.2124
      3407.712
  23183373.07246  23183372.80541  23183376.42841 121829450.6884   94932061.1294
      3478.686        2710.638
  22955194.70546  22955194.21546  22955199.67442 123139391.7874   95775126.8594
     -4208.525       -3273.277
  19536849.77948  19536851.50348  19536855.08645 104508995.9624   81284817.4674
     -1286.894       -1000.913
 04  5  5  0 37 30.0000000  0 10G 4G 5G 7G 9G14G20G24G30R23R24
  23025672.62547  23025671.94242  23025675.64342 121000759.9844   94286301.1104
      2163.256        1685.678
  20604639.17048  20604638.26344  20604642.00845 108278165.2354   84372605.1094
      1483.206        1155.752
  22602657.17047  22602656.84243  22602661.95143 118777796.7604   92554145.4564
     -2457.932       -1915.266
  20928910.43648  20928909.96944  20928913.88545 109982209.0154   85700457.8434
     -2249.223       -1752.633
  22715007.30047  22715005.71242  22715009.29042 119368160.0324   93014184.6804
       924.260         720.203
  25191649.20545                                 132383005.0014
      2029.663
  24677445.19146                                 129680832.0374
      3403.537
  23163530.28347  23163529.91941  23163534.64141 121725179.6964   94850811.0594
      3472.766        2706.029
  22978748.20046  22978748.75146  22978750.63743 123265739.7914   95873397.4544
     -4214.532       -3277.966
  19544132.52448  19544133.54048  19544137.30545 104547951.4104   81315116.1444
     -1310.006       -1018.885
 04  5  5  0 38  0.0000000  0 10G 4G 5G 7G 9G14G20G24G30R23R24
  23013369.99147  23013368.18042  23013372.49142 120936108.9554   94235923.7164
      2147.298        1673.221
  20596215.14548  20596214.29644  20596217.87444 108233897.7274   84338110.9594
      1468.523        1144.308
  22616722.53847  22616720.97543  22616725.91643 118851705.4184   92611736.5874
     -2468.715       -1923.658
  20941799.16948  20941798.29544  20941801.94045 110049938.1264   85753233.7564
     -2265.496       -1765.310
  22709789.40647  22709788.79042  22709790.95742 119340741.6554   92992819.7314
       904.175         704.546
  25180105.92345                                 132322348.6094
      2014.657
  24658027.31445                                 129578792.4204
      3399.653
  23143722.11647  23143721.70041  23143725.78841 121621089.5694   94769701.9304
      3467.070        2701.633
  23002333.02146  23002333.75046  23002338.73342 123392269.0154   95971809.0104
     -4220.097       -3282.305
  19551545.15448  19551546.35048  19551550.25345 104587603.8994   81345956.9654
     -1332.856       -1036.666
 04  5  5  0 38 30.0000000  0 10G 4G 5G 7G 9G14G20G24G30R23R24
  23001159.58547  23001159.81342  23001162.89942 120871946.8044   94185927.2484
      2130.426        1660.055
  20587877.33248  20587876.09044  20587880.07744 108190080.1504   84303967.3944
      1452.924        1132.155
  22630849.34347  22630847.59343  22630852.59243 118925945.7054   92669586.1234
     -2480.301       -1932.671
  20954781.66548  20954781.18244  20954785.03145 110118163.2914   85806396.2094
     -2282.534       -1778.589
  22704688.11447  22704687.25242  22704690.12242 119313934.4704   92971931.0154
       883.228         688.236
  25168650.71745                                 132262151.5224
      1998.731
  24638634.82646                                 129476879.0474
      3394.802
  23123948.23547  23123948.96041  23123951.52941 121517177.8034   94688731.7454
      3460.609        2696.582
  23025954.35046  23025954.55346  23025959.97642 123518971.9334   96070355.6774
     -4226.388       -3287.186
  19559085.99948  19559087.78948  19559091.83745 104627946.2284   81377334.3174
     -1356.386       -1054.964
 04  5  5  0 39  0.0000000  0 10G 4G 5G 7G 9G14G20G24G30R23R24
  22989042.76347  22989041.50742  22989047.03842 120808274.7214   94136312.6484
      2114.759        1647.854
  20579624.97648  20579623.31644  20579627.19645 108146713.0174   84270174.8294
      1438.614        1121.002
  22645039.44547  22645038.95542  22645042.52642 119000514.6404   92727691.7384
     -2490.517       -1940.687
  20967858.54148  20967857.94344  20967861.90545 110186881.7044   85859943.0084
     -2298.252       -1790.845
  22699703.37047  22699702.42642  22699704.97442 119287738.6034   92951518.6734
       863.566         672.907
  25157282.76045                                 132202415.4924
      1984.059
  24619265.15846                                 129375093.8404
      3391.222
  23104209.37547  23104209.49841  23104212.24641 121413445.0304   94607901.0904
      3455.325        2692.473
  23049605.19546  23049604.78146  23049609.73242 123645844.3874   96169034.2034
     -4231.284       -3290.997
  19566756.06948  19566757.88248  19566761.41745 104668975.4424   81409245.9194
     -1378.495       -1072.160
 04  5  5  0 39 30.0000000  0 10G 4G 5G 7G 9G14G20G24G30R23R24
  22977020.42547  22977020.48442  22977023.16642 120745091.4194   94087078.9464
      2097.796        1634.641
  20571457.14148  20571456.31444  20571459.68544 108103793.0254   84236730.6824
      1423.087        1108.901
  22659291.24447  22659290.32043  22659294.36643 119075406.6324   92786049.1154
     -2501.877       -1949.499
  20981027.81548  20981027.25344  20981031.19545 110256087.7694   85913869.7984
     -2315.106       -1803.972
  22694833.78147  22694833.19242  22694835.39142 119262151.0894   92931580.3484
       842.671         656.625
  25146003.84445                                 132143138.7024
      1968.078
  24599921.99546                                 129273435.8744
      3386.338
  23084501.90847  23084502.64541  23084505.77241 121309888.9594   94527208.0554
      3448.765        2687.346
  23073289.34246  23073287.31346  23073291.68542 123772879.8384   96267839.4634
     -4237.279       -3295.668
  19574553.25648  19574554.73948  19574558.45745 104710685.1674   81441686.8044
     -1401.746       -1090.239
 04  5  5  0 40  0.0000000  0 10G 4G 5G 7G 9G14G20G24G30R23R24
  22965089.76447  22965089.91942  22965092.39142 120682401.7734   94038229.8654
      2081.414        1621.926
  20563375.09148  20563374.37144  20563378.03845 108061323.5664   84203637.6064
      1408.147        1097.252
  22673604.12547  22673603.03943  22673607.56943 119150621.7754   92844658.2864
     -2512.524       -1957.821
  20994290.77448  20994289.81744  20994293.27645 110325781.7854   85968176.7954
     -2331.253       -1816.569
  22690080.54447  22690079.99642  22690083.33542 119237175.0734   92912118.5764
       822.353         640.800
  25134811.37345                                 132084325.7304
      1952.625
  24580602.25146                                 129171910.1834
      3381.908
  23064831.79547  23064831.04841  23064835.53941 121206513.5354   94446655.8404
      3442.844        2682.733
  23097000.14046  23096999.14746  23097004.89042 123900076.6174   96366770.2244
     -4242.532       -3299.759
  19582478.33748  19582479.26848  19582483.36245 104753075.5144   81474657.0614
     -1424.318       -1107.812
 04  5  5  0 40 30.0000000  0 10G 4G 5G 7G 9G14G20G24G30R23R24
  22953257.77147  22953257.77642  22953260.63942 120620220.7434   93989777.1504
      2063.899        1608.240
  20555381.65048  20555380.99944  20555384.47745 108019317.9774   84170905.9864
      1392.152        1084.786
  22687980.52947  22687978.84442  22687984.64443 119226170.8764   92903527.6784
     -2524.137       -1966.876
  21007647.59448  21007647.13544  21007650.65144 110395974.7854   86022872.6154
     -2348.328       -1829.859
  22685447.41747  22685446.95042  22685449.39942 119212824.4274   92893144.0524
       800.989         624.139
  25123708.39944                                 132025991.9714
      1936.094
  24561309.27246  24561305.46941  24561314.51141 129070532.6734  100574467.7894
      3376.497        2631.047
  23045196.97447  23045197.26742  23045199.49142 121103333.0624   94366255.5414
      3435.805        2677.236
  23120741.99146  23120741.76246  23120748.89842 124027445.2494   96465834.6474
     -4248.704       -3304.522
  19590531.50648  19590532.92048  19590536.72945 104796157.6294   81508165.3624
     -1447.821       -1126.087
 04  5  5  0 41  0.0000000  0 10G 4G 5G 7G 9G14G20G24G30R23R24
  22941521.68446  22941519.78042  22941524.35242 120558548.8394   93941721.1484
      2047.762        1595.669
  20547476.48748  20547475.83744  20547479.59045 107977775.6204   84138535.3174
      1377.550        1073.422
  22702420.37847  22702419.16642  22702422.45942 119302049.8554   92962654.1134
     -2534.251       -1974.723
  21021099.08848  21021098.59844  21021102.42244 110466662.8654   86077954.2224
     -2363.968       -1842.039
  22680932.28047  22680931.17542  22680934.71542 119189097.7834   92874655.7754
       781.009         608.573
  25112699.69945                                 131968137.3514
      1920.928
  24542044.01845  24542045.93441  24542051.46041 128969304.0184  100495588.3994
      3372.277        2627.776
  23025599.97447  23025599.87942  23025605.01942 121000347.0444   94286006.6944
      3430.123        2672.820
  23144517.04546  23144516.10246  23144520.61642 124154980.2294   96565028.4694
     -4253.379       -3308.195
  19598714.02248  19598715.39948  19598718.90645 104839926.3264   81542207.6654
     -1469.851       -1143.222
 04  5  5  0 41 30.0000000  0 10G 4G 5G 7G 9G14G20G24G30R23R24
  22929879.11547  22929879.83642  22929883.37242 120497375.1444   93894053.3554
      2030.554        1582.244
  20539657.26548  20539656.29044  20539660.11545 107936683.5534   84106515.5354
      1361.990        1061.294
  22716919.17847  22716916.83642  22716922.21742 119378243.2574   93022025.5734
     -2545.233       -1983.314
  21034642.38348  21034641.54944  21034645.13544 110537830.5874   86133409.5664
     -2380.486       -1854.927
  22676534.80647  22676532.86742  22676534.75642 119165982.6374   92856644.0104
       760.060         592.250
  25101779.49345                                 131910750.9724
      1904.862
  24522808.71346  24522808.12041  24522815.95541 128868213.4554  100416816.5694
      3367.129        2623.755
  23006036.52747  23006036.11742  23006040.44242 120897543.3614   94205900.0004
      3423.473        2667.632
  23168321.50946  23168319.77246  23168323.66142 124282665.1434   96664338.8764
     -4258.835       -3312.451
  19607021.36648  19607022.84448  19607026.63145 104884366.2274   81576772.0244
     -1492.783       -1161.058
 04  5  5  0 42  0.0000000  0 10G 4G 5G 7G 9G14G20G24G30R23R24
  22918335.44147  22918334.50542  22918338.51842 120436699.8884   93846773.9474
      2014.503        1569.721
  20531922.98648  20531922.24345  20531926.14545 107896041.0364   84074846.0434
      1347.571        1050.058
  22731476.65547  22731475.97942  22731481.06542 119454747.5454   93081639.2914
     -2554.953       -1990.874
  21048275.74548  21048274.78344  21048278.63044 110609474.4724   86189235.9594
     -2395.734       -1866.806
  22672250.73747  22672249.80742  22672253.86842 119143478.1174   92839108.0024
       740.257         576.828
  25090948.65745                                 131853833.0564
      1889.743
  24503599.29846  24503597.71841  24503604.01341 128767262.3564  100338153.4814
      3362.955        2620.497
  22986508.41047  22986507.76042  22986510.96442 120794922.3404   94125935.5884
      3417.933        2663.362
  23192148.70446  23192148.54046  23192154.61742 124410494.5264   96763761.6564
     -4263.016       -3315.705
  19615453.64448  19615455.27248  19615458.65245 104929472.9174   81611854.9974
     -1514.317       -1177.806
 04  5  5  0 42 30.0000000  0 10G 4G 5G 7G 9G14G20G24G30R23R24
  22906883.19147  22906883.10442  22906886.57142 120376528.5964   93799887.2264
      1996.943        1556.055
  20524275.38848  20524274.32645  20524278.06745 107855851.4394   84043529.4894
      1331.751        1037.730
  22746094.93147  22746093.41042  22746097.19942 119531563.1164   93141495.5534
     -2566.008       -1999.497
  21061999.81048  21061998.69744  21062002.84944 110681595.1184   86245433.8444
     -2412.285       -1879.703
  22668085.02547  22668084.44942  22668088.30642 119121587.5004   92822050.4124
       719.103         560.320
  25080208.42445                                 131797388.1754
      1873.208
  24484416.00546  24484416.74041  24484418.80441 128666456.3954  100259603.3964
      3357.416        2616.128
  22967015.22947  22967015.91642  22967019.22542 120692487.7244   94046116.4514
      3411.045        2657.976
  23216006.75846  23216005.53446  23216011.47542 124538468.0624   96863296.5284
     -4268.490       -3319.923
  19624010.59348  19624011.95748  19624015.90045 104975246.4094   81647456.5734
     -1537.214       -1195.604
 04  5  5  0 43  0.0000000  0 10G 4G 5G 7G 9G14G20G24G30R23R24
  22895530.96747  22895530.66542  22895534.81242 120316869.1604   93753399.4034
      1980.576        1543.316
  20516715.11648  20516714.19745  20516717.83645 107816121.7994   84012571.3324
      1317.135        1026.347
  22760772.13747  22760771.03942  22760775.35742 119608694.0294   93201597.5214
     -2575.803       -2007.123
  21075815.01848  21075814.32944  21075818.15644 110754196.9874   86302006.7124
     -2427.589       -1891.614
  22664037.87847  22664037.18842  22664039.89642 119100317.7894   92805476.6164
       699.083         544.730
  25069561.80445                                 131741425.1604
      1857.804
  24465262.22646  24465262.87641  24465263.92741 128565804.0504  100181173.1324
      3352.968        2612.672
  22947558.69747  22947559.29542  22947562.30242 120590247.3824   93966448.6724
      3405.257        2653.469
  23239888.30746  23239888.34746  23239894.56042 124666589.2644   96962946.2474
     -4272.711       -3323.218
  19632693.14548  19632694.12248  19632698.31445 105021690.7604   81683579.9634
     -1558.785       -1212.381
 04  5  5  0 43 30.0000000  0 10G 4G 5G 7G 9G14G20G24G30R23R24
  22884275.42447  22884277.26942  22884278.90942 120257718.6274   93707308.0644
      1962.521        1529.224
  20509241.37148  20509240.40344  20509244.28845 107776847.4574   83981967.9544
      1300.897        1013.689
  22775508.17247  22775508.50242  22775511.67542 119686132.8584   93261939.4464
     -2587.075       -2015.897
  21089720.89548  21089720.33644  21089724.13344 110827272.5564   86358948.6864
     -2444.365       -1904.699
  22660106.57447  22660106.34342  22660110.79642 119079664.2434   92789383.0064
       677.518         527.938
  25059000.65645                                 131685940.7044
      1840.826
  24446136.52146  24446134.57541  24446141.61141 128465302.9014  100102860.5784
      3346.873        2607.959
  22928139.99947  22928141.16542  22928144.12742 120488197.2434   93886929.1404
      3397.854        2647.680
  23263798.24546  23263799.85446  23263801.43242 124794848.8334   97062703.5884
     -4278.269       -3327.524
  19641499.34948  19641500.45248  19641503.88445 105068797.5654   81720218.5704
     -1581.926       -1230.380
 04  5  5  0 44  0.0000000  0 10G 4G 5G 7G 9G14G20G24G30R23R24
  22873117.56847  22873118.23342  22873122.66942 120199089.5394   93661623.0984
      1945.975        1516.298
  20501856.31248  20501855.49345  20501859.19445 107738039.8224   83951728.2424
      1286.191        1002.241
  22790304.75247  22790303.13942  22790308.73242 119763887.8304   93322527.6864
     -2596.679       -2023.365
  21103718.73448  21103717.95344  21103721.30644 110900830.1924   86416266.3084
     -2459.564       -1916.537
  22656296.41947  22656295.65142  22656299.30742 119059637.9064   92773778.1214
       657.481         512.326
  25048536.79945                                 131630947.0004
      1825.300
  24427044.21146  24427044.39741  24427046.21341 128364966.2524  100024676.2094
      3342.186        2604.335
  22908758.86447  22908758.04942  22908761.14842 120386349.4234   93807567.2494
      3391.939        2643.105
  23287738.68546  23287737.00646  23287740.50942 124923254.1274   97162574.3354
     -4282.171       -3330.587
  19650430.75448  19650431.97148  19650435.47745 105116575.0324   81757378.8094
     -1603.334       -1247.037
 04  5  5  0 44 30.0000000  0 10G 4G 5G 7G 9G14G20G24G30R23R24
  22862060.11447  22862058.45542  22862062.84742 120140974.9664   93616339.0174
      1928.634        1502.840
  20494558.62348  20494557.61045  20494561.61345 107699690.0574   83921845.3174
      1270.755         990.196
  22805158.67047  22805158.52242  22805162.60942 119841947.7144   93383353.5574
     -2606.992       -2031.412
  21117805.28648  21117805.00844  21117808.90044 110974858.6264   86473950.7874
     -2475.356       -1928.856
  22652602.62947  22652602.89842  22652605.78442 119040230.1124   92758655.2224
       636.678         496.097
  25038161.40645                                 131576437.1324
      1808.952
  24407977.35445  24407976.57541  24407979.54641 128264787.6614   99946615.0604
      3336.711        2600.028
  22889416.09247  22889415.77242  22889418.65842 120284696.0604   93728356.9004
      3385.264        2637.840
  23311697.66546  23311698.46446  23311703.25542 125051793.4584   97262549.2774
     -4286.699       -3334.072
  19659485.38948  19659486.56748  19659490.49745 105165011.7654   81795051.8124
     -1625.480       -1264.266
 04  5  5  0 45  0.0000000  0 10G 4G 5G 7G 9G14G20G24G30R23R24
  22851097.97247  22851098.44042  22851101.28442 120083373.1324   93571454.4784
      1911.322        1489.326
  20487347.90048  20487346.79945  20487350.53745 107661795.1814   83892316.8394
      1255.363         978.198
  22820070.97747  22820069.48042  22820073.12542 119920306.2494   93444412.1184
     -2617.102       -2039.283
  21131981.99748  21131980.69244  21131984.52044 111049351.6584   86531997.2854
     -2491.028       -1941.070
  22649026.53847  22649025.73042  22649029.22442 119021437.3894   92744011.5584
       615.954         479.949
  25027880.08745                                 131522408.7814
      1792.713
  24388946.64746  24388946.89941  24388951.17341 128164765.9434   99868675.9634
      3331.214        2595.772
  22870106.03047  22870107.38042  22870111.64842 120183234.4994   93649295.9434
      3378.625        2632.702
  23335684.15946  23335684.75646  23335688.38042 125180459.2004   97362622.5424
     -4291.153       -3337.582
  19668662.30148  19668663.42148  19668667.00345 105214100.4914   81833231.9224
     -1647.311       -1281.244
 04  5  5  0 45 30.0000000  0 10G 4G 5G 7G 9G14G20G24G30R23R24
  22840235.97547  22840235.64242  22840239.67842 120026287.7184   93526972.3554
      1894.481        1476.250
  20480223.55348  20480222.86245  20480226.40845 107624357.9794   83863144.9934
      1240.525         966.647
  22835037.12347  22835036.95042  22835040.45042 119998963.1304   93505703.1634
     -2626.595       -2046.700
  21146245.11148  21146244.42844  21146248.37944 111124309.0064   86590405.5934
     -2506.035       -1952.757
  22645568.93447  22645567.53142  22645569.87342 119003261.9024   92729848.8724
       595.811         464.285
  25017691.28845                                 131468865.7334
      1776.881
  24369944.57546  24369942.74841  24369946.30041 128064905.2924   99790862.5854
      3326.200        2591.832
  22850838.69747  22850837.58342  22850839.28842 120081968.0304   93570387.0394
      3372.525        2627.950
  23359691.16146  23359691.79646  23359696.51842 125309249.6724   97462792.8704
     -4294.824       -3340.418
  19677960.75348  19677961.66648  19677965.84045 105263840.2154   81871918.3614
     -1668.603       -1297.803
 04  5  5  0 46  0.0000000  0 10G 4G 5G 7G 9G14G20G24G30R23R24
  22829474.80247  22829473.75442  22829477.72142 119969734.7994   93482905.1914
      1876.025        1461.842
  20473189.51248  20473188.40145  20473192.13945 107587392.2844   83834340.5624
      1224.135         953.864
  22850065.55647  22850064.27642  22850068.96342 120077929.9514   93567235.7464
     -2637.570       -2055.250
  21160600.42648  21160599.17644  21160603.13144 111199742.4484   86649184.8784
     -2522.552       -1965.628
  22642229.61447  22642229.68442  22642232.81142 118985718.1234   92716178.4054
       574.060         447.313
  25007599.47545                                 131415824.2654
      1759.499
  24350975.78046  24350973.13241  24350979.50241 127965222.4034   99713187.6164
      3319.556        2586.639
  22831606.39647  22831606.27342  22831610.00342 119980911.8604   93491642.0074
      3364.856        2621.936
  23383725.98646  23383725.90346  23383730.20742 125438176.1254   97563068.8404
     -4299.940       -3344.395
  19687382.63848  19687383.85048  19687387.67145 105314242.4884   81911120.1104
     -1691.311       -1315.470
 04  5  5  0 46 30.0000000  0 10G 4G 5G 7G 9G14G20G24G30R23R24
  22818810.80547  22818810.88142  22818814.84842 119913702.1274   93439243.3544
      1858.633        1448.284
  20466242.19548  20466241.30245  20466244.68045 107550884.7084   83805893.0914
      1208.876         941.991
  22865147.16047  22865147.08442  22865151.57942 120157190.3184   93628997.0334
     -2647.295       -2062.827
  21175041.91048  21175041.11744  21175044.51344 111275635.5084   86708322.2984
     -2537.804       -1977.509
  22639008.70947  22639008.58342  22639011.82742 118968792.4314   92702989.5904
       553.442         431.224
  24997598.59845                                 131363271.3814
      1743.300
  24332036.89546  24332037.90841  24332044.02941 127865705.8324   99635642.3054
      3313.984        2582.305
  22812414.35747  22812414.13342  22812418.00542 119880053.2164   93413050.8854
      3358.232        2616.782
  23407782.37946  23407781.20846  23407788.66742 125567220.7194   97663436.8024
     -4303.823       -3347.397
  19696925.09048  19696926.58548  19696930.58245 105365289.9974   81950823.7224
     -1712.765       -1332.152
 04  5  5  0 47  0.0000000  0 10G 4G 5G 7G 9G14G20G24G30R23R24
  22808249.28347  22808249.55742  22808253.48342 119858200.6704   93395995.4614
      1841.410        1434.894
  20459383.60248  20459383.19745  20459386.49245 107514844.4944   83777809.8144
      1193.795         930.221
  22880287.80547  22880285.93442  22880291.91642 120236750.9454   93690992.2914
     -2656.741       -2070.187
  21189572.11348  21189571.75444  21189575.70244 111351995.0454   86767823.2194
     -2552.817       -1989.214
  22635907.62947  22635906.23742  22635909.58542 118952493.9644   92690289.5154
       533.081         415.374
  24987695.05645                                 131311218.2664
      1727.015
  24313131.03845  24313133.18941  24313141.20641 127766366.8914   99558235.4214
      3308.576        2578.098
  22793260.86847  22793260.06642  22793264.56942 119779402.5324   93334621.8164
      3351.797        2611.768
  23431862.34746  23431861.50146  23431867.27942 125696389.6424   97763901.4714
     -4307.410       -3350.219
  19706590.79848  19706591.36048  19706595.38745 105416989.4274   81991034.3724
     -1733.840       -1348.545
 04  5  5  0 47 30.0000000  0 10G 4G 5G 7G 9G14G20G24G30R23R24
  22797789.91547  22797790.19042  22797793.06942 119803233.7904   93353164.1254
      1823.094        1420.615
  20452615.29348  20452614.19545  20452617.86745 107479274.0434   83750092.5934
      1177.608         917.612
  22895484.75246  22895482.94242  22895487.74442 120316611.0424   93753220.9294
     -2667.151       -2078.305
  21204191.90548  21204191.21244  21204195.07644 111428820.2234   86827686.9724
     -2568.791       -2001.667
  22632926.22747  22632925.43342  22632927.40942 118936824.4904   92678079.5544
       511.602         398.628
  24977883.83745                                 131259668.3084
      1709.699
  24294265.48246  24294265.07441  24294269.28041 127667209.7424   99480970.1014
      3301.929        2572.902
  22774146.68647  22774147.97742  22774150.80442 119678962.5604   93256356.9244
      3344.238        2605.903
  23455964.25546  23455964.38146  23455968.31642 125825680.6414   97864461.0874
     -4311.970       -3353.756
  19716376.24448  19716377.56848  19716381.54545 105469339.0444   82031750.7314
     -1756.035       -1365.804
 04  5  5  0 48  0.0000000  0 10G 4G 5G 7G 9G14G20G24G30R23R24
  22787432.00547  22787430.78242  22787434.83742 119748800.7574   93310748.8124
      1805.627        1406.970
  20445935.20048  20445934.46645  20445937.88045 107444171.1454   83722739.6834
      1162.420         905.779
  22910737.54547  22910735.85442  22910741.68642 120396765.8294   93815679.1434
     -2676.574       -2085.658
  21218898.82248  21218898.17444  21218901.92544 111506106.3864   86887909.9404
     -2583.723       -2013.303
  22630063.42847  22630063.18142  22630064.45242 118921781.7974   92666358.0214
       491.077         382.636
  24968170.47745                                 131208620.6024
      1693.368
  24275432.27846  24275431.37341  24275433.98941 127568234.8144   99403846.8294
      3296.211        2568.508
  22755073.94947  22755074.50142  22755076.33042 119578732.0804   93178255.3044
      3337.660        2600.756
  23480089.20846  23480089.02146  23480091.22442 125955088.7754   97965111.7514
     -4315.408       -3356.428
  19726283.46848  19726284.50948  19726288.02545 105522333.8124   82072968.8764
     -1776.983       -1382.099
 04  5  5  0 48 30.0000000  0 10G 4G 5G 7G 9G14G20G24G30R23R24
  22777176.12847  22777175.03242  22777180.34842 119694910.5254   93268756.4094
      1787.110        1392.561
  20439345.67548  20439344.70245  20439348.38845 107409543.4054   83695757.0304
      1146.151         893.108
  22926047.60347  22926045.64142  22926051.41042 120477219.9674   93878370.6614
     -2686.945       -2093.725
  21233694.54748  21233694.02144  21233697.68744 111583858.0084   86948495.5974
     -2599.653       -2025.696
  22627321.58047  22627319.98242  22627322.81442 118907372.9374   92655130.3284
       469.534         365.864
  24958555.51045                                 131158083.8324
      1675.808
  24256632.43446  24256632.68941  24256638.61541 127469451.7744   99326873.0334
      3289.346        2563.135
  22736042.26047  22736042.78242  22736046.01642 119478719.2884   93100323.2924
      3329.927        2594.758
  23504234.71246  23504234.63846  23504238.59742 126084617.0134   98065855.8704
     -4319.724       -3359.787
  19736311.14448  19736312.40548  19736316.62445 105575977.3274   82114691.5954
     -1799.122       -1399.308
 04  5  5  0 49  0.0000000  0 10G 4G 5G 7G 9G14G20G24G30R23R24
  22767024.37647  22767022.85042  22767026.59742 119641555.7774   93227181.2994
      1769.853        1379.102
  20432845.41848  20432844.24445  20432847.70545 107375382.3304   83669138.0244
      1131.241         881.481
  22941412.22747  22941411.32542  22941416.28442 120557962.0954   93941286.5924
     -2695.846       -2100.673
  21248577.00348  21248576.01544  21248580.01944 111662063.8744   87009435.2294
     -2614.071       -2036.927
  22624698.90247  22624698.12642  22624701.14142 118893589.2524   92644389.8134
       449.344         350.138
  24949031.74945                                 131108050.7714
      1659.693
  24237869.60346  24237870.67541  24237875.90841 127370853.9484   99250043.6924
      3283.769        2558.715
  22717050.63847  22717049.88042  22717053.62342 119378916.5744   93022554.9834
      3323.564        2589.794
  23528400.46546  23528400.72146  23528404.63742 126214252.7664   98166683.5834
     -4322.677       -3362.080
  19746458.10648  19746459.64948  19746463.13945 105630257.8554   82156909.7654
     -1819.606       -1415.250
 04  5  5  0 49 30.0000000  0 10G 4G 5G 7G 9G14G20G24G30R23R24
  22756971.88147  22756970.85842  22756976.07742 119588734.3094   93186021.7384
      1751.846        1365.052
  20426432.92048  20426431.57845  20426435.10545 107341684.0224   83642879.5994
      1115.585         869.290
  22956829.36847  22956828.98442  22956834.03542 120638985.5344   94004421.6764
     -2705.423       -2108.138
  21263544.04648  21263543.42244  21263546.65544 111740717.1834   87070723.4984
     -2629.177       -2048.701
  22622194.25347  22622193.03342  22622195.16842 118880426.5834   92634133.2394
       428.447         333.860
  24939607.83945                                 131058518.7794
      1642.700
  24219142.52946  24219140.82141  24219145.53941 127272439.3094   99173356.9184
      3277.455        2553.880
  22698099.23647  22698098.43442  22698100.78242 119279320.8154   92944947.9234
      3316.415        2584.202
  23552583.98745  23552583.24645  23552591.54242 126343989.0174   98267589.4054
     -4326.208       -3364.824
  19756722.93848  19756724.40848  19756728.07445 105685168.0444   82199617.6794
     -1840.735       -1431.676
 04  5  5  0 50  0.0000000  0 10G 4G 5G 7G 9G14G20G24G30R23R24
  22747023.14147  22747024.23342  22747026.85542 119536455.5134   93145285.0014
      1733.110        1350.468
  20420109.36448  20420108.78345  20420112.30445 107308456.6534   83616988.1374
      1099.288         856.584
  22972302.59747  22972301.03742  22972307.89242 120720296.0414   94067780.4604
     -2715.529       -2115.969
  21278597.33648  21278596.61744  21278600.24444 111819823.5624   87132364.8134
     -2644.842       -2060.918
  22619807.93747  22619808.36542  22619811.33042 118867893.1674   92624367.0154
       406.849         317.025
  24930277.65045                                 131009497.3404
      1625.097
  24200452.40346  24200451.21341  24200455.54841 127174218.6454   99096821.4324
      3270.265        2548.248
  22679186.47047  22679186.95442  22679189.56442 119179941.2614   92867509.3354
      3308.589        2578.116
  23576789.43546  23576789.64346  23576795.34142 126473830.6644   98368577.2714
     -4330.246       -3367.977
  19767107.20848  19767108.16248  19767111.69645 105740712.0854   82242818.5904
     -1862.431       -1448.558
 04  5  5  0 50 30.0000000  0 10G 4G 5G 7G 9G14G20G24G30R23R24
  22737178.96947  22737178.42742  22737182.55342 119484725.6574   93104976.0444
      1715.633        1336.856
  20413877.30348  20413876.18145  20413879.76545 107275704.9944   83591467.3574
      1084.249         844.862
  22987830.79447  22987829.96642  22987834.22742 120801895.4334   94131364.3894
     -2724.326       -2122.841
  21293737.52348  21293736.47744  21293740.40744 111899385.0254   87194360.7414
     -2659.148       -2072.063
  22617543.31347  22617543.10542  22617546.94142 118855993.0814   92615094.2714
       386.570         301.225
  24921047.40445                                 130960992.7104
      1608.672
  24181798.72646  24181794.55141  24181804.69241 127076198.7854   99020442.4024
      3264.440        2543.704
  22660318.87147  22660318.22942  22660321.04542 119080783.6184   92790243.6454
      3302.035        2573.012
  23601013.11645  23601013.04846  23601018.85042 126603778.1994   98469647.4354
     -4332.798       -3369.934
  19777608.61948  19777610.28748  19777613.77145 105796892.8584   82286514.7314
     -1882.733       -1464.347
 04  5  5  0 51  0.0000000  0 10G 4G 5G 7G 9G14G20G24G30R23R24
  22727440.65447  22727438.98342  22727442.56042 119433538.8824   93065090.2714
      1696.786        1322.189
  20407733.74648  20407733.02945  20407736.55645 107243421.9614   83566311.7444
      1067.932         832.156
  23003412.04747  23003411.55542  23003415.58842 120883773.9104   94195165.7814
     -2734.242       -2130.597
  21308962.20248  21308961.56644  21308965.37144 111979391.6664   87256703.5654
     -2674.640       -2084.137
  22615398.96947  22615397.80242  22615400.89942 118844718.9824   92606309.2564
       364.997         284.424
  24911914.83945                                 130912998.7314
      1590.858
  24163183.30446  24163183.52141  24163188.01241 126978374.7114   98944215.8954
      3257.168        2538.067
  22641490.93547  22641490.36842  22641492.54242 118981841.5584   92713145.9774
      3294.107        2566.860
  23625257.88346  23625255.70346  23625260.93942 126733820.6934   98570791.5124
     -4336.669       -3372.946
  19788227.60548  19788229.52848  19788233.20045 105853698.5784   82330696.9444
     -1904.250       -1481.073
 04  5  5  0 51 30.0000000  0 10G 4G 5G 7G 9G14G20G24G30R23R24
  22717803.02547  22717802.29242  22717805.84942 119382900.6454   93025631.8924
      1678.959        1308.296
  20401680.38248  20401679.76645  20401683.28545 107211611.7594   83541524.5644
      1052.650         820.250
  23019046.56947  23019046.02242  23019050.25142 120965932.9354   94259185.7564
     -2743.063       -2137.455
  21324271.70248  21324271.46944  21324275.26644 112059844.8344   87319394.3294
     -2689.001       -2095.332
  22613372.57347  22613371.76242  22613375.43442 118834074.5734   92598014.9204
       344.513         268.453
  24902880.37045                                 130865521.0244
      1574.210
  24144607.76146  24144609.47741  24144610.94741 126880752.7684   98868146.8884
      3250.849        2533.113
  22622703.39647  22622703.25042  22622706.25542 118883120.2434   92636220.2974
      3287.179        2561.441
  23649516.82946  23649516.19546  23649521.60142 126863959.8694   98672010.7844
     -4339.399       -3375.084
  19798964.90348  19798965.96148  19798969.78045 105911130.0684   82375365.8644
     -1924.591       -1496.904
 04  5  5  0 52  0.0000000  0 10G 4G 5G 7G 9G14G20G24G30R23R24
  22708271.50847  22708270.91942  22708274.96942 119332812.1994   92986601.9644
      1660.099        1293.577
  20395716.95148  20395716.25145  20395719.99645 107180273.8704   83517105.4224
      1036.378         807.575
  23034733.88647  23034731.81242  23034735.99442 121048369.5644   94323422.0534
     -2752.842       -2145.071
  21339666.31148  21339665.79144  21339669.08844 112140741.5624   87382430.7154
     -2704.252       -2107.199
  22611467.41347  22611466.44742  22611469.28542 118824059.5114   92590211.0074
       323.034         251.730
  24893944.62345                                 130818560.4394
      1556.342
  24126069.21146  24126066.30941  24126074.75941 126783335.0964   98792237.0474
      3243.495        2527.375
  22603960.39647  22603960.42242  22603963.11342 118784620.1864   92559467.0214
      3279.329        2555.318
  23673794.68246  23673793.54946  23673799.52042 126994190.9364   98773301.4834
     -4342.916       -3377.802
  19809816.64348  19809818.37248  19809823.00145 105969184.1634   82420519.0364
     -1945.799       -1513.390
 04  5  5  0 52 30.0000000  0 10G 4G 5G 7G 9G14G20G24G30R23R24
  22698846.21747  22698845.97442  22698851.52442 119283280.3264   92948005.6984
      1641.741        1279.280
  20389844.84048  20389843.83145  20389847.74945 107149414.3744   83493059.0604
      1020.680         795.332
  23050473.89847  23050473.13442  23050478.69142 121131086.7604   94387876.9474
     -2761.898       -2152.104
  21355144.67748  21355144.25244  21355148.54844 112222084.5984   87445814.8804
     -2718.823       -2118.569
  22609682.23447  22609682.07942  22609684.08942 118814679.1344   92582901.6494
       302.059         235.376
  24885105.72645                                 130772123.8384
      1539.129
  24107571.83946  24107569.59241  24107578.43541 126686129.4584   98716492.4324
      3236.588        2522.026
  22585259.52547  22585260.17542  22585262.03742 118686348.1654   92482891.4594
      3271.896        2549.514
  23698089.24646  23698088.34545  23698094.15042 127124517.0564   98874666.1204
     -4345.733       -3379.994
  19820786.95048  19820787.98548  19820791.42045 106027863.0304   82466158.1344
     -1966.305       -1529.346
 04  5  5  0 53  0.0000000  0 10G 4G 5G 7G 9G14G20G24G30R23R24
  22689524.02247  22689525.25242  22689528.24442 119234298.0934   92909837.7214
      1623.582        1265.123
  20384062.05448  20384060.95145  20384064.59245 107119024.9394   83469378.9824
      1005.191         783.263
  23066265.68047  23066265.64742  23066270.64842 121214073.3564   94452541.7974
     -2770.683       -2158.988
  21370707.26648  21370706.40044  21370710.44044 112303862.7924   87509538.1284
     -2733.138       -2129.714
  22608015.70047  22608014.91442  22608018.19742 118805924.4234   92576079.8214
       281.464         219.341
  24876369.24145                                 130726204.1354
      1522.092
  24089112.90346  24089110.71441  24089118.29341 126589129.5134   98640908.1204
      3229.887        2516.797
  22566601.46247  22566600.82042  22566603.98542 118588296.6944   92406487.7414
      3264.712        2543.922
  23722400.28446  23722398.53846  23722403.53442 127254925.3124   98976094.6784
     -4348.287       -3382.018
  19831871.10148  19831872.36948  19831875.33945 106087154.8344   82512273.9644
     -1986.583       -1545.120
 04  5  5  0 53 30.0000000  0 10G 4G 5G 7G 9G14G20G24G30R23R24
  22680309.29247  22680309.99342  22680311.55442 119185872.3654   92872103.3794
      1604.688        1250.405
  20378369.25748  20378368.72845  20378372.37945 107089111.2964   83446069.6524
       988.968         770.612
  23082109.92847  23082108.27442  23082113.75942 121297332.5484   94517419.0304
     -2780.049       -2166.253
  21386352.12548  21386351.60544  21386355.25244 112386079.0154   87573602.7014
     -2748.043       -2141.337
  22606469.61547  22606469.23142  22606473.20842 118797800.7404   92569749.7514
       260.062         202.638
  24867730.61045                                 130680808.2894
      1504.182
  24070694.22446  24070695.01341  24070700.21941 126492343.4254   98565490.4064
      3222.370        2510.923
  22547985.42347  22547984.70442  22547988.99042 118490472.2984   92330260.9564
      3256.808        2537.774
  23746726.59146  23746726.26346  23746730.45342 127385417.9734   99077588.9134
     -4351.348       -3384.371
  19843069.79748  19843070.60748  19843074.25845 106147061.3784   82558867.9274
     -2007.335       -1561.259
 04  5  5  0 54  0.0000000  0 10G 4G 5G 7G 9G14G20G24G30R23R24
  22671201.07647  22671200.34542  22671204.72042 119138004.4904   92834803.7534
      1586.605        1236.302
  20372767.75048  20372766.90045  20372770.53045 107059673.4644   83423131.0774
       973.673         758.703
  23098004.59847  23098004.37642  23098008.68042 121380861.5994   94582506.5754
     -2788.468       -2172.854
  21402080.44148  21402079.70544  21402083.89544 112468730.7924   87638006.6604
     -2761.930       -2152.149
  22605043.87047  22605042.78542  22605047.13142 118790307.6924   92563911.0194
       239.554         186.690
  24859192.29145                                 130635936.8594
      1487.306
  24052318.66446  24052318.64641  24052324.30941 126395773.3144   98490241.0064
      3215.725        2505.745
  22529414.01047  22529413.70942  22529415.52142 118392876.0294   92254211.9244
      3249.743        2532.281
  23771065.67046  23771066.55946  23771071.35842 127515991.9904   99179146.3804
     -4353.471       -3386.046
  19854382.85148  19854384.00948  19854387.61245 106207579.7574   82605937.7654
     -2027.072       -1576.611
 04  5  5  0 54 30.0000000  0 10G 4G 5G 7G 9G14G20G24G30R23R24
  22662197.90047  22662198.68542  22662200.92842 119090696.1964   92797940.1394
      1567.224        1221.203
  20367256.68948  20367255.58445  20367258.97845 107030711.9034   83400563.6344
       957.068         745.766
  23113951.23247  23113949.38942  23113954.33342 121464658.2854   94647802.6634
     -2798.036       -2180.269
  21417891.21248  21417890.50144  21417894.40344 112551815.7614   87702748.1854
     -2777.071       -2163.962
  22603738.19147  22603737.30342  22603741.47142 118783445.4554   92558563.8834
       217.818         169.727
  24850753.25145                                 130591591.8254
      1468.969
  24033983.17946  24033980.30341  24033989.37541 126299421.7594   98415161.9264
      3207.705        2499.473
  22510885.92347  22510885.52742  22510887.79442 118295509.3864   92178341.8664
      3241.360        2525.742
  23795421.41246  23795420.81846  23795426.91442 127646644.5164   99280764.8984
     -4356.694       -3388.531
  19865808.73148  19865810.89648  19865815.02645 106268706.8054   82653481.0074
     -2048.061       -1592.931
 04  5  5  0 55  0.0000000  0 10G 4G 5G 7G 9G14G20G24G30R23R24
  22653303.02447  22653303.56142  22653306.65642 119043951.1844   92761515.4554
      1549.161        1207.135
  20361836.66748  20361835.25745  20361839.29545 107002228.7904   83378369.0014
       941.869         733.922
  23129947.31647  23129947.06642  23129951.44942 121548722.5164   94713307.2054
     -2806.165       -2186.598
  21433783.97248  21433783.23244  21433786.95344 112635333.4334   87767826.8754
     -2790.689       -2174.568
  22602553.35147  22602551.88742  22602555.16442 118777216.0054   92553709.8214
       197.512         153.895
  24842416.13645                                 130547776.9874
      1452.062
  24015690.23146  24015688.14341  24015695.62741 126203293.5874   98340256.8164
      3200.942        2494.198
  22492401.18747  22492401.28142  22492403.93242 118198375.6844   92102653.2844
      3234.316        2520.243
  23819792.01845  23819791.42445  23819798.70742 127777374.0804   99382443.3664
     -4358.511       -3389.921
  19877350.87448  19877351.68648  19877355.12845 106330441.1064   82701496.5694
     -2067.527       -1608.073
 04  5  5  0 55 30.0000000  0 10G 4G 5G 7G 9G14G20G24G30R23R24
  22644512.78947  22644512.91042  22644517.70842 118997765.8124   92725526.8434
      1529.851        1192.099
  20356506.10048  20356505.49645  20356508.98545 106974219.3384   83356543.4434
       925.435         721.120
  23145994.83347  23145993.13642  23145998.04542 121633046.5804   94779014.2474
     -2815.467       -2193.888
  21449757.08548  21449757.40044  21449760.92644 112719276.2894   87833236.8664
     -2805.477       -2186.081
  22601486.64547  22601486.43942  22601488.93742 118771613.9874   92549344.6454
       176.001         137.146
  24834177.47045                                 130504488.7584
      1433.841
  23997439.59846  23997439.36541  23997442.43941 126107386.0154   98265523.6854
      3192.879        2487.934
  22473960.27947  22473960.01042  22473963.98142 118101471.1744   92027143.2924
      3226.000        2513.760
  23844175.57446  23844175.49045  23844181.95642 127908172.9144   99484175.7314
     -4361.441       -3392.250
  19889002.81148  19889003.99248  19889008.07845 106392774.8654   82749978.3594
     -2088.081       -1624.061
 04  5  5  0 56  0.0000000  0 10G 4G 5G 7G 9G14G20G24G30R23R24
  22635832.76447  22635833.04342  22635836.45042 118952146.7274   92689979.5114
      1511.234        1177.593
  20351267.41148  20351266.42145  20351270.10245 106946688.7924   83335091.0654
       909.719         708.875
  23162090.79747  23162090.19142  23162094.50642 121717633.1974   94844925.8544
     -2823.847       -2200.403
  21465812.40448  21465812.04344  21465815.77244 112803646.7034   87898980.0184
     -2819.412       -2196.940
  22600540.96647  22600539.73642  22600543.44442 118766643.8974   92545471.8744
       155.152         120.895
  24826041.37645                                 130461733.5304
      1416.265
  23979232.33346  23979231.52641  23979238.09741 126011706.5764   98190968.3114
      3185.546        2482.211
  22455565.72847  22455564.25342  22455567.34842 118004801.9704   91951816.6644
      3218.409        2507.845
  23868572.66446  23868571.54845  23868577.22942 128039042.4574   99585963.0934
     -4363.452       -3393.823
  19900768.82748  19900769.47048  19900772.70245 106455710.1344   82798927.9954
     -2107.792       -1639.386
 04  5  5  0 56 30.0000000  0 10G 4G 5G 7G 9G14G20G24G30R23R24
  22627259.60747  22627260.51242  22627264.55142 118907097.1014   92654875.9124
      1492.256        1162.835
  20346120.04048  20346119.14145  20346122.98645 106919639.7554   83314013.8924
       893.714         696.401
  23178236.61546  23178235.19342  23178240.32942 121802481.9214   94911041.7344
     -2832.552       -2207.165
  21481949.39448  21481948.75644  21481952.81444 112888444.1174   87965055.9174
     -2833.571       -2207.975
  22599715.26647  22599714.77042  22599717.84842 118762307.6894   92542093.0474
       134.103         104.511
  24818007.27545                                 130419514.0894
      1398.465
  23961068.00346  23961067.50341  23961074.45441 125916259.8584   98116594.2704
      3177.780        2476.204
  22437215.03147  22437215.31142  22437218.08543 117908371.2484   91876675.8554
      3210.488        2501.689
  23892981.56346  23892981.16946  23892986.19842 128169981.2334   99687804.2904
     -4365.635       -3395.491
  19912645.49548  19912646.83748  19912650.79745 106519244.8094   82848343.8394
     -2127.674       -1654.853
 04  5  5  0 57  0.0000000  0 10G 4G 5G 7G 9G14G20G24G30R23R24
  22618796.44247  22618796.86042  22618800.79342 118862618.6174   92620217.3524
      1472.830        1147.648
  20341064.46048  20341063.87445  20341067.27845 106893072.2394   83293311.9264
       877.321         683.624
  23194431.67147  23194431.63242  23194435.40442 121887590.3664   94977359.9424
     -2841.483       -2214.105
  21498166.48148  21498165.70344  21498169.59644 112973666.1164   88031462.6634
     -2848.035       -2219.244
  22599011.15547  22599010.93442  22599013.10842 118758604.9464   92539207.7834
       112.605          87.757
  24810076.19645                                 130377832.1874
      1380.150
  23942950.37646  23942949.95541  23942953.55341 125821048.4354   98042403.5304
      3169.547        2469.781
  22418910.58547  22418910.19242  22418912.93242 117812180.4364   91801721.9794
      3202.135        2495.186
  23917404.85046  23917403.12045  23917407.50342 128300986.8194   99789697.4114
     -4368.143       -3397.459
  19924634.05548  19924635.34748  19924639.02845 106583375.9854   82898223.6284
     -2147.867       -1670.562
 04  5  5  0 57 30.0000000  0 10G 4G 5G 7G 9G14G20G24G30R23R24
  22610441.76047  22610440.89542  22610444.31242 118818710.2504   92586003.0374
      1454.296        1133.228
  20336100.43248  20336099.07345  20336102.98245 106866984.4024   83272983.7314
       861.804         671.542
  23210675.74246  23210674.59042  23210680.48342 121972954.1634   95043877.1444
     -2849.462       -2220.375
  21514463.84348  21514463.40244  21514466.93144 113059307.9344   88098196.5374
     -2861.491       -2229.742
  22598426.77047  22598425.62742  22598428.90442 118755533.1694   92536814.1994
        92.052          71.716
  24802245.73745                                 130336686.9014
      1362.693
  23924877.71646  23924878.50841  23924883.46541 125726072.3724   97968396.2384
      3162.094        2463.944
  22400651.92347  22400651.04342  22400653.39942 117716228.5264   91726954.2714
      3194.593        2489.311
  23941835.31445  23941833.74045  23941841.36842 128432053.8044   99891638.3074
     -4369.671       -3398.576
  19936733.07248  19936734.41948  19936738.45545 106648098.4274   82948563.2874
     -2166.997       -1685.444
 04  5  5  0 58  0.0000000  0 10G 4G 5G 7G 9G14G20G24G30R23R24
  22602193.19647  22602193.31442  22602196.57742 118775369.2404   92552230.8294
      1435.073        1118.235
  20331226.47648  20331225.47445  20331228.76345 106841371.8424   83253025.8934
       845.659         658.954
  23226967.14446  23226966.95642  23226971.31942 122058566.2914   95110587.8574
     -2857.987       -2227.007
  21530838.57848  21530838.68644  21530842.59944 113145362.4434   88165251.9694
     -2875.489       -2240.637
  22597961.47247  22597960.80642  22597963.80242 118753087.7294   92534908.6924
        70.933          55.249
  24794518.71345                                 130296075.1774
      1344.642
  23906849.37346  23906848.16641  23906857.27941 125631329.8424   97894570.9314
      3153.996        2457.657
  22382437.27847  22382437.43942  22382440.42542 117620512.3094   91652370.2224
      3186.440        2482.931
  23966277.10746  23966279.09746  23966284.82842 128563173.8064   99993620.4804
     -4371.696       -3400.217
  19948941.03248  19948942.35848  19948946.63845 106713403.8634   82999356.3864
     -2186.633       -1700.707
 04  5  5  0 58 30.0000000  0 10G 4G 5G 7G 9G14G20G24G30R23R24
  22594055.50547  22594056.08742  22594060.03142 118732605.5574   92518908.4524
      1415.730        1103.178
  20326444.68648  20326443.65545  20326447.25745 106816243.4044   83233445.2934
       829.482         646.354
  23243307.55747  23243306.97942  23243310.94642 122144433.1654   95177497.0744
     -2866.524       -2233.641
  21547294.76148  21547293.84744  21547298.12844 113231835.9494   88232633.8974
     -2889.466       -2251.523
  22597617.01847  22597615.72942  22597619.24142 118751276.8194   92533497.6314
        49.755          38.778
  24786895.65245                                 130256006.9604
      1326.455
  23888866.24746  23888865.50241  23888872.76641 125536831.9334   97820936.2094
      3145.801        2451.267
  22364269.68347  22364269.70342  22364271.36743 117525041.8364   91577977.6234
      3178.186        2476.520
  23990733.00746  23990732.97945  23990737.48542 128694353.6534  100095649.1644
     -4373.728       -3401.776
  19961259.90748  19961260.89548  19961264.92245 106779297.6304   83050607.0754
     -2206.278       -1715.996
 04  5  5  0 59  0.0000000  0 10G 4G 5G 7G 9G14G20G24G30R23R24
  22586025.83447  22586026.90542  22586030.98642 118690413.7884   92486031.7694
      1397.325        1088.812
  20321753.71148  20321752.69845  20321756.40445 106791592.8534   83214237.0754
       814.176         634.427
  23259694.18946  23259692.78841  23259699.51142 122230545.6054   95244597.6534
     -2874.060       -2239.518
  21563827.80148  21563827.46944  21563831.21144 113318719.1894   88300335.1164
     -2902.443       -2261.650
  22597391.15547  22597390.84442  22597394.23042 118750093.4194   92532575.4904
        29.452          22.962
  24779371.42145                                 130216476.8154
      1309.150
  23870929.54346  23870931.53341  23870935.03141 125442574.3904   97747488.8024
      3138.344        2445.421
  22346148.71447  22346147.31343  22346152.17443 117429811.5844   91503772.2634
      3170.779        2470.746
  24015194.82445  24015194.02445  24015200.85642 128825583.0164  100197716.4484
     -4374.607       -3402.437
  19973685.75348  19973687.35548  19973690.61645 106845770.7344   83102308.3634
     -2224.925       -1730.497
 04  5  5  0 59 30.0000000  0 10G 4G 5G 7G 9G14G20G24G30R23R24
  22578107.21047  22578106.43042  22578111.24042 118648795.2384   92453601.7314
      1377.818        1073.625
  20317153.90048  20317152.75545  20317156.73845 106767420.2894   83195401.3264
       797.874         621.707
  23276126.79547  23276126.26142  23276132.34842 122316901.2914   95311887.7224
     -2882.448       -2246.082
  21580438.24848  21580438.05644  21580442.28544 113406009.3174   88368353.3844
     -2916.335       -2272.449
  22597285.58347  22597284.65042  22597288.09742 118749537.1924   92532142.0994
         8.196           6.375
  24771951.37645                                 130177485.7444
      1290.779
  23853041.08846  23853040.46641  23853044.53641 125348559.9104   97674230.7904
      3129.783        2438.714
  22328073.22247  22328073.38343  22328075.93643 117334822.8294   91429755.0624
      3162.324        2464.157
  24039666.67745  24039666.45345  24039672.73442 128956859.0254  100299819.9534
     -4376.526       -3403.929
  19986219.72148  19986221.24848  19986224.98145 106912819.4254   83154457.3304
     -2244.416       -1745.657
 04  5  5  1  0  0.0000000  0 10G 4G 5G 7G 9G14G20G24G30R23R24
  22570298.33147  22570298.60542  22570301.16942 118607759.6184   92421625.9294
      1357.736        1057.977
  20312646.27548  20312645.52245  20312649.11145 106743733.8124   83176944.3174
       781.067         608.634
  23292607.40346  23292605.68241  23292613.31541 122403506.1154   95379371.9494
     -2891.343       -2252.963
  21597127.90648  21597127.65244  21597130.99444 113493712.2504   88436693.3334
     -2930.668       -2283.624
  22597300.34547  22597300.61442  22597301.71842 118749615.8764   92532203.4684
       -13.591         -10.599
  24764636.93145                                 130139043.6964
      1271.860
  23835199.13746  23835197.65341  23835202.61041 125254798.9734   97601170.3654
      3120.727        2431.768
  22310044.59647  22310044.75143  22310047.29743 117240085.1084   91355933.4704
      3153.328        2457.147
  24064151.13845  24064149.61845  24064154.42542 129088186.5694  100401963.5514
     -4378.767       -3405.675
  19998862.46548  19998863.56448  19998867.64045 106980447.9604   83207057.2814
     -2264.257       -1761.079
 04  5  5  1  0 30.0000000  0 10G 4G 5G 7G 9G14G20G24G30R23R24
  22562602.15646  22562601.36942  22562604.94942 118567312.2964   92390108.5394
      1338.494        1042.978
  20308232.44048  20308231.51445  20308234.98645 106720538.0204   83158869.6834
       765.101         596.189
  23309135.52946  23309135.22241  23309139.49941 122490361.8634   95447051.6994
     -2899.292       -2259.167
  21613896.44548  21613895.50044  21613899.08744 113581829.2974   88505355.9594
     -2944.013       -2294.044
  22597437.20347  22597436.57942  22597438.50042 118750333.2404   92532762.4674
       -34.475         -26.868
  24757425.81945                                 130101155.8944
      1253.731
  23817406.46746  23817405.41341  23817409.56841 125161298.2804   97528312.6674
      3112.396        2425.236
  22292063.79147  22292064.61842  22292068.85043 117145603.8014   91282311.6714
      3145.173        2450.790
  24088641.87246  24088641.94146  24088646.63142 129219567.9304  100504149.0574
     -4380.194       -3406.813
  20011612.59748  20011614.53048  20011618.89745 107048657.7774   83260109.3464
     -2283.237       -1775.848
 04  5  5  1  1  0.0000000  0 10G 4G 5G 7G 9G14G20G24G30R23R24
  22555017.27047  22555016.48842  22555020.40142 118527453.4984   92359049.7624
      1318.678        1027.543
  20303911.79348  20303910.70545  20303914.52345 106697832.0634   83141176.7234
       748.583         583.307
  23325709.53146  23325710.42641  23325715.63641 122577465.0384   95514924.2824
     -2907.624       -2265.691
  21630742.52848  21630741.74544  21630745.57444 113670356.7184   88574338.3434
     -2957.844       -2304.827
  22597694.90447  22597692.98142  22597697.12942 118751687.4324   92533817.7014
       -55.849         -43.510
  24750320.74945                                 130063822.0984
      1235.080
  23799662.83846  23799660.84141  23799666.69241 125068059.1704   97455658.8594
      3103.446        2418.300
  22274134.70947  22274134.73743  22274137.21243 117051379.0824   91208889.8274
      3136.427        2443.975
  24113143.04346  24113142.19845  24113149.08042 129350997.7664  100606372.2824
     -4381.833       -3408.102
  20024472.74648  20024473.62948  20024477.82145 107117444.6864   83313610.2504
     -2302.518       -1790.845
 04  5  5  1  1 30.0000000  0 10G 4G 5G 7G 9G14G20G24G30R23R24
  22547540.32947  22547540.52542  22547544.80642 118488168.2234   92328437.8694
      1299.722        1012.769
  20299680.86448  20299680.26545  20299683.59945 106675600.0114   83123853.0444
       732.975         571.150
  23342330.12646  23342329.40841  23342333.29542 122664797.1504   95582975.2054
     -2915.066       -2271.479
  21647663.11548  21647662.66044  21647666.32744 113759275.8674   88643625.9694
     -2970.663       -2314.791
  22598070.91447  22598070.18042  22598072.51842 118753661.9534   92535356.3224
       -76.348         -59.491
  24743320.36745                                 130027027.7534
      1217.272
  23781966.16746  23781965.41641  23781971.44241 124975068.1434   97383198.3084
      3095.288        2411.878
  22256250.03947  22256250.54843  22256253.32743 116957396.0074   91135656.2894
      3128.518        2437.823
  24137646.91645  24137646.92445  24137653.72442 129482457.0384  100708618.2944
     -4382.677       -3408.741
  20037434.83248  20037436.86648  20037440.91445 107186788.9164   83367544.6444
     -2320.927       -1805.170
 04  5  5  1  2  0.0000000  0  9G 4G 5G 7G 9G14G20G24G30R24
  22540177.43347  22540177.12842  22540180.00842 118449471.0174   92298284.2024
      1280.429         997.737
  20295542.74548  20295542.24645  20295545.85245 106653855.3104   83106909.1204
       717.041         558.736
  23358995.16246  23358993.09641  23359000.40441 122752369.2374   95651213.1584
     -2922.715       -2277.419
  21664660.15848  21664659.72344  21664663.85444 113848597.7484   88713227.4424
     -2983.727       -2324.967
  22598567.01447  22598566.02342  22598567.71942 118756269.6144   92537388.3014
       -97.103         -75.658
  24736424.22145                                 129990787.0014
      1199.167
  23764321.96246  23764321.18041  23764326.43141 124882341.2974   97310943.6684
      3086.824        2405.312
  22238414.86447  22238414.60243  22238418.15143 116863669.2394   91062622.4554
      3120.288        2431.423
  20050504.49848  20050505.97048  20050510.02645 107256700.8254   83421920.5414
     -2339.465       -1819.576
 04  5  5  1  2 30.0000000  0  9G 4G 5G 7G 9G14G20G24G30R24
  22532925.14147  22532925.17742  22532929.55942 118411361.9404   92268588.8314
      1260.853         982.497
  20291497.87548  20291496.77545  20291500.64645 106632596.7254   83090343.9954
       700.888         546.143
  23375703.70746  23375702.33741  23375706.69041 122840177.6914   95719635.2634
     -2930.514       -2283.485
  21681734.12048  21681733.69244  21681736.91144 113938318.4484   88783139.6744
     -2996.923       -2335.264
  22599182.63747  22599181.69842  22599186.01242 118759508.8414   92539912.3824
      -118.131         -92.055
  24729632.35845                                 129955100.1894
      1180.720
  23746727.09546  23746725.50741  23746730.36341 124789879.6044   97238895.6084
      3078.007        2398.448
  22220627.77747  22220627.85443  22220630.08143 116770198.9444   90989788.4684
      3111.737        2424.724
  20063680.09648  20063680.76248  20063684.69845 107327175.2254   83476733.9484
     -2358.092       -1834.061
 04  5  5  1  3  0.0000000  0  9G 4G 5G 7G 9G14G20G24G30R24
  22525786.53347  22525786.72842  22525790.25642 118373850.6304   92239359.2214
      1240.176         966.386
  20287546.28248  20287545.58945  20287548.85745 106611832.6814   83074164.2064
       683.669         532.732
  23392458.77646  23392457.43741  23392464.74841 122928228.4824   95788246.2444
     -2939.284       -2290.361
  21698883.91048  21698883.53944  21698887.29544 114028443.7194   88853367.1224
     -3011.115       -2346.312
  22599920.99647  22599920.56742  22599922.32442 118763387.0734   92542934.4114
      -140.137        -109.235
  24722949.87445                                 129919976.6154
      1161.229
  23729183.87046  23729183.22541  23729188.60741 124697693.7634   97167062.5924
      3068.005        2390.643
  22202892.38447  22202892.01943  22202894.54543 116676994.8174   90917161.8994
      3102.138        2417.260
  20076960.66548  20076961.52948  20076965.27345 107398217.9464   83531989.3824
     -2377.712       -1849.331
 04  5  5  1  3 30.0000000  0  9G 4G 5G 7G 9G14G20G24G30R24
  22518761.21847  22518760.53842  22518764.53242 118336928.2304   92210588.5664
      1220.875         951.314
  20283687.87848  20283686.67945  20283690.27245 106591553.5584   83058362.2904
       667.863         520.423
  23409258.08446  23409256.84841  23409262.05441 123016509.3134   95857036.4424
     -2946.496       -2295.968
  21716108.72848  21716108.13244  21716112.26944 114118960.9574   88923899.9914
     -3023.761       -2356.153
  22600778.42147  22600777.96542  22600779.88742 118767893.8724   92546446.1864
      -160.710        -125.211
  24716370.90845                                 129885407.0654
      1143.127
  23711691.91346  23711691.71141  23711693.99441 124605776.3004   97095438.5614
      3059.345        2383.874
  22185204.26747  22185204.99943  22185208.04743 116584047.9134   90844735.7584
      3093.893        2410.819
  20090344.76648  20090345.85748  20090349.83145 107469814.9824   83587675.9364
     -2395.764       -1863.370
 04  5  5  1  4  0.0000000  0  9G 4G 5G 7G 9G14G20G24G30R24
  22511847.54147  22511846.96242  22511850.22542 118300597.8824   92182279.2044
      1201.553         936.274
  20279921.17448  20279920.17245  20279923.95645 106571761.7234   83042940.0784
       652.017         508.070
  23426102.53146  23426102.64341  23426105.36841 123105019.9934   95926005.7474
     -2953.743       -2301.646
  21733408.09948  21733407.43444  21733411.37244 114209869.5004   88994737.8114
     -3036.365       -2365.998
  22601755.91347  22601755.49042  22601758.18942 118773030.5344   92550448.7954
      -181.325        -141.307
  24709897.66545                                 129851394.7154
      1124.856
  23694253.29946  23694254.94241  23694255.55441 124514131.5174   97024027.0794
      3050.618        2377.079
  22167566.67647  22167566.58643  22167568.89343 116491361.8304   90772512.8604
      3085.588        2404.356
  20103832.59848  20103833.75148  20103837.11845 107541964.5204   83643792.2154
     -2413.725       -1877.340
 04  5  5  1  4 30.0000000  0  9G 4G 5G 7G 9G14G20G24G30R24
  22505048.83447  22505048.36043  22505051.38243 118264866.9524   92154436.9274
      1180.569         919.896
  20276248.97248  20276248.07945  20276251.18545 106552463.1004   83027902.1894
       634.603         494.481
  23442990.00846  23442988.59841  23442993.94241 123193764.0644   95995156.9404
     -2962.504       -2308.430
  21750782.78248  21750782.42744  21750786.44444 114301172.7634   89065883.1854
     -3050.454       -2376.982
  22602853.63447  22602853.48542  22602855.84942 118778802.6814   92554946.5824
      -203.451        -158.536
  24703532.40945                                 129817947.0144
      1105.027
  23676865.77646  23676865.95641  23676872.03041 124422768.1844   96952834.8854
      3040.250        2369.046
  22149980.87147  22149980.28843  22149982.88043 116398943.7664   90700498.8024
      3075.641        2396.607
  20117423.36648  20117424.96448  20117428.79945 107614670.7244   83700341.4644
     -2433.290       -1892.561
 04  5  5  1  5  0.0000000  0  9G 4G 5G 7G 9G14G20G24G30R24
  22498363.66747  22498362.82742  22498366.56942 118229738.6264   92127064.2134
      1161.075         904.731
  20272670.94348  20272669.89545  20272673.39745 106533659.8104   83013250.2594
       618.692         482.091
  23459921.16546  23459920.20641  23459925.09841 123282741.7524   96064490.1494
     -2969.616       -2313.975
  21768232.03748  21768231.37944  21768235.52944 114392870.3284   89137335.8184
     -3062.959       -2386.741
  22604073.99547  22604073.74542  22604075.63242 118785211.7864   92559940.7184
      -224.066        -174.610
  24697274.71345                                 129785067.4594
      1086.713
  23659536.67446  23659534.99041  23659541.13041 124331691.2954   96881865.9304
      3031.251        2361.983
  22132445.99147  22132446.11543  22132448.75643 116306797.3574   90628696.4154
      3067.200        2390.014
  20131118.79848  20131120.78148  20131124.75345 107687931.4854   83757322.0364
     -2451.047       -1906.374
 04  5  5  1  5 30.0000000  0  9G 4G 5G 7G 9G14G20G24G30R24
  22491791.54047  22491791.28443  22491795.22343 118195201.5574   92100152.2164
      1140.735         888.893
  20269184.44448  20269183.55145  20269187.52845 106515339.6084   82998974.7794
       602.007         469.082
  23476894.81246  23476893.61241  23476899.19741 123371937.7954   96133993.5144
     -2977.440       -2320.121
  21785753.40348  21785753.13144  21785757.19644 114484946.8404   89209083.7154
     -3076.122       -2396.966
  22605412.33047  22605412.20742  22605413.92342 118792244.3534   92565420.6394
      -245.425        -191.259
  24691124.99445                                 129752744.1534
      1067.587
  23642255.66546  23642256.41241  23642263.52941 124240890.3804   96811111.9594
      3021.513        2354.440
  22114960.18247  22114960.09243  22114962.82043 116214911.1904   90557096.8294
      3057.896        2382.768
  20144915.45548  20144916.64048  20144920.39345 107761731.3864   83814721.9354
     -2469.552       -1920.758
 04  5  5  1  6  0.0000000  0  9G 4G 5G 7G 9G14G20G24G30R24
  22485334.57747  22485334.49543  22485337.10343 118161269.6524   92073711.7724
      1121.209         873.677
  20265792.90348  20265791.68145  20265795.46145 106497515.7244   82985086.0304
       586.085         456.688
  23493910.52846  23493910.29341  23493916.77441 123461363.0314   96203675.4264
     -2984.383       -2325.480
  21803349.76148  21803349.42344  21803352.72044 114577412.9504   89281135.2034
     -3088.435       -2406.566
  22606871.48847  22606871.51942  22606874.37942 118799913.2024   92571396.3994
      -265.991        -207.282
  24685084.21046                                 129720990.8494
      1049.159
  23625033.50046  23625032.19741  23625037.58641 124150380.9034   96740585.1134
      3012.358        2347.304
  22097526.86947  22097526.37043  22097528.95743 116123299.4974   90485711.0994
      3049.377        2376.132
  20158814.04048  20158815.24348  20158819.29045 107836079.4204   83872548.1674
     -2487.155       -1934.456
 04  5  5  1  6 30.0000000  0  9G 4G 5G 7G 9G14G20G24G30R24
  22478992.41047  22478991.09942  22478996.24842 118127940.7574   92047741.2184
      1100.494         857.524
  20262494.35348  20262493.79245  20262497.53645 106480184.7864   82971581.3974
       569.075         443.433
  23510971.16746  23510969.43141  23510976.06641 123551011.7804   96273531.5534
     -2992.415       -2331.750
  21821018.61448  21821018.05644  21821021.48744 114670262.6134   89353485.5594
     -3101.771       -2416.966
  22608451.65947  22608449.88342  22608452.81342 118808214.1354   92577864.6574
      -287.638        -224.127
  24679150.69845                                 129689805.7264
      1029.592
  23607866.13646  23607861.98541  23607868.46241 124060162.2144   96670284.8364
      3001.998        2339.227
  22080145.97047  22080146.13643  22080149.12143 116031960.5834   90414537.9154
      3039.656        2368.551
  20172813.66248  20172815.09148  20172819.53345 107910969.1114   83930795.6854
     -2505.717       -1948.893
 04  5  5  1  7  0.0000000  0  9G 4G 5G 7G 9G14G20G24G30R24
  22472765.49547  22472764.37642  22472767.94142 118095217.7724   92022242.7854
      1081.116         842.447
  20259290.48548  20259290.11745  20259293.77645 106463348.7564   82958462.4134
       553.387         431.211
  23528073.00246  23528071.90741  23528077.41641 123640883.8914   96343561.7154
     -2999.006       -2336.917
  21838760.07748  21838759.13744  21838763.28644 114763495.1374   89426134.2564
     -3113.667       -2426.249
  22610150.86947  22610149.46742  22610153.09142 118817148.1474   92584826.2724
      -307.910        -239.934
  24673323.19245                                 129659191.6764
      1011.389
  23590753.06246  23590753.24241  23590757.52241 123970238.7404   96600214.6324
      2992.896        2332.117
  22062816.36847  22062817.24643  22062820.25843 115940897.5424   90343579.7364
      3031.269        2362.005
  20186913.69148  20186915.47348  20186919.12745 107986399.0454   83989463.3924
     -2522.855       -1962.221
 04  5  5  1  7 30.0000000  0  9G 4G 5G 7G 9G14G20G24G30R24
  22466652.93547  22466652.78643  22466656.95243 118063098.8704   91997215.0894
      1060.329         826.223
  20256180.91448  20256179.86345  20256183.47345 106447004.7164   82945726.8034
       536.399         417.981
  23545216.74446  23545215.65341  23545221.79041 123730974.0054   96413761.7724
     -3006.790       -2342.948
  21856573.50648  21856572.25844  21856576.53744 114857104.9234   89499076.9064
     -3126.788       -2436.461
  22611971.20047  22611970.93442  22611971.36342 118826711.2854   92592278.0774
      -329.469        -256.741
  24667607.44045                                 129629146.4954
       991.819
  23573696.60446  23573697.21141  23573701.60441 123880609.9874   96530374.0444
      2982.486        2324.006
  22045540.93147  22045539.93243  22045543.84843 115850108.6914   90272835.1724
      3021.479        2354.394
  20201115.34048  20201116.38848  20201120.73845 108062362.5474   84048546.0954
     -2541.193       -1976.481
 04  5  5  1  8  0.0000000  0  9G 4G 5G 7G 9G14G20G24G30R24
  22460655.18347  22460655.63343  22460658.98643 118031581.8834   91972656.3994
      1040.842         811.060
  20253163.69848  20253162.80145  20253166.57145 106431149.7934   82933372.3174
       520.656         405.704
  23562401.74546  23562400.14041  23562405.13241 123821276.7264   96484127.4834
     -3013.327       -2348.090
  21874457.28848  21874456.56644  21874460.56744 114951086.2834   89572309.0744
     -3138.565       -2445.640
  22613909.60047  22613908.72442  22613911.86642 118836900.0314   92600217.3994
      -349.756        -272.540
  24661997.31245                                 129599667.8084
       973.506
  23556697.92046  23556698.93041  23556703.26941 123791275.2754   96460762.6134
      2973.238        2316.826
  22028316.39247  22028316.17543  22028318.86243 115759592.4284   90202303.0314
      3012.947        2347.762
  20215414.01348  20215415.46848  20215419.57845 108138852.9614   84108038.6234
     -2558.087       -1989.620
 04  5  5  1  8 30.0000000  0  9G 4G 5G 7G 9G14G20G24G30R24
  22454774.10147  22454773.50243  22454777.02443 118000673.9024   91948572.2614
      1019.591         794.463
  20250241.31948  20250240.09445  20250243.76445 106415790.3444   82921403.9114
       503.207         392.099
  23579625.83546  23579624.28341  23579631.28241 123911795.8704   96554661.8144
     -3021.345       -2354.320
  21892412.40748  21892412.26744  21892416.19844 115045442.9934   89645833.7654
     -3151.963       -2456.085
  22615969.30147  22615968.25942  22615970.76542 118847719.5204   92608648.1894
      -371.665        -289.607
  24656496.86245                                 129570763.2474
       953.416
  23539755.81846  23539755.42641  23539759.49341 123702243.2724   96391387.0604
      2962.158        2308.200
  22011144.05747  22011143.91643  22011147.68543 115669356.1664   90131989.0804
      3002.663        2339.725
  20229812.25348  20229814.06948  20229817.85945 108215873.6954   84167943.6264
     -2576.729       -2004.126
 04  5  5  1  9  0.0000000  0 10G 4G 5G 6G 7G 9G14G20G24G30R24
  22449009.44947  22449009.88043  22449013.48543 117970381.4304   91924967.7494
       999.961         779.171
  20247413.42148  20247412.68145  20247415.88345 106400931.6704   82909825.7194
       487.422         379.808
  25308507.16645                                 132997097.5154
      3696.985
  23596894.38246  23596893.12641  23596899.00241 124002534.6294   96625367.3074
     -3027.743       -2359.284
  21910440.42848  21910440.01644  21910443.43544 115140177.4874   89719652.7964
     -3163.594       -2465.137
  22618148.02347  22618148.35142  22618151.01042 118859174.3434   92617574.0324
      -391.918        -305.376
  24651105.93345                                 129542438.7044
       934.977
  23522872.95646  23522872.16941  23522879.07641 123613521.7904   96322253.4874
      2952.667        2300.744
  21994027.50247  21994027.32643  21994030.16643 115579406.6104   90061898.5204
      2993.997        2332.981
  20244310.36348  20244311.71848  20244315.40245 108293426.6994   84228262.6124
     -2593.478       -2017.145
 04  5  5  1  9 30.0000000  0 10G 4G 5G 6G 7G 9G14G20G24G30R24
  22443360.50447  22443360.38243  22443363.52943 117940697.2494   91901837.2034
       979.273         763.085
  20244679.91148  20244678.74845  20244682.26745 106386565.7564   82898631.4994
       470.615         366.703
  25287406.40545                                 132886221.5064
      3695.056
  23614200.72046  23614199.94241  23614206.17541 124093482.5194   96696235.7464
     -3035.088       -2365.002
  21928537.31248  21928536.86443  21928540.97144 115235279.1574   89793757.9504
     -3176.185       -2474.954
  22620447.36947  22620447.33442  22620448.74842 118871255.5624   92626988.0034
      -413.166        -321.965
  24645824.82045  24645823.64841  24645830.19041 129514687.1984  100920550.2924
       915.460         713.339
  23506047.99347  23506046.17541  23506051.09941 123525105.0124   96253357.3044
      2942.082        2292.504
  21976964.22748  21976964.64343  21976966.37343 115489737.0004   89992026.1234
      2984.243        2325.383
  20258905.74848  20258906.92648  20258910.57445 108371500.3414   84288986.5264
     -2611.156       -2030.898
 04  5  5  1 10  0.0000000  0 10G 4G 5G 6G 7G 9G14G20G24G30R24
  22437827.76047  22437827.25243  22437832.11443 117911624.4204   91879183.0704
       958.457         746.852
  20242040.05848  20242039.12945  20242043.06445 106372694.5764   82887822.7804
       453.670         353.516
  25266318.13945                                 132775390.4874
      3693.125
  23631547.03446  23631545.31841  23631552.51941 124184639.7384   96767267.2764
     -3042.487       -2370.758
  21946704.76148  21946704.14143  21946707.96544 115330747.6254   89868148.9334
     -3188.820       -2484.797
  22622865.99747  22622865.09642  22622867.47342 118883964.4744   92636891.0794
      -434.538        -338.575
  24640654.74345  24640655.29141  24640656.89541 129487511.8534  100899374.6974
       895.757         698.025
  23489281.16046  23489279.77841  23489286.27541 123436997.9604   96184702.4734
      2931.247        2284.111
  21959954.59147  21959954.28643  21959958.20943 115400350.9934   89922374.6974
      2974.348        2317.662
  20273597.68848  20273598.78048  20273602.80345 108450093.2204   84350114.2864
     -2628.826       -2044.637
 04  5  5  1 10 30.0000000  0 10G 4G 5G 6G 7G 9G14G20G24G30R24
  22432412.36547  22432411.63743  22432415.38543 117883161.9224   91857004.5104
       938.913         731.601
  20239494.26748  20239493.44845  20239497.00545 106359316.5444   82877398.3324
       438.084         341.363
  25245234.25245                                 132664603.7044
      3692.512
  23648932.50246  23648932.65941  23648936.11041 124276002.1424   96838458.6924
     -3048.482       -2375.422
  21964940.44048  21964939.76043  21964943.89643 115426578.2794   89942822.1594
     -3199.990       -2493.503
  22625403.39947  22625402.06542  22625404.72142 118897298.4894   92647281.2474
      -454.510        -354.152
  24635591.54545  24635589.13941  24635597.33041 129460911.6274  100878647.2764
       877.482         683.750
  23472574.52447  23472573.29741  23472580.05941 123349201.2294   96116289.4714
      2921.768        2276.689
  21942999.11647  21942998.55043  21943001.41943 115311248.0804   89852943.8724
      2965.756        2310.973
  20288385.82448  20288386.96148  20288391.18645 108529200.0324   84411641.7904
     -2645.054       -2057.265
 04  5  5  1 11  0.0000000  0 10G 4G 5G 6G 7G 9G14G20G24G30R24
  22427110.25147  22427109.69743  22427115.44043 117855302.4434   91835295.8124
       918.374         715.614
  20237040.76648  20237040.02445  20237043.55545 106346423.3774   82867351.7064
       421.460         328.400
  25224158.54145                                 132553853.9934
      3690.906
  23666356.19046  23666352.73341  23666360.72041 124367558.8454   96909801.5094
     -3055.333       -2380.761
  21983243.58147  21983242.66043  21983247.21443 115522760.1024   90017769.0014
     -3212.104       -2502.949
  22628057.52547  22628057.62042  22628059.82742 118911248.1144   92658151.1064
      -475.464        -370.519
  24630639.87745  24630639.48241  24630640.89241 129434878.9294  100858362.1934
       858.071         668.624
  23455924.73446  23455924.40441  23455929.28341 123261708.8544   96048113.5814
      2911.095        2268.399
  21926095.36247  21926095.45943  21926098.42243 115222421.1764   89783728.1164
      2956.083        2303.419
  20303267.09848  20303268.36248  20303273.16645 108608809.2494   84473560.0534
     -2662.247       -2070.641
 04  5  5  1 11 30.0000000  0 10G 4G 5G 6G 7G 9G14G20G24G30R24
  22421924.26147  22421924.71243  22421927.81843 117828048.2674   91814058.8054
       898.566         700.184
  20234679.97748  20234679.16645  20234682.79445 106334016.5724   82857684.0694
       405.629         316.068
  25203092.50845                                 132443144.4704
      3689.769
  23683815.21946  23683815.26141  23683823.00741 124459309.2904   96981295.3344
     -3061.414       -2385.518
  22001613.15348  22001612.50643  22001616.08444 115619291.7004   90092988.3984
     -3223.349       -2511.701
  22630829.85547  22630829.35942  22630831.94942 118925813.7504   92669500.9664
      -495.608        -386.176
  24625793.25545  24625792.73041  24625796.54841 129409415.9004  100838520.9584
       839.466         654.199
  23439334.80847  23439333.87241  23439339.08441 123174524.6324   95980177.8594
      2901.146        2260.607
  21909245.93148  21909245.19643  21909248.63643 115133873.0134   89714729.5474
      2947.104        2296.444
  20318243.73748  20318245.04748  20318248.45645 108688919.4624   84535867.9824
     -2678.394       -2083.208
 04  5  5  1 12  0.0000000  0 10G 4G 5G 6G 7G 9G14G20G24G30R24
  22416854.90547  22416855.20643  22416858.78543 117801410.8354   91793302.3644
       877.346         683.629
  20232413.43048  20232412.71245  20232416.28345 106322107.1384   82848403.9894
       388.395         302.642
  25182033.15945                                 132332487.0664
      3687.376
  23701314.23546  23701314.79741  23701315.86641 124551261.9054   97052946.6634
     -3068.710       -2391.186
  22020050.79148  22020049.85743  22020053.45843 115716181.4374   90168486.8634
     -3235.885       -2521.477
  22633720.53347  22633720.37742  22633722.51142 118941005.4154   92681338.6574
      -517.118        -402.938
  24621058.44146  24621055.95641  24621063.54941 129384534.1444  100819132.5734
       819.375         638.403
  23422804.27146  23422805.49141  23422808.90341 123087661.8934   95912492.6254
      2889.731        2251.728
  21892449.71647  21892449.94843  21892454.03643 115045615.8464   89645957.7404
      2936.741        2288.377
  20333314.21848  20333315.35948  20333319.78945 108769537.1744   84598570.6214
     -2695.967       -2096.862
 04  5  5  1 12 30.0000000  0 10G 4G 5G 6G 7G 9G14G20G24G30R24
  22411903.77047  22411903.46543  22411907.24343 117775388.8144   91773025.4594
       857.468         668.168
  20230241.76548  20230240.32945  20230244.23545 106310692.6204   82839509.5544
       372.581         290.328
  25160987.27945                                 132221880.8734
      3686.296
  23718849.54646  23718847.04741  23718853.06441 124643412.2414   97124752.0594
     -3074.619       -2395.771
  22038554.51947  22038554.03843  22038558.60843 115813424.2144   90244260.4004
     -3246.940       -2530.081
  22636729.69847  22636729.60342  22636731.35842 118956819.7784   92693661.5604
      -537.175        -418.548
  24616433.12245  24616435.58741  24616438.73341 129360231.8504  100800195.6854
       800.746         623.988
  23406335.48346  23406334.68641  23406339.41141 123001120.7954   95845058.0374
      2879.625        2243.820
  21875710.98247  21875710.65543  21875713.40743 114957648.6634   89577411.8874
      2927.717        2281.353
  20348478.75748  20348479.99848  20348483.61545 108850657.0024   84661663.8014
     -2711.986       -2109.310
 04  5  5  1 13  0.0000000  0 10G 4G 5G 6G 7G 9G14G20G24G30R24
  22407068.51947  22407068.45443  22407071.42443 117749981.0704   91753227.2064
       836.514         651.842
  20228163.50648  20228162.57145  20228166.07045 106299771.1424   82830999.3194
       355.684         277.153
  25139950.70645                                 132111325.3504
      3684.130
  23736422.34146  23736421.72041  23736423.97441 124735756.1484   97196708.3324
     -3081.505       -2401.226
  22057126.65848  22057126.03243  22057129.19443 115911015.7454   90320305.7044
     -3258.998       -2539.475
  22639857.31447  22639857.12542  22639858.93342 118973253.9214   92706467.3984
      -558.301        -435.044
  24611919.94945  24611919.97041  24611922.31741 129336508.4234  100781709.8434
       781.011         608.620
  23389928.86046  23389929.20941  23389935.14241 122914901.8744   95777874.4564
      2868.427        2235.107
  21859026.44248  21859026.42043  21859028.99943 114869971.0974   89509091.7104
      2917.608        2273.463
  20363735.99248  20363737.36048  20363741.69445 108932273.1954   84725143.0594
     -2728.875       -2122.461
 04  5  5  1 13 30.0000000  0 10G 4G 5G 6G 7G 9G14G20G24G30R24
  22402351.74347  22402351.57743  22402354.90743 117725192.6654   91733911.5704
       816.108         635.933
  20226179.85248  20226178.59645  20226182.15945 106289346.4374   82822876.1774
       339.369         264.439
  25118921.04945                                 132000826.3174
      3682.487
  23754030.20946  23754029.69541  23754035.09841 124828295.7344   97268817.0324
     -3087.740       -2406.061
  22075763.81448  22075763.03643  22075767.11543 116008957.7154   90396624.1174
     -3270.369       -2548.351
  22643102.63347  22643100.92342  22643104.86242 118990311.1144   92719758.7594
      -578.788        -451.025
  24607513.85345  24607509.85541  24607519.84341 129313368.6714  100763678.8244
       761.811         593.617
  23373585.67247  23373583.93841  23373589.51442 122829011.5124   95710946.9384
      2857.658        2226.767
  21842398.44947  21842397.69243  21842400.58943 114782588.7094   89441001.5524
      2907.968        2265.948
  20379085.83348  20379087.73648  20379091.11845 109014387.5714   84789009.7764
     -2745.200       -2135.158
 04  5  5  1 14  0.0000000  0 10G 4G 5G 6G 7G 9G14G20G24G30R24
  22397752.78947  22397752.97443  22397756.59343 117701026.1874   91715080.5354
       795.025         619.510
  20224290.82148  20224289.87545  20224293.58945 106279420.7594   82815141.8754
       322.398         251.226
  25097905.73045                                 131890386.5524
      3680.170
  23771678.40046  23771676.79941  23771681.47841 124921030.6224   97341077.9024
     -3094.531       -2411.331
  22094468.37147  22094467.42143  22094471.55343 116107249.1674   90473214.8384
     -3282.322       -2557.661
  22646468.04847  22646467.03642  22646470.53242 119007991.8964   92733535.9574
      -599.882        -467.443
  24603225.10745  24603219.26141  24603230.51541 129290815.3854  100746104.9244
       741.861         578.104
  23357304.82046  23357303.99842  23357308.48942 122743454.4334   95644279.0994
      2846.164        2217.781
  21825825.98247  21825826.17743  21825829.93743 114695504.7574   89373143.9374
      2897.666        2257.914
  20394530.18348  20394531.34348  20394534.75945 109096997.7334   84853262.0984
     -2762.090       -2148.296
 04  5  5  1 14 30.0000000  0 10G 4G 5G 6G 7G 9G14G20G24G30R24
  22393273.50147  22393273.25343  22393277.13843 117677488.5654   91696739.5254
       774.679         603.634
  20222498.10048  20222497.29245  20222501.10645 106270000.3634   82807801.3004
       306.159         238.568
  25076902.62645                                 131780013.9914
      3678.542
  23789363.20746  23789360.04241  23789367.62341 125013964.8604   97413494.1764
     -3100.551       -2415.983
  22113239.31247  22113239.16743  22113243.09243 116205893.3964   90550080.4324
     -3293.414       -2566.304
  22649951.36847  22649950.72042  22649953.27442 119026301.5814   92747803.2274
      -620.212        -483.258
  24599045.58546  24599044.13041  24599045.76841 129268855.2164  100728993.0874
       722.629         563.119
  23341088.03746  23341088.77041  23341091.86041 122658239.3294   95577877.7384
      2835.382        2209.393
  21809313.30848  21809313.26943  21809316.35443 114608726.9324   89305524.8714
      2888.060        2250.424
  20410066.56648  20410067.45348  20410070.94445 109180107.6724   84917903.1314
     -2777.966       -2160.635
 04  5  5  1 15  0.0000000  0 10G 4G 5G 6G 7G 9G14G20G24G30R24
  22388912.45247  22388911.62943  22388915.86843 117654568.9124   91678880.0594
       753.206         586.920
  20220799.41648  20220798.54045  20220802.34845 106261073.9754   82800845.6734
       288.833         225.060
  25055908.83745                                 131669698.3474
      3675.685
  23807082.21946  23807083.40841  23807087.03041 125107084.7344   97486055.0634
     -3107.554       -2421.485
  22132075.89547  22132074.70143  22132078.86143 116304876.6624   90627210.1924
     -3305.542       -2575.753
  22653552.00147  22653552.44142  22653554.64142 119045227.5574   92762550.7724
      -641.583        -499.946
  24594976.28745  24594978.14141  24594978.25341 129247477.1814  100712334.7954
       702.359         547.353
  23324935.79646  23324934.38242  23324939.80342 122573357.4114   95511736.0144
      2823.295        2199.973
  21792856.46047  21792856.05243  21792858.66343 114522244.9214   89238136.2974
      2877.306        2242.051
  20425692.75448  20425694.37048  20425698.60445 109263700.2944   84982919.5974
     -2795.009       -2173.896
 04  5  5  1 15 30.0000000  0 10G 4G 5G 6G 7G 9G14G20G24G30R24
  22384669.62647  22384669.01043  22384673.15043 117632274.2884   91661507.6204
       733.132         571.279
  20219195.72048  20219194.96945  20219198.65245 106252647.1934   82794279.3514
       272.965         212.705
  25034928.04945                                 131559447.2234
      3674.411
  23824839.79846  23824838.44541  23824844.65141 125200394.0584   97558763.5454
     -3113.081       -2425.770
  22150976.21747  22150976.18243  22150979.61543 116404202.0334   90704606.5324
     -3316.127       -2583.995
  22657273.06047  22657271.84742  22657274.33642 119064774.8324   92777782.4174
      -661.493        -515.424
  24591019.92745  24591022.51241  24591029.28841 129226688.3484  100696135.9004
       683.457         532.550
  23308848.65747  23308846.91842  23308851.97942 122488816.8354   95445860.2834
      2812.694        2191.696
  21776457.13448  21776456.32043  21776459.36543 114436066.2854   89170984.1044
      2867.972        2234.799
  20441410.52848  20441412.13448  20441415.72845 109347780.3274   85048315.1474
     -2810.323       -2185.815
 04  5  5  1 16  0.0000000  0 10G 4G 5G 6G 7G 9G14G20G24G30R24
  22380546.29547  22380545.41243  22380548.41443 117610602.3084   91644620.3604
       711.967         554.770
  20217686.93548  20217685.95245  20217689.62445 106244717.3974   82788100.2864
       255.981         199.461
  25013959.92045                                 131449259.1934
      3671.813
  23842630.99646  23842628.75041  23842635.00541 125293888.0524   97631615.9804
     -3119.600       -2430.862
  22169940.84247  22169941.38843  22169944.57143 116503864.2354   90782265.3414
     -3327.701       -2593.023
  22661109.26947  22661109.52542  22661111.78342 119084939.5134   92793495.2134
      -682.484        -531.821
  24587176.75345  24587172.92641  24587179.12541 129206486.2794  100680394.0184
       663.477         516.982
  23292825.83047  23292824.85842  23292830.02742 122404617.4254   95380250.3904
      2800.912        2182.519
  21760115.56948  21760115.07043  21760118.33043 114350189.6884   89104067.2814
      2857.463        2226.593
  20457218.43748  20457219.35948  20457223.90645 109432340.6154   85114084.2384
     -2826.657       -2198.514
 04  5  5  1 16 30.0000000  0 10G 4G 5G 6G 7G 9G14G20G24G30R24
  22376540.56147  22376540.41343  22376543.23543 117589553.3784   91628218.5934
       691.601         538.890
  20216272.12348  20216271.59645  20216275.12945 106237284.3494   82782308.2924
       239.871         186.909
  24993005.14245                                 131339135.2144
      3670.102
  23860456.03846  23860454.93641  23860458.65441 125387564.0974   97704610.2284
     -3125.197       -2435.196
  22188970.19047  22188969.60843  22188974.07243 116603860.2694   90860184.2914
     -3338.339       -2601.310
  22665064.73147  22665063.85842  22665065.42242 119105719.9304   92809687.7434
      -702.583        -547.474
  24583444.17245  24583442.64041  24583445.57141 129186871.4884  100665109.7724
       644.359         502.075
  23276867.09347  23276868.63542  23276872.16642 122320760.9804   95314907.7174
      2789.819        2173.883
  21743830.49148  21743831.05043  21743833.93843 114264616.1254   89037386.5814
      2847.776        2219.034
  20473114.18548  20473115.82748  20473119.98145 109517377.8684   85180224.3154
     -2842.101       -2210.523
 04  5  5  1 17  0.0000000  0 10G 4G 5G 6G 7G 9G14G20G24G30R24
  22372652.42647  22372653.54743  22372656.54443 117569124.5324   91612299.9984
       670.259         522.298
  20214951.83748  20214950.66845  20214954.52245 106230344.0884   82776900.2884
       222.769         173.591
  24972062.77745                                 131229072.9584
      3667.355
  23878315.54646  23878315.14841  23878317.59241 125481416.3704   97777741.8064
     -3131.690       -2440.274
  22208060.93247  22208060.84443  22208064.20243 116704183.8624   90938358.4794
     -3349.898       -2610.304
  22669134.49947  22669134.42342  22669136.78242 119127111.2234   92826356.2934
      -723.565        -563.793
  24579822.18245  24579823.56541  24579824.69541 129167840.7404  100650280.6584
       624.325         486.470
  23260976.29347  23260975.82742  23260980.66942 122237246.2744   95249831.3504
      2777.729        2164.481
  21727604.47548  21727604.51243  21727606.58843 114179343.4114   88970940.3134
      2837.036        2210.666
  20489098.70248  20489100.68848  20489105.07044 109602885.1124   85246729.9204
     -2858.391       -2223.184
 04  5  5  1 17 30.0000000  0 10G 4G 5G 6G 7G 9G14G20G24G30R24
  22368886.63847  22368886.53543  22368890.24143 117549332.4494   91596877.5904
       649.324         505.978
  20213728.06948  20213726.90745  20213730.64245 106223912.8054   82771888.8984
       206.107         160.620
  24951132.04045                                 131119090.1074
      3664.991
  23896213.16346  23896213.32641  23896213.95141 125575458.8674   97851021.6414
     -3137.676       -2444.997
  22227216.70147  22227216.72643  22227220.53743 116804848.4444   91016798.3814
     -3360.950       -2618.911
  22673324.34447  22673323.97142  22673327.05042 119149128.6424   92843512.7554
      -744.127        -579.836
  24576314.64345  24576311.26541  24576322.21941 129149410.8644  100635919.6284
       604.506         471.082
  23245152.40846  23245151.18042  23245156.53942 122154092.2864   95185036.0544
      2765.962        2155.320
  21711438.34448  21711437.84943  21711441.06943 114094389.0994   88904742.1434
      2826.679        2202.627
  20505174.24948  20505176.02648  20505179.59745 109688874.3784   85313610.4394
     -2874.135       -2235.434
 04  5  5  1 18  0.0000000  0 10G 4G 5G 6G 7G 9G14G20G24G30R24
  22365239.18847  22365238.20143  22365240.88443 117530159.9194   91581937.9594
       628.854         490.009
  20212597.65148  20212596.46545  20212600.19045 106217972.8064   82767260.3334
       189.910         147.980
  24930215.69845                                 131009170.3394
      3663.117
  23914138.95046  23914137.67841  23914142.37841 125669671.6574   97924434.1554
     -3143.170       -2449.232
  22246434.06547  22246433.57043  22246437.70243 116905833.6284   91095488.1044
     -3371.388       -2627.048
  22677630.11647  22677630.27842  22677632.65942 119171753.0444   92861142.2014
      -764.134        -595.449
  24572920.04046  24572915.58341  24572925.59241 129131564.6814  100622013.5464
       585.191         455.948
  23229393.43447  23229392.69142  23229398.62142 122071283.5824   95120509.8284
      2754.599        2146.447
  21695329.01447  21695328.79343  21695331.66944 114009736.8204   88838779.3334
      2816.784        2194.898
  20521336.39348  20521337.04748  20521340.91945 109775324.8964   85380849.7064
     -2889.308       -2247.242
 04  5  5  1 18 30.0000000  0 11G 4G 5G 6G 7G 9G14G17G20G24G30R24
  22361709.14247  22361709.10543  22361712.21643 117511613.5324   91567486.2334
       607.534         473.415
  20211562.00048  20211560.75345  20211564.64445 106212529.8804   82763019.0884
       172.936         134.753
  24909311.51845                                 130899321.0364
      3660.216
  23932099.85446  23932098.57041  23932106.63741 125764058.6704   97997982.4484
     -3149.347       -2454.058
  22265711.21547  22265711.90043  22265715.75943 117007142.8874   91174430.3244
     -3382.566       -2635.762
  22682051.17547  22682051.00542  22682053.74142 119194989.1904   92879248.2814
      -784.896        -611.584
  25555147.34145                                 134293229.7224
      3511.213
  24569635.12345  24569633.14141  24569636.20741 129114308.8034  100608567.5074
       565.150         440.372
  23213703.16947  23213701.79742  23213707.70842 121988828.4114   95056259.0744
      2742.384        2136.918
  21679279.03348  21679278.63643  21679282.63243 113925394.0284   88773057.6844
      2806.064        2186.547
  20537583.83848  20537585.34048  20537589.01244 109862239.7594   85448450.1214
     -2905.050       -2259.478
 04  5  5  1 19  0.0000000  0 11G 4G 5G 6G 7G 9G14G17G20G24G30R24
  22358296.66647  22358297.48143  22358301.06843 117493686.2974   91553516.9434
       586.981         457.401
  20210619.26448  20210618.13345  20210621.81445 106207576.4214   82759159.2374
       156.693         122.100
  24888418.96845                                 130789536.0124
      3658.150
  23950093.67246  23950093.32441  23950099.96041 125858610.3004   98071658.9334
     -3154.713       -2458.172
  22285050.93847  22285050.09643  22285054.52643 117108766.1474   91253617.2314
     -3392.909       -2643.831
  22686588.14547  22686587.33942  22686589.87842 119218828.1544   92897824.0844
      -804.930        -627.220
  25535098.62145                                 134187865.1414
      3512.379
  24566463.94046  24566463.84141  24566464.84741 129097636.2334  100595576.0214
       545.760         425.220
  23198078.18547  23198076.93442  23198083.19542 121906721.8264   94992279.9364
      2730.780        2127.897
  21663287.44548  21663287.43043  21663289.74544 113841354.6624   88707572.4724
      2795.968        2178.666
  20553916.37948  20553917.51948  20553921.46644 109949607.0034   85516402.4084
     -2920.008       -2271.114
 04  5  5  1 19 30.0000000  0 11G 4G 5G 6G 7G 9G14G17G20G24G30R24
  22355005.36147  22355004.19943  22355008.89543 117476384.4554   91540034.9904
       566.393         441.346
  20209770.60148  20209769.86845  20209773.56845 106203118.1574   82755685.2624
       140.431         109.428
  24867540.87145                                 130679822.4734
      3655.953
  23968117.94345  23968116.52241  23968120.83441 125953329.9744   98145466.4394
     -3160.002       -2462.344
  22304450.11047  22304448.90043  22304452.94343 117210706.4194   91333051.1414
     -3403.211       -2651.859
  22691240.77547  22691239.05642  22691242.36242 119243274.3754   92916873.1064
      -824.874        -642.746
  25515043.63845                                 134082476.4194
      3513.487
  24563401.76746  24563403.22241  24563404.82241 129081552.8824  100583043.5724
       526.364         410.081
  23182522.20447  23182523.29042  23182525.09042 121824971.9514   94928578.7674
      2719.105        2118.758
  21647354.70448  21647353.75043  21647357.09944 113757625.7624   88642329.1874
      2785.851        2170.800
  20570333.42248  20570334.95048  20570338.31444 110037430.0924   85584709.2254
     -2934.925       -2282.713
 04  5  5  1 20  0.0000000  0 11G 4G 5G 6G 7G 9G14G17G20G24G30R24
  22351831.67747  22351832.12143  22351835.96243 117459710.9124   91527042.6154
       544.840         424.549
  20209017.09448  20209016.18745  20209020.04345 106199157.2274   82752598.8204
       123.235          96.020
  24846680.63645                                 130570184.0824
      3652.868
  23986174.86346  23986173.48841  23986181.87641 126048218.0804   98219405.1994
     -3166.269       -2467.242
  22323907.90847  22323907.58043  22323911.53743 117312963.4134   91412731.8994
     -3414.323       -2660.513
  22696008.36947  22696006.81142  22696009.18842 119268329.0294   92936396.2424
      -845.786        -659.049
  25494986.75145                                 133977067.9414
      3513.443
  24560453.94246  24560452.94341  24560457.93941 129066061.6144  100570972.4824
       505.956         394.254
  23167035.00447  23167033.65442  23167039.88442 121743583.3434   94865159.0844
      2706.387        2108.883
  21631480.48148  21631480.76043  21631483.46944 113674211.0754   88577330.7214
      2774.749        2162.151
  20586835.67548  20586836.98847  20586841.48244 110125707.0974   85653369.0914
     -2950.639       -2294.938
 04  5  5  1 20 30.0000000  0 11G 4G 5G 6G 7G 9G14G17G20G24G30R24
  22348779.21647  22348778.49443  22348782.01143 117443666.0594   91514540.1284
       524.325         408.573
  20208357.92048  20208357.05545  20208360.56445 106195693.6484   82749899.9194
       107.141          83.488
  24825828.68545                                 130460622.6594
      3650.702
  24004263.17846  24004262.41241  24004268.52441 126143272.6854   98293473.6434
     -3171.243       -2471.121
  22343426.87247  22343426.58343  22343430.33943 117415534.3224   91492657.2314
     -3424.245       -2668.260
  22700890.72447  22700890.32742  22700893.11642 119293991.0104   92956392.5994
      -865.519        -674.418
  25474923.21245                                 133871642.1544
      3514.432
  24557619.94345  24557618.45641  24557627.51141 129051163.2394  100559363.3474
       486.744         379.308
  23151617.33047  23151614.91142  23151621.32842 121662558.8824   94802023.1734
      2694.677        2099.744
  21615667.27047  21615667.41344  21615670.80644 113591112.3134   88512578.4484
      2764.644        2154.266
  20603422.77148  20603423.87747  20603428.19044 110214435.2244   85722379.8404
     -2965.091       -2306.177
 04  5  5  1 21  0.0000000  0 11G 4G 5G 6G 7G 9G14G17G20G24G30R24
  22345843.06747  22345844.09643  22345847.33943 117428243.7654   91502522.7324
       503.755         392.541
  20207791.85048  20207791.48945  20207795.14845 106192720.4704   82747583.1544
        91.008          70.914
  24804994.75345                                 130351132.2524
      3648.554
  24022381.81146  24022381.50041  24022387.64941 126238484.5844   98367664.6874
     -3176.209       -2475.005
  22363003.27747  22363003.48243  22363007.14943 117518409.7464   91572819.8584
     -3434.126       -2675.932
  22705887.96447  22705886.82242  22705890.82542 119320251.6314   92976855.4234
      -885.244        -689.797
  25454857.09445                                 133766193.9794
      3515.331
  24554893.69045  24554892.04541  24554901.84841 129036851.0014  100548210.9294
       467.432         364.201
  23136266.00547  23136265.98142  23136270.61942 121581893.8154   94739167.2904
      2682.900        2090.601
  21599913.39747  21599913.24144  21599916.07644 113508323.7974   88448067.9184
      2754.497        2146.364
  20620090.98047  20620093.21347  20620097.74544 110303603.6704   85791733.0424
     -2979.503       -2317.390
 04  5  5  1 21 30.0000000  0 12G 4G 5G 6G 7G 9G14G17G20G24G25G30R24
  22343028.87547  22343028.22743  22343032.92643 117413450.6274   91490995.6044
       483.113         376.432
  20207320.66048  20207320.07545  20207323.90845 106190244.0054   82745653.4384
        74.763          58.246
  24784173.56145                                 130241721.0654
      3646.148
  24040530.93046  24040531.40641  24040536.29841 126333858.3414   98441981.8324
     -3181.304       -2478.984
  22382638.75047  22382638.29043  22382642.66843 117621593.5184   91653222.7534
     -3444.066       -2683.690
  22710999.86747  22710999.09042  22711002.97242 119347116.3404   92997788.9654
      -905.084        -705.270
  25434787.18345                                 133660732.4364
      3516.184
  24552285.39745  24552280.59841  24552291.98241 129023132.2724  100537520.9934
       447.907         348.989
  23120985.67546  23120985.44742  23120992.03742 121501597.0724   94676598.4184
      2670.898        2081.208
  25504134.46545                                 134025169.6074
      3419.942
  21584220.04648  21584219.78844  21584223.51944 113425853.6924   88383805.5104
      2744.181        2138.319
  20636844.41748  20636845.64047  20636849.55444 110393216.0294   85861431.5184
     -2993.939       -2328.625
 04  5  5  1 22  0.0000000  0 12G 4G 5G 6G 7G 9G14G17G20G24G25G30R24
  22340332.83747  22340332.46543  22340336.78243 117399280.9994   91479954.3124
       462.117         360.097
  20206942.72048  20206942.12845  20206945.89445 106188258.0964   82744105.9694
        58.207          45.364
  24763368.23145                                 130132384.1944
      3643.538
  24058708.82646  24058709.05341  24058714.79341 126429385.3784   98516418.4134
     -3186.592       -2483.076
  22402331.17347  22402330.25543  22402334.60543 117725076.6684   91733858.9324
     -3454.214       -2691.588
  22716225.35647  22716225.06242  22716227.86942 119374577.2234   93019187.0764
      -925.123        -720.871
  25414714.17545                                 133555253.1394
      3516.412
  24549786.92146  24549784.68241  24549786.30941 129010001.0534  100527288.9594
       428.085         333.571
  23105775.40847  23105774.14742  23105780.36842 121421664.6644   94614313.4294
      2658.491        2071.511
  25484622.20245                                 133922627.5074
      3416.656
  21568585.75148  21568586.33044  21568589.14444 113343696.9664   88319787.2854
      2733.495        2129.993
  20653677.00548  20653678.46047  20653682.80744 110483261.9984   85931467.2424
     -3008.519       -2339.950
 04  5  5  1 22 30.0000000  0 12G 4G 5G 6G 7G 9G14G17G20G24G25G30R24
  22337755.35547  22337754.91843  22337759.52943 117385740.2744   91469403.0854
       441.206         343.798
  20206659.30648  20206658.51545  20206662.13845 106186767.3474   82742944.3434
        41.781          32.541
  24742577.76345                                 130023128.0784
      3640.853
  24076916.87146  24076917.15241  24076922.67541 126525068.8104   98590976.8974
     -3191.709       -2487.017
  22422081.44847  22422080.71843  22422084.74143 117828861.9934   91814730.5634
     -3464.171       -2699.352
  22721566.70147  22721564.15642  22721567.48442 119402638.1644   93041052.7514
      -945.053        -736.404
  25394641.35645                                 133449763.3434
      3516.915
  24547399.08246  24547400.98841  24547402.41041 128997462.4104  100517518.6324
       408.441         318.228
  23090635.58246  23090634.99842  23090639.80642 121342104.1584   94552318.2664
      2646.144        2061.935
  25465128.55545                                 133820182.1274
      3413.592
  21553013.48348  21553012.88544  21553015.70544 113261860.1854   88256018.3714
      2722.888        2121.723
  20670591.90647  20670592.71347  20670597.69044 110573744.1514   86001842.2134
     -3022.979       -2351.198
 04  5  5  1 23  0.0000000  0 12G 4G 5G 6G 7G 9G14G17G20G24G25G30R24
  22335298.50947  22335298.47243  22335302.03443 117372826.1564   91459340.1304
       420.765         327.885
  20206469.26048  20206468.62545  20206472.42745 106185769.5944   82742166.8664
        25.793          20.099
  24721801.00945                                 129913951.8504
      3638.615
  24095154.40746  24095152.24641  24095159.03141 126620904.2664   98665653.8284
     -3196.320       -2490.663
  22441887.50847  22441886.72143  22441890.61243 117932944.1804   91895833.5384
     -3473.581       -2706.708
  22727019.63347  22727018.94642  22727022.02342 119431295.2434   93063382.9744
      -964.414        -751.483
  25374566.94145                                 133344262.9474
      3517.577
  24545127.09345  24545125.83241  24545132.86641 128985514.3924  100508208.5954
       389.201         303.219
  23075566.64047  23075565.88642  23075570.48642 121262915.3454   94490612.7374
      2634.156        2052.561
  25445651.98145                                 133717832.6644
      3410.783
  21537500.50448  21537500.35544  21537503.18144 113180342.5474   88192498.1344
      2712.685        2113.774
  20687587.99448  20687588.55247  20687592.96544 110664656.3044   86072551.6514
     -3036.765       -2361.930
 04  5  5  1 23 30.0000000  0 12G 4G 5G 6G 7G 9G14G17G20G24G25G30R24
  22332962.76347  22332961.19443  22332964.64043 117360545.8834   91449771.0614
       398.811         310.755
  20206374.63648  20206373.82045  20206377.65345 106185271.1084   82741778.4294
         8.357           6.504
  24701040.97345                                 129804863.5914
      3634.859
  24113420.88346  24113416.58541  24113426.30641 126716896.2054   98740452.6604
     -3202.264       -2495.269
  22461751.14047  22461749.99743  22461754.43543 118037327.2954   91977170.9964
     -3484.354       -2715.077
  22732587.96847  22732586.46842  22732588.60242 119460553.7664   93086181.8254
      -985.259        -767.736
  25354489.10845                                 133238760.7864
      3516.742
  24542967.13245  24542969.79241  24542971.10141 128974163.9854  100499364.0234
       368.444         287.139
  23060570.49247  23060569.95542  23060574.38742 121184107.6004   94429204.1104
      2620.623        2042.035
  25426193.91945                                 133615587.3504
      3406.584
  21522051.01348  21522051.15844  21522053.76544 113099152.0434   88129232.8204
      2700.933        2104.615
  20704662.50548  20704664.33048  20704667.66444 110756002.0974   86143598.3644
     -3051.984       -2373.766
 04  5  5  1 24  0.0000000  0 12G 4G 5G 6G 7G 9G14G17G20G24G25G30R24
  22330744.84647  22330745.17943  22330748.36443 117348897.1014   91440694.0994
       377.678         294.294
  20206374.52348  20206373.31945  20206377.17245 106185269.1394   82741776.8834
        -8.310          -6.479
  24680300.14745                                 129695861.9914
      3631.789
  24131716.71045  24131716.07341  24131722.02641 126813040.0604   98815369.9024
     -3207.397       -2499.284
  22481669.84347  22481669.41443  22481673.91643 118142006.0094   92058738.7954
     -3494.286       -2722.817
  22738268.58747  22738267.49642  22738270.71142 119490409.3504   93109445.9094
     -1005.235        -783.266
  25334413.02745                                 133133256.8874
      3516.721
  24540920.55545  24540920.45441  24540921.49041 128963408.6604  100490983.1034
       348.506         271.556
  23045645.10447  23045646.04742  23045651.18542 121105680.8594   94368092.4114
      2607.764        2032.012
  25406758.01645                                 133513445.4304
      3402.921
  21506662.24648  21506662.41344  21506665.08544 113018287.3324   88066221.3604
      2689.930        2096.044
  20721819.89648  20721821.08647  20721824.47644 110847774.9204   86214977.1944
     -3066.287       -2384.885
 04  5  5  1 24 30.0000000  0 12G 4G 5G 6G 7G 9G14G17G20G24G25G30R24
  22328650.09847  22328650.67343  22328653.32143 117337889.4284   91432116.6724
       356.433         277.760
  20206469.92348  20206469.18545  20206472.70545 106185772.5694   82742169.1574
       -24.983         -19.458
  24659575.14045                                 129586957.5514
      3628.747
  24150042.25346  24150042.11141  24150047.56841 126909342.7574   98890410.8954
     -3212.459       -2503.215
  22501647.16347  22501646.46643  22501650.25343 118246986.8674   92140542.0334
     -3504.147       -2730.499
  22744065.54147  22744063.78342  22744066.66142 119520869.8284   93133181.3414
     -1025.220        -798.875
  25314337.47945                                 133027761.8364
      3516.528
  24538989.04845  24538989.10341  24538995.51241 128953258.3494  100483073.8394
       328.520         256.018
  23030797.67947  23030796.87642  23030801.76142 121027646.5554   94307286.4564
      2594.792        2021.957
  25387342.36545                                 133411417.7504
      3399.260
  21491338.80847  21491338.62844  21491341.48144 112937759.2364   88003472.1964
      2678.857        2087.427
  20739056.26047  20739057.38247  20739060.61544 110939981.3674   86286693.2754
     -3080.513       -2395.936
 04  5  5  1 25  0.0000000  0 12G 4G 5G 6G 7G 9G14G17G20G24G25G30R24
  22326674.59247  22326673.70343  22326677.72143 117327508.5034   91424027.6434
       335.324         261.306
  20206659.57048  20206658.28845  20206662.00445 106186766.7394   82742943.8384
       -41.589         -32.412
  24638870.07245                                 129478137.8484
      3625.600
  24168393.77246  24168393.99941  24168396.13441 127005788.1594   98965563.0874
     -3217.454       -2507.108
  22521678.91047  22521677.82843  22521682.79943 118352252.9994   92222567.5544
     -3513.841       -2738.046
  22749972.54947  22749973.10042  22749974.80242 119551919.5144   93157375.9194
     -1045.021        -814.312
  25294261.11645                                 132922264.0774
      3516.417
  24537168.83645  24537168.69541  24537175.14041 128943699.1714  100475625.1354
       308.534         240.420
  23016018.46347  23016017.88942  23016023.67242 120949992.6454   94246776.9574
      2581.834        2011.816
  25367945.18545                                 133309492.2194
      3395.533
  21476075.89748  21476076.21044  21476079.20844 112857554.9394   87940975.3474
      2667.812        2078.814
  20756370.80048  20756372.20547  20756376.53744 111032602.4334   86358731.8604
     -3094.540       -2406.866
 04  5  5  1 25 30.0000000  0 12G 4G 5G 6G 7G 9G14G17G20G24G25G30R24
  22324818.33947  22324817.92343  22324821.87643 117317751.4524   91416424.7364
       314.754         245.263
  20206941.24448  20206940.35745  20206944.01945 106188248.5104   82744098.4644
       -57.624         -44.894
  24618175.63745                                 129369401.1064
      3623.052
  24186774.56546  24186773.68941  24186778.24141 127102370.7854   99040822.2804
     -3221.797       -2510.452
  22541764.14847  22541762.80443  22541766.90043 118457798.2314   92304810.5354
     -3522.895       -2745.117
  22755992.83947  22755992.85142  22755995.10242 119583553.3864   93182025.7144
     -1064.277        -829.329
  25274185.68745                                 132816762.3934
      3516.676
  24535462.84546  24535463.20641  24535466.42741 128934727.4624  100468634.1644
       289.150         225.338
  23001315.35647  23001314.62542  23001318.83442 120872717.8214   94186562.8434
      2569.397        2002.109
  25348569.98345                                 133207666.9254
      3392.384
  21460875.47148  21460875.03544  21460877.38544 112777672.3754   87878729.1964
      2657.240        2070.579
  20773761.94347  20773763.03347  20773767.03744 111125632.9084   86431088.8634
     -3107.889       -2417.238
 04  5  5  1 26  0.0000000  0 12G 4G 5G 6G 7G 9G14G17G20G24G25G30R24
  22323083.73247  22323083.12143  22323086.86543 117308634.9014   91409320.9204
       293.224         228.485
  20207319.19448  20207318.01845  20207321.65745 106190234.0534   82745645.6384
       -74.564         -58.096
  24597502.12845                                 129260764.8444
      3619.544
  24205180.92045  24205180.21041  24205190.86441 127199105.1654   99116199.6104
     -3226.986       -2514.481
  22561904.34847  22561903.46243  22561908.44943 118563636.6104   92387281.9584
     -3532.795       -2752.828
  22762126.30447  22762127.03142  22762129.07542 119615786.5734   93207142.4674
     -1084.412        -844.985
  25254114.02545                                 132711275.4814
      3515.927
  24533869.67445  24533867.07141  24533874.91741 128926360.2584  100462114.3084
       268.869         209.482
  22986685.27246  22986685.03642  22986689.07942 120795841.0964   94126658.9114
      2555.912        1991.632
  25329214.31445                                 133105960.3214
      3388.230
  21445738.56648  21445738.80844  21445741.24044 112698129.7084   87816747.8924
      2645.772        2061.638
  20791231.73947  20791233.20547  20791237.08944 111219085.0954   86503773.8724
     -3122.040       -2428.252
 04  5  5  1 26 30.0000000  0 12G 4G 5G 6G 7G 9G14G17G20G24G25G30R24
  22321468.97747  22321469.39443  22321472.27543 117300151.4614   91402710.4544
       272.022         211.956
  20207791.33848  20207790.39545  20207794.07845 106192715.5504   82747579.2684
       -91.214         -71.076
  24576848.06645                                 129152222.8524
      3616.320
  24223615.58045  24223616.77941  24223621.12141 127295981.6754   99191687.7574
     -3231.771       -2518.209
  22582098.60147  22582097.82943  22582101.98143 118669757.7564   92469973.7344
     -3542.260       -2760.203
  22768373.20247  22768372.03942  22768374.87742 119648609.6144   93232718.8704
     -1104.130        -860.364
  25234039.39945                                 132605798.1004
      3515.471
  24532390.01745  24532388.65841  24532393.48241 128918590.1154  100456059.6074
       248.874         193.981
  22972131.25247  22972131.57942  22972134.83942 120719357.4254   94067061.2684
      2542.664        1981.284
  25309880.86245                                 133004366.2014
      3384.368
  21430665.07048  21430665.71444  21430668.42944 112618920.5564   87755026.4854
      2634.508        2052.868
  20808778.14747  20808779.11447  20808783.93144 111312948.1694   86576778.4574
     -3135.824       -2438.972
 04  5  5  1 27  0.0000000  0 12G 4G 5G 6G 7G 9G14G17G20G24G25G30R24
  22319975.90647  22319975.35043  22319978.72343 117292304.3854   91396595.8054
       251.184         195.749
  20208358.24248  20208357.53745  20208361.26545 106195696.1084   82749901.7734
      -107.443         -83.714
  24556212.39645                                 129043779.9794
      3613.378
  24242079.12346  24242079.12841  24242084.32541 127393001.2204   99267287.3764
     -3236.122       -2521.608
  22602346.31247  22602345.58643  22602349.34843 118776161.9724   92552886.0774
     -3551.271       -2767.196
  22774730.39247  22774731.13042  22774734.30242 119682023.8984   93258755.9674
     -1123.448        -875.422
  25213970.89545                                 132500335.4624
      3515.282
  24531024.59645  24531023.21841  24531027.91641 128911420.2674  100450472.7774
       229.183         178.641
  22957652.52647  22957652.39442  22957656.71642 120643272.0724   94007773.9964
      2529.752        1971.274
  25290575.82045                                 132902890.1774
      3380.762
  21415657.28548  21415656.78344  21415659.88944 112540049.6214   87693568.6074
      2623.598        2044.374
  20826402.70648  20826404.09447  20826407.45144 111407222.7824   86650103.1184
     -3148.988       -2449.212
 04  5  5  1 27 30.0000000  0 12G 4G 5G 6G 7G 9G14G17G20G24G25G30R24
  22318604.27147  22318604.03243  22318606.57343 117285094.8324   91390977.9874
       229.555         178.882
  20209020.83348  20209019.89345  20209023.41845 106199176.3584   82752613.6554
      -124.491         -97.012
  24535596.45745                                 128935438.5784
      3609.475
  24260567.72045  24260569.94841  24260573.98941 127490162.9634   99342997.7084
     -3241.237       -2525.625
  22622648.70747  22622647.54643  22622651.63143 118882847.8714   92636017.9174
     -3560.983       -2774.793
  22781203.14447  22781201.58142  22781204.82242 119716029.3704   93285253.7364
     -1143.503        -891.047
  25193906.13145                                 132394890.9404
      3514.412
  24529776.67346  24529778.95441  24529781.69441 128904851.8284  100445354.5164
       208.776         162.730
  22943250.29447  22943249.97642  22943255.17742 120567588.5934   93948799.8834
      2515.916        1960.449
  25271284.16745                                 132801534.9224
      3376.316
  21400713.23948  21400713.07144  21400716.17944 112461519.3664   87632376.2094
      2611.834        2035.195
  20844102.90347  20844103.67347  20844107.86344 111501906.2094   86723745.7554
     -3163.025       -2460.125
 04  5  5  1 28  0.0000000  0 12G 4G 5G 6G 7G 9G14G17G20G24G25G30R24
  22317352.34047  22317352.34543  22317356.67243 117278519.9674   91385854.7204
       208.595         162.536
  20209777.13248  20209776.49245  20209780.41145 106203153.0824   82755712.3984
      -140.800        -109.712
  24514999.14345                                 128827197.0594
      3606.376
  24279083.44345  24279085.91341  24279087.30441 127587461.9874   99418815.0984
     -3245.566       -2529.040
  22643002.35447  22643001.62843  22643006.66643 118989809.8734   92719364.9034
     -3569.940       -2781.800
  22787785.51547  22787784.47742  22787787.47442 119750620.9954   93312208.2664
     -1162.783        -906.091
  25173845.67945                                 132289463.8264
      3513.975
  24528641.56445  24528641.20841  24528638.46141 128898881.9504  100440702.6354
       188.985         147.319
  22928924.11247  22928923.65442  22928928.60542 120492306.0814   93890138.2244
      2502.725        1950.179
  25252019.30445                                 132700298.8254
      3372.530
  21385833.47448  21385833.74744  21385836.69144 112383328.3384   87571448.1364
      2600.737        2026.539
  20861876.57447  20861878.13147  20861882.66844 111596991.3794   86797700.8564
     -3176.088       -2470.288
 04  5  5  1 28 30.0000000  0 12G 4G 5G 6G 7G 9G14G17G20G24G25G30R24
  22316224.70047  22316225.09043  22316229.15743 117272594.3714   91381237.3604
       187.420         146.020
  20210631.56548  20210630.52745  20210634.13845 106207640.4654   82759209.0504
      -157.372        -122.626
  24494423.26545                                 128719071.2784
      3602.997
  24297627.71446  24297627.49741  24297633.77341 127684910.5384   99494748.9514
     -3250.057       -2532.514
  22663411.93547  22663410.30843  22663415.04543 119097059.9044   92802936.3274
     -3579.054       -2788.868
  22794481.46047  22794480.42142  22794483.77342 119785811.4884   93339629.3984
     -1182.265        -921.230
  25153787.45145                                 132184070.8344
      3513.253
  24527621.54146  24527623.16841  24527626.06741 128893525.1104  100436528.5834
       169.063         131.687
  22914678.73447  22914678.46942  22914682.44442 120417441.0864   93831801.8614
      2489.225        1939.673
  25232782.74546                                 132599198.6584
      3368.440
  21371022.62048  21371022.20244  21371024.98444 112305492.3734   87510796.7314
      2589.338        2017.671
  20879729.88147  20879731.14747  20879735.03444 111692490.1874   86871977.6904
     -3189.394       -2480.630
 04  5  5  1 29  0.0000000  0 12G 4G 5G 6G 7G 9G14G17G20G24G25G30R24
  22315217.78847  22315217.38143  22315220.94543 117267299.0734   91377111.1364
       165.442         128.939
  20211578.92948  20211577.98845  20211581.60245 106212619.6114   82763088.8864
      -174.737        -136.155
  24473863.87045                                 128611043.9454
      3598.700
  24316197.35146  24316194.89241  24316199.68941 127782487.7524   99570783.1134
     -3255.272       -2536.565
  22683871.15147  22683869.63643  22683875.11143 119204576.2014   92886715.2204
     -3588.865       -2796.521
  22801287.70147  22801287.21142  22801289.67742 119821580.3724   93367501.2454
     -1202.502        -937.014
  25133734.42445                                 132078695.2844
      3511.616
  24526715.01946  24526715.12841  24526722.76041 128888762.4104  100432817.2214
       148.275         115.520
  22900508.15847  22900507.71642  22900512.33042 120342977.2884   93773778.1514
      2474.842        1928.457
  25213565.63945                                 132498217.0324
      3363.474
  21356274.39748  21356274.70544  21356277.33344 112227993.9444   87450408.3454
      2577.053        2008.094
  20897655.75247  20897656.71947  20897660.50844 111788379.6014   86946558.3104
     -3203.403       -2491.542
 04  5  5  1 29 30.0000000  0 12G 4G 5G 6G 7G 9G14G17G20G24G25G30R24
  22314332.88447  22314332.21843  22314336.14743 117262647.3004   91373486.3904
       144.827         112.847
  20212622.07348  20212621.66645  20212625.21545 106218103.2844   82767361.8774
      -190.698        -148.598
  24453331.53745                                 128503129.7304
      3595.801
  24334790.44345  24334790.28641  24334798.11841 127880205.0694   99646926.4054
     -3259.070       -2539.534
  22704382.45647  22704382.50342  22704386.61042 119312369.1154   92970709.6974
     -3597.161       -2802.988
  22808206.82047  22808206.28142  22808209.00242 119857939.1114   93395832.7214
     -1221.255        -951.630
  25113690.24745                                 131973352.6754
      3511.438
  24525924.78245  24525925.41941  24525925.55341 128884607.3704  100429579.4364
       128.867         100.395
  22886417.82847  22886416.79942  22886421.28142 120268930.3234   93716079.2384
      2461.777        1918.259
  25194375.79345                                 132397369.5044
      3359.853
  21341594.42248  21341594.07544  21341597.68644 112150847.7844   87390294.4564
      2566.157        1999.597
  20915656.36547  20915657.26147  20915660.92944 111884670.1384   87021450.9044
     -3215.831       -2501.206
 04  5  5  1 30  0.0000000  0 12G 4G 5G 6G 7G 9G14G17G20G24G25G30R24
  22313568.87947  22313568.81943  22313572.64743 117258633.5184   91370358.7484
       123.150          95.969
  20213761.12748  20213759.91345  20213764.07245 106224085.5824   82772023.3994
      -207.718        -161.855
  24432815.16345                                 128395324.4904
      3591.724
  24353410.80745  24353406.89741  24353415.17441 127978054.6234   99723172.7394
     -3263.850       -2543.257
  22724946.24747  22724945.47642  22724950.15143 119420430.5214   93054913.3614
     -3606.492       -2810.260
  22815236.20947  22815236.11142  22815238.09642 119894880.4464   93424618.1714
     -1241.059        -967.047
  25093648.85745                                 131868039.5054
      3509.917
  24525248.39445  24525248.33341  24525252.37441 128881054.2484  100426810.6554
       108.484          84.547
  22872405.17147  22872404.58242  22872410.04742 120195296.4814   93658702.2434
      2447.557        1907.172
  25175207.49445                                 132296651.7814
      3355.116
  21326980.51448  21326980.15144  21326983.21944 112074049.7914   87330451.8594
      2554.132        1990.250
  20933730.29647  20933731.36447  20933734.79644 111981352.5404   87096648.3034
     -3229.220       -2511.609
 04  5  5  1 30 30.0000000  0 12G 4G 5G 6G 7G 9G14G17G20G24G25G30R24
  22312925.28847  22312924.84443  22312927.77043 117255253.3984   91367724.8904
       102.052          79.512
  20214993.45948  20214992.36145  20214996.23345 106230561.7774   82777069.7824
      -224.190        -174.692
  24412322.85845                                 128287625.0924
      3588.170
  24372056.55246  24372056.73241  24372060.61441 128076030.1454   99799517.2924
     -3267.983       -2546.503
  22745559.43147  22745559.47042  22745563.95342 119528753.5634   93139320.9024
     -3615.177       -2817.038
  22822375.39447  22822374.82442  22822378.55842 119932398.2654   93453852.8174
     -1260.259        -982.019
  25073615.41145                                 131762753.7254
      3508.979
  24524685.04345  24524683.32441  24524687.71541 128878098.5594  100424507.4784
        88.526          69.005
  22858470.67547  22858470.54142  22858475.68942 120122073.7274   93601645.5564
      2433.815        1896.499
  25156068.25245                                 132196061.6684
      3350.724
  21312431.73748  21312431.66744  21312434.59244 111997596.8984   87270878.1674
      2542.609        1981.252
  20951875.76547  20951877.30947  20951881.01744 112078419.1764   87172144.5404
     -3242.035       -2521.587
 04  5  5  1 31  0.0000000  0 12G 4G 5G 6G 7G 9G14G17G20G24G25G30R24
  22312404.10347  22312403.89943  22312407.16543 117252515.4984   91365591.4584
        80.796          62.955
  20216321.09348  20216320.27545  20216323.92845 106237540.3634   82782507.6344
      -240.738        -187.585
  24391848.69345  24391844.81841  24391851.89041 128180042.1054   99880562.1614
      3584.421        2793.030
  24390724.78145  24390725.18041  24390729.54041 128174138.3594   99875965.1334
     -3272.288       -2549.842
  22766224.34047  22766223.26242  22766228.25842 119637344.3614   93223937.0794
     -3623.842       -2823.774
  22829626.80247  22829625.72242  22829628.47242 119970499.4304   93483542.0614
     -1279.454        -996.993
  25053586.44545                                 131657506.7634
      3507.764
  24524240.10846  24524241.83141  24524244.95141 128875749.1254  100422676.6654
        68.440          53.343
  22844618.25947  22844617.08042  22844622.00342 120049273.2774   93544917.9414
      2419.869        1885.637
  25136952.74445                                 132095609.7114
      3346.278
  21297950.42048  21297950.57644  21297953.83444 111921499.3164   87211581.3454
      2530.907        1972.149
  20970094.67847  20970095.38647  20970099.73144 112175876.1644   87247944.4004
     -3254.794       -2531.505
 04  5  5  1 31 30.0000000  0 12G 4G 5G 6G 7G 9G14G17G20G24G25G30R24
  22312004.76347  22312005.21843  22312008.56043 117250417.1104   91363956.3494
        58.904          45.896
  20217744.14748  20217743.34745  20217747.11345 106245018.1984   82788334.5234
      -257.968        -201.016
  24371397.85345  24371397.34841  24371400.83041 128072573.6234   99796820.5954
      3579.939        2789.557
  24409417.43945  24409418.49341  24409425.09941 128272374.5324   99952512.8354
     -3276.897       -2553.416
  22786937.82847  22786937.56042  22786941.17142 119746197.3854   93308757.5944
     -3633.135       -2831.000
  22836987.72847  22836987.09742  22836988.22042 120009179.4154   93513682.3114
     -1299.347       -1012.477
  25033566.62745                                 131552297.7004
      3505.998
  24523905.06345  24523904.78741  24523911.06541 128874003.4324  100421316.3664
        47.787          37.277
  22830844.07647  22830843.48542  22830849.76642 119976894.4924   93488518.9444
      2405.193        1874.155
  25117863.98745                                 131995294.9984
      3341.176
  21283537.10948  21283537.24744  21283540.25044 111845755.8624   87152560.4724
      2518.486        1962.456
  20988384.32947  20988385.69047  20988389.21144 112273716.8414   87324042.6714
     -3268.122       -2541.866
 04  5  5  1 32  0.0000000  0 12G 4G 5G 6G 7G 9G14G17G20G24G25G30R24
  22311727.20347  22311726.36743  22311730.18143 117248956.8844   91362818.4914
        38.336          29.877
  20219261.76148  20219260.98145  20219264.89045 106252993.7614   82794549.2384
      -273.836        -213.387
  24350969.29245  24350970.41241  24350973.77841 127965220.0074   99713168.4434
      3576.836        2787.158
  24428136.43745  24428136.44241  24428139.31241 128370735.4654  100029157.5614
     -3280.527       -2556.255
  22807702.16447  22807700.00742  22807706.12442 119855308.5734   93393779.3084
     -3641.023       -2837.175
  22844457.81647  22844456.85142  22844459.59242 120048434.9224   93544271.0044
     -1317.792       -1026.847
  25013553.55745                                 131447127.5314
      3505.326
  24523688.97646  24523687.77641  24523696.10941 128872859.8534  100420425.2764
        28.381          22.140
  22817151.90647  22817151.64042  22817155.61742 119904938.1504   93432449.0654
      2391.759        1863.695
  25098799.51945                                 131895118.1684
      3337.197
  21269191.11248  21269191.30144  21269194.34644 111770366.5074   87093815.5144
      2507.351        1953.778
  21006744.60547  21006746.36447  21006749.85644 112371935.8724   87400435.2564
     -3279.884       -2551.034
 04  5  5  1 32 30.0000000  0 12G 4G 5G 6G 7G 9G14G17G20G24G25G30R24
  22311569.95547  22311570.14043  22311573.97343 117248134.2754   91362177.4844
        16.204          12.631
  20220874.05148  20220873.41445  20220877.15945 106261466.5934   82801151.4434
      -291.280        -226.977
  24330562.93545  24330564.06241  24330566.77941 127857982.6314   99629606.9014
      3572.095        2783.422
  24446877.70645  24446877.73141  24446880.34341 128469218.7734  100105897.7774
     -3285.378       -2560.078
  22828513.90547  22828513.04942  22828516.26342 119964675.3014   93479000.1214
     -3650.337       -2844.420
  22852035.35547  22852034.32142  22852037.37842 120088263.9944   93575306.6524
     -1337.737       -1042.379
  24993546.27545                                 131341998.7344
      3503.050
  24523586.28545  24523585.72641  24523589.59241 128872318.1054  100420003.2434
         7.466           5.790
  22803539.49347  22803539.34742  22803543.94942 119833406.5054   93376710.1484
      2376.710        1851.983
  25079762.87445                                 131795081.2394
      3331.580
  21254913.10448  21254912.66444  21254915.53844 111695332.6414   87035347.5514
      2494.607        1943.840
  21025176.30447  21025177.66147  21025182.13744 112470530.7164   87477120.1144
     -3293.314       -2561.461
 04  5  5  1 33  0.0000000  0 12G 4G 5G 6G 7G 9G14G17G20G24G25G30R24
  22311535.34447  22311535.62943  22311539.89943 117247949.9114   91362033.8124
        -4.111          -3.207
  20222581.49148  20222580.42745  20222584.21345 106270436.8954   82808141.2814
      -306.928        -239.166
  24310178.95445  24310175.71541  24310186.05441 127750863.4014   99546137.4684
      3569.034        2781.043
  24465640.64645  24465639.98041  24465646.43641 128567823.1604  100182732.3054
     -3288.469       -2562.466
  22849371.91047  22849371.93142  22849376.69142 120074295.2214   93564418.2184
     -3657.832       -2850.269
  22859724.73747  22859723.16742  22859725.86342 120128665.3834   93606788.2844
     -1355.889       -1056.538
  24973550.68245                                 131236913.5504
      3502.350
  24523597.96846  24523596.83041  24523603.13541 128872378.5474  100420050.4064
       -11.694          -9.115
  22790008.51047  22790008.72942  22790013.92942 119762302.0374   93321304.0784
      2363.357        1841.558
  25060755.72745  25060754.57041  25060757.81041 131695185.8574  102619607.4334
      3327.811        2593.111
  21240702.23548  21240701.98544  21240705.60244 111620656.1444   86977158.0754
      2483.587        1935.267
  21043677.23747  21043679.00747  21043682.97944 112569498.5024   87554095.0354
     -3304.730       -2570.357
 04  5  5  1 33 30.0000000  0 12G 4G 5G 6G 7G 9G14G17G20G24G25G30R24
  22311622.58447  22311621.55043  22311625.76443 117248405.0074   91362388.4374
       -26.329         -20.516
  20224383.27348  20224382.24345  20224385.92945 106279905.7754   82815519.6294
      -324.416        -252.796
  24289818.46046  24289815.96741  24289821.04441 127643865.2574   99462762.2624
      3564.060        2777.199
  24484429.29146  24484427.70141  24484435.48241 128666548.4524  100259661.0514
     -3293.299       -2566.230
  22870281.57347  22870280.32142  22870284.74542 120184167.3854   93650032.8874
     -3667.051       -2857.433
  22867520.22747  22867521.03042  22867522.50842 120169638.7534   93638715.5844
     -1375.765       -1072.016
  24953561.54345                                 131131876.3794
      3499.845
  24523725.05746  24523725.06041  24523727.11141 128873042.3904  100420567.5694
       -32.662         -25.469
  22776560.66347  22776559.26242  22776565.48242 119691628.8364   93266234.0584
      2348.057        1829.625
  25041770.83845  25041772.89941  25041772.11541 131595436.0044  102541880.3504
      3322.013        2588.611
  21226560.51748  21226560.13744  21226563.05944 111546339.9974   86919249.3834
      2470.708        1925.227
  21062248.20447  21062250.06047  21062253.95244 112668837.3294   87631358.5334
     -3317.953       -2580.629
 04  5  5  1 34  0.0000000  0 12G 4G 5G 6G 7G 9G14G17G20G24G25G30R24
  22311832.49447  22311832.24343  22311836.68943 117249510.5994   91363249.9144
       -47.544         -37.021
  20226281.74748  20226281.05545  20226284.60245 106289883.6404   82823294.5774
      -340.935        -265.656
  24269482.50846  24269481.58441  24269485.56341 127537000.8924   99379491.4314
      3560.010        2773.991
  24503240.31545  24503237.27341  24503242.10741 128765403.4784  100336690.8244
     -3297.186       -2569.236
  22891239.03047  22891237.99442  22891243.32442 120294300.2004   93735850.6404
     -3675.291       -2863.849
  22875429.10247  22875427.55942  22875431.13842 120211193.2224   93671095.6794
     -1394.677       -1086.765
  24933585.04645                                 131026900.2024
      3498.312
  24523968.14046  24523967.94741  24523969.76941 128874320.6644  100421563.6274
       -52.743         -41.121
  22763195.64547  22763195.06542  22763201.46742 119621400.1184   93211510.3964
      2333.698        1818.466
  25022822.05245  25022821.86641  25022824.22341 131495844.6274  102464276.8284
      3317.166        2584.798
  21212489.78148  21212489.28444  21212492.02844 111472396.7264   86861631.2374
      2458.691        1915.872
  21080889.54447  21080890.73247  21080894.10544 112768555.0804   87708916.7704
     -3330.065       -2590.046
 04  5  5  1 34 30.0000000  0 12G 4G 5G 6G 7G 9G14G17G20G24G25G30R24
  22312165.48847  22312165.95743  22312169.09743 117251262.6094   91364615.1014
       -69.154         -53.867
  20228276.68148  20228275.83945  20228279.76045 106300367.0934   82831463.4874
      -357.874        -278.859
  24249169.89145  24249167.59741  24249174.63641 127430268.0774   99296323.0414
      3555.621        2770.552
  24522074.14545  24522075.24341  24522078.73741 128864382.8494  100413817.5184
     -3301.353       -2572.438
  22912244.16447  22912244.10342  22912248.55942 120404687.4624   93821866.6694
     -3683.785       -2870.481
  22883445.57147  22883444.72442  22883447.59742 120253323.1894   93703924.2044
     -1413.870       -1101.730
  24913619.35545                                 130921983.8814
      3496.239
  24524327.11646  24524323.94841  24524331.66241 128876209.6594  100423035.5544
       -73.114         -56.951
  22749916.25547  22749916.93042  22749921.38942 119551614.3254   93157131.8704
      2318.795        1806.853
  25003897.81645  25003898.25641  25003899.66641 131396409.5714  102386794.9644
      3311.873        2580.690
  21198488.94748  21198488.84144  21198492.02844 111398824.2344   86804302.0234
      2446.243        1906.161
  21099599.49247  21099600.66447  21099605.54644 112868645.1644   87786764.5904
     -3342.517       -2599.743
 04  5  5  1 35  0.0000000  0 12G 4G 5G 6G 7G 9G14G17G20G24G25G30R24
  22312619.75247  22312619.71343  22312623.05943 117253648.1064   91366473.9154
       -89.724         -69.925
  20230365.46948  20230364.57445  20230368.40945 106311342.4774   82840015.7394
      -373.730        -291.221
  24228882.50746  24228884.73141  24228886.77241 127323655.3454   99213248.2324
      3552.061        2767.860
  24540930.94545  24540929.67841  24540931.63441 128963471.5474  100491029.4264
     -3304.377       -2574.812
  22933296.24847  22933294.88942  22933299.12442 120515313.4504   93908068.7314
     -3691.150       -2876.253
  22891570.09846  22891569.13642  22891571.75142 120296013.9224   93737189.7244
     -1432.012       -1115.886
  24893665.46045                                 130817116.8014
      3495.077
  24524799.76746  24524800.52741  24524804.50641 128878696.1554  100424973.0404
       -92.492         -72.038
  22736719.75947  22736718.09542  22736722.78142 119482260.6824   93103090.0854
      2304.888        1796.032
  24985005.15845  24985007.24141  24985009.10041 131297120.1424  102309426.6794
      3307.506        2577.301
  21184557.25348  21184556.76944  21184560.15244 111325610.9924   86747252.7394
      2434.774        1897.218
  21118377.30447  21118377.83247  21118382.37744 112969090.7544   87864888.8884
     -3353.784       -2608.497
 04  5  5  1 35 30.0000000  0 12G 4G 5G 6G 7G 9G14G17G20G24G25G30R24
  22313194.57447  22313194.66043  22313197.64043 117256671.8194   91368830.0564
      -111.637         -86.984
  20232548.78048  20232547.51045  20232551.43445 106322814.5304   82848954.9914
      -390.890        -304.582
  24208620.24345  24208620.44641  24208621.69641 127217168.9904   99130271.9244
      3547.181        2764.026
  24559808.93846                                 129062672.8374
     -3308.817
  22954393.35547  22954392.02542  22954397.43942 120626180.5524   93994458.6714
     -3699.754       -2882.926
  22899800.44946  22899801.21742  22899803.23842 120339268.5084   93770894.5994
     -1451.471       -1130.996
  24873721.31145  24873718.15941  24873725.79941 130712306.5154  101853745.5554
      3492.409        2721.374
  24525389.06146  24525388.85341  24525387.98241 128881785.1114  100427380.0294
      -113.227         -88.209
  22723605.36846  22723604.20842  22723609.36342 119413346.3514   93049390.6224
      2289.572        1784.083
  24966139.88145  24966140.09441  24966141.29641 131197983.4154  102232177.3764
      3301.843        2572.880
  21170694.53148  21170694.75644  21170697.47344 111252763.5494   86690488.4954
      2421.924        1887.203
  21137220.12047  21137222.32747  21137226.59944 113069893.7694   87943291.2154
     -3366.240       -2618.189
 04  5  5  1 36  0.0000000  0 12G 4G 5G 6G 7G 9G14G17G20G24G25G30R24
  22313892.34747  22313892.35743  22313896.36343 117260336.9644   91371686.0014
      -132.773        -103.470
  20234826.60648  20234825.76045  20234829.33445 106334786.3354   82858283.6634
      -407.325        -317.395
  24188381.66246  24188380.83241  24188387.78041 127110814.7094   99047398.4934
      3543.035        2760.798
  24578706.53245                                 129161988.4544
     -3312.361
  22975536.66247  22975536.30342  22975540.48542 120737289.8144   94081037.3034
     -3707.583       -2889.033
  22908138.89747  22908139.00842  22908141.51242 120383088.3224   93805039.8804
     -1469.984       -1145.471
  24853787.83145  24853786.47241  24853788.77441 130607558.6384  101772123.9004
      3490.596        2719.883
  24526091.20146  24526090.11741  24526095.80541 128885479.5714  100430258.8954
      -133.200        -103.813
  22710575.76547  22710575.69942  22710580.50042 119344877.2774   92996038.1194
      2274.931        1772.682
  24947303.86645  24947301.09641  24947306.91941 131099005.0814  102155051.4474
      3296.733        2568.823
  21156902.84248  21156902.18344  21156906.01844 111180286.8964   86634013.1674
      2409.767        1877.738
  21156131.88747  21156133.19847  21156137.71444 113171054.6524   88021971.8704
     -3377.897       -2627.247
 04  5  5  1 36 30.0000000  0 12G 4G 5G 6G 7G 9G14G17G20G24G25G30R24
  22314710.63147  22314711.23543  22314714.47743 117264640.5614   91375039.4394
      -154.103        -120.092
  20237199.17848  20237198.45445  20237202.04845 106347254.9084   82867999.4104
      -423.893        -330.296
  24168167.18646  24168163.69141  24168173.53341 127004590.8034   98964626.6974
      3538.589        2757.299
  24597627.67345                                 129261413.6134
     -3315.971
  22996724.25747  22996724.81342  22996728.54042 120848635.8564   94167800.4314
     -3715.444       -2895.157
  22916585.35247  22916584.36742  22916587.41242 120427468.9674   93839622.1824
     -1488.690       -1160.022
  24833867.87245  24833863.21041  24833871.72841 130502873.3414  101690551.0104
      3488.432        2718.300
  24526907.91546  24526910.15241  24526918.36041 128889776.5804  100433607.2094
      -153.313        -119.524
  22697631.51747  22697630.65642  22697634.56043 119276852.6784   92943031.9174
      2260.066        1761.116
  24928499.42745  24928500.60441  24928503.33341 131000184.0494  102078048.0384
      3291.359        2564.651
  21143181.76448  21143180.84544  21143184.33744 111108179.8304   86577825.8384
      2397.403        1868.108
  21175106.92947  21175110.20347  21175114.57944 113272567.3684   88100926.1894
     -3389.616       -2636.365
 04  5  5  1 37  0.0000000  0 12G 4G 5G 6G 7G 9G14G17G20G24G25G30R24
  22315652.20147  22315651.68343  22315655.31543 117269583.6774   91378891.1964
      -175.782        -136.975
  20239666.47048  20239665.87845  20239669.45045 106360221.6694   82878103.3734
      -440.891        -343.562
  24147980.40446  24147977.85641  24147981.89641 126898500.1954   98881958.7414
      3533.798        2753.591
  24616566.29645                                 129360947.9974
     -3319.979
  23017958.42347  23017958.00842  23017961.90542 120960217.4004   94254747.0474
     -3723.663       -2901.537
  22925136.76547  22925136.33442  22925140.02442 120472409.6274   93874640.8794
     -1507.655       -1174.786
  24813958.35545  24813957.18041  24813963.68241 130398253.7934  101609029.2474
      3485.835        2716.244
  24527840.08445  24527843.87841  24527844.03841 128894677.3224  100437425.9764
      -173.768        -135.436
  22684771.12347  22684771.28342  22684776.75742 119209276.2884   92890375.0164
      2244.702        1749.126
  24909725.50345  24909724.75141  24909730.32141 130901523.3924  102001169.6974
      3285.724        2560.306
  21129530.48548  21129530.42444  21129533.66744 111036445.1224   86521928.6714
      2384.588        1858.118
  21194150.94347  21194152.76947  21194157.32044 113374430.4114   88180152.9614
     -3401.596       -2645.691
 04  5  5  1 37 30.0000000  0 12G 4G 5G 6G 7G 9G14G17G20G24G25G30R24
  22316715.98247  22316715.16343  22316718.16143 117275169.0564   91383243.4284
      -196.512        -153.139
  20242229.50548  20242228.42245  20242232.34945 106373688.8844   82888597.2934
      -456.853        -355.991
  24127817.04546  24127818.17741  24127818.36841 126792547.2884   98799398.0664
      3529.806        2750.541
  24635529.37145                                 129460592.5424
     -3322.911
  23039235.95547  23039236.04042  23039240.89342 121072034.9604   94341877.5914
     -3730.778       -2907.087
  22933795.30447  22933795.17542  22933798.30542 120517911.5044   93910096.8754
     -1525.697       -1188.821
  24794062.15845  24794065.26141  24794066.39841 130293705.4284  101527563.0474
      3484.172        2714.906
  24528888.96646  24528888.29241  24528892.20841 128900184.4974  100441717.1054
      -193.286        -150.631
  22671997.40847  22671998.39742  22672002.87643 119142153.0594   92838071.2144
      2230.221        1737.835
  24890981.41945  24890980.26841  24890985.88641 130803028.5624  101924420.5074
      3280.760        2556.421
  21115951.24048  21115951.71544  21115954.17744 110965087.3494   86466325.2024
      2372.656        1848.824
  21213259.97047  21213260.28047  21213264.06144 113476643.5094   88259652.0094
     -3412.538       -2654.209
 04  5  5  1 38  0.0000000  0 12G 4G 5G 6G 7G 9G14G17G20G24G25G30R24
  22317899.93047  22317900.37843  22317903.04643 117281396.0104   91388095.5794
      -218.599        -170.340
  20244887.42348  20244886.30745  20244890.17745 106387655.5634   82899480.4014
      -474.235        -369.530
  24107680.76146  24107681.50141  24107685.06841 126686733.1864   98716945.5774
      3524.496        2746.344
  24654511.85245                                 129560345.0464
     -3327.262
  23060559.29947  23060558.65342  23060563.11342 121184085.4644   94429189.6584
     -3739.216       -2913.657
  22942560.95847  22942561.06242  22942563.00042 120563972.1444   93945988.2874
     -1545.001       -1203.903
  24774182.72745  24774177.23641  24774186.83241 130189230.5334  101446154.0654
      3480.890        2712.434
  24530053.21645  24530051.39241  24530055.97141 128906297.3504  100446480.3764
      -214.161        -166.841
  22659312.05847  22659311.71242  22659316.57843 119075484.8664   92786121.9914
      2214.330        1725.448
  24872270.89845  24872269.49041  24872276.86341 130704701.0694  101847801.7704
      3274.412        2551.463
  21102444.74348  21102444.47544  21102447.91544 110894107.3804   86411016.1264
      2359.332        1838.446
  21232430.97247  21232432.41647  21232436.51744 113579202.6534   88339420.2004
     -3424.707       -2663.661
 04  5  5  1 38 30.0000000  0 12G 4G 5G 6G 7G 9G14G17G20G24G25G30R24
  22319207.43847  22319206.64743  22319211.29843 117288264.6274   91393447.7254
      -239.249        -186.413
  20247640.22348  20247639.55645  20247642.88445 106402122.0384   82910752.9584
      -490.148        -381.932
  24087572.32646  24087572.29441  24087575.33941 126581060.1074   98634602.9404
      3520.507        2743.246
  24673515.18845                                 129660204.3344
     -3329.958
  23081924.96047  23081925.59642  23081929.69042 121296366.9844   94516681.7434
     -3746.144       -2919.062
  22951431.08847  22951431.10242  22951432.93142 120610590.1164   93982313.9504
     -1562.815       -1217.800
  24754317.02145  24754316.16441  24754320.05541 130084832.0664  101364804.5924
      3479.046        2710.918
  24531332.12146  24531327.58641  24531337.87141 128913016.3354  100451715.8824
      -233.618        -182.072
  22646712.67647  22646711.50342  22646716.44642 119009274.2444   92734529.3194
      2199.760        1714.090
  24853591.83845  24853586.85241  24853590.51941 130606543.3904  101771315.1884
      3269.497        2547.662
  21089009.64248  21089009.84344  21089013.30544 110823507.4874   86356003.2294
      2347.380        1829.113
  21251666.82547  21251668.73247  21251674.35544 113682105.5774   88419455.7664
     -3435.358       -2671.930
 04  5  5  1 39  0.0000000  0 12G 4G 5G 6G 7G 9G14G17G20G24G25G30R24
  22320635.00047  22320634.02143  22320639.42143 117295768.6104   91399294.9774
      -261.279        -203.599
  20250487.15448  20250486.15245  20250489.89245 106417082.1114   82922410.1514
      -507.476        -395.437
  24067491.34946  24067489.48441  24067496.04641 126475523.7154   98552366.8694
      3514.907        2738.875
  24692536.35345                                 129760162.6344
     -3334.182
  23103335.15947  23103334.09142  23103338.22542 121408871.0054   94604347.1744
     -3754.440       -2925.538
  22960406.69847  22960407.34442  22960409.31042 120657757.3684   94019067.6504
     -1581.978       -1232.715
  24734463.26245  24734461.89241  24734469.02141 129980506.4164  101283511.9424
      3475.796        2708.406
  24532723.12446  24532724.83741  24532725.38941 128920335.3534  100457419.0984
      -254.561        -198.416
  22634200.00847  22634198.72142  22634203.92942 118943517.6794   92683290.4354
      2183.695        1701.578
  24834944.21345  24834945.10541  24834948.66641 130508551.8364  101694958.0274
      3263.041        2542.663
  21075646.80748  21075646.61244  21075649.98144 110753283.2454   86301283.0284
      2333.928        1818.651
  21270966.81347  21270967.75047  21270972.86644 113785342.9414   88499751.4694
     -3447.438       -2681.338
 04  5  5  1 39 30.0000000  0 12G 4G 5G 6G 7G 9G14G17G20G24G25G30R24
  22322186.34447  22322186.30043  22322190.12143 117303920.8384   91405647.3494
      -282.312        -219.982
  20253430.10148  20253429.23545  20253433.14345 106432548.4864   82934461.8564
      -523.758        -408.120
  24047434.93246  24047434.38241  24047438.71341 126370138.5984   98470248.6064
      3510.514        2735.476
  24711578.59345                                 129860231.5244
     -3337.235
  23124788.01847  23124787.17442  23124791.98542 121521608.3374   94692194.4074
     -3761.534       -2931.068
  22969488.46147  22969489.16042  22969490.79642 120705485.0624   94056258.0674
     -1600.021       -1246.785
  24714627.12645  24714627.09141  24714633.18941 129876269.2044  101202288.2684
      3473.241        2706.380
  24534233.73546  24534231.21841  24534237.08741 128928266.8854  100463599.4764
      -274.334        -213.790
  22621775.54847  22621774.41143  22621780.10143 118878230.4394   92632417.2694
      2168.621        1689.835
  24816333.11346  24816329.53441  24816339.76941 130410741.8364  101618742.5204
      3257.539        2538.345
  21062357.84748  21062357.46044  21062360.40844 110683449.4554   86246867.0954
      2321.499        1808.963
  21290329.99147  21290331.57547  21290336.35044 113888924.5294   88580314.9114
     -3458.201       -2689.710
 04  5  5  1 40  0.0000000  0 12G 4G 5G 6G 7G 9G14G17G20G24G25G30R24
  22323857.24447  22323858.06043  22323861.56143 117312705.4474   91412492.4554
      -302.802        -235.936
  20256466.75848  20256465.62645  20256469.57645 106448505.5334   82946895.9174
      -539.537        -420.416
  24027405.95846  24027406.14141  24027410.26441 126264890.9074   98388237.4784
      3506.533        2732.365
  24730640.58445                                 129960393.6054
     -3339.740
  23146281.63747  23146280.99042  23146285.34842 121634560.8464   94780209.3474
     -3768.099       -2936.183
  22978675.47447  22978675.51042  22978677.63042 120753755.5254   94093871.4014
     -1617.502       -1260.374
  24694805.04145  24694804.42341  24694812.25241 129772107.4194  101121123.2264
      3471.329        2704.961
  24535856.71546  24535854.08841  24535860.81941 128936795.2374  100470244.9664
      -293.701        -228.835
  22609439.34647  22609437.69442  22609443.54743 118813399.0854   92581899.3544
      2153.938        1678.401
  24797752.08946  24797750.84041  24797757.70141 130313099.6414  101542657.6664
      3252.426        2534.339
  21049140.46248  21049140.26144  21049143.35744 110613991.9994   86192744.3954
      2309.490        1799.610
  21309755.98947  21309756.89347  21309760.64444 113992832.2434   88661131.9764
     -3468.427       -2697.663
 04  5  5  1 40 30.0000000  0 12G 4G 5G 6G 7G 9G14G17G20G24G25G30R24
  22325650.60247  22325649.87043  22325653.97543 117322124.2194   91419831.7464
      -325.123        -253.340
  20259596.93748  20259596.05245  20259599.83345 106464954.9584   82959713.6484
      -557.101        -434.112
  24007406.16846  24007405.45141  24007410.24241 126159784.5264   98306336.4464
      3500.574        2727.768
  24749716.04145                                 130060649.1974
     -3343.926
  23167816.90447  23167816.29942  23167820.32141 121747728.1044   94868391.5594
     -3776.362       -2942.632
  22987963.14247  22987963.41642  22987966.32842 120802569.2274   94131908.0504
     -1636.740       -1275.388
  24675000.47345  24674998.27141  24675001.51241 129668025.7744  101040020.6694
      3467.388        2701.865
  24537593.06746  24537593.41541  24537598.29341 128945922.1964  100477356.8804
      -314.765        -245.249
  22597189.42447  22597188.53943  22597193.71843 118749028.2954   92531740.3234
      2137.423        1665.520
  24779203.68545  24779201.75841  24779210.59341 130215629.3504  101466706.8254
      3245.533        2528.965
  21035995.29548  21035995.47244  21035998.41844 110544914.6704   86138917.9114
      2295.629        1788.796
  21329240.71047  21329242.01847  21329246.33644 114097065.5764   88742202.3024
     -3480.459       -2707.023
 04  5  5  1 41  0.0000000  0 12G 4G 5G 6G 7G 9G14G17G20G24G25G30R24
  22327563.01847  22327563.21643  22327566.33143 117332175.2244   91427663.6744
      -345.243        -269.008
  20262820.45348  20262819.38045  20262823.42645 106481894.7304   82972913.4644
      -572.522        -446.123
  23987431.77346  23987430.83841  23987436.63741 126054819.1594   98224545.3054
      3496.797        2724.763
  24768813.26245                                 130160995.0494
     -3346.067
  23189391.36247  23189392.08242  23189395.69742 121861105.9544   94956737.9334
     -3782.422       -2947.325
  22997355.26147  22997355.10942  22997357.28142 120851922.4094   94170365.0594
     -1653.768       -1288.643
  24655209.76245  24655209.02241  24655215.70641 129564025.1344  100958981.2754
      3465.629        2700.457
  24539443.32946  24539442.65541  24539447.04841 128955645.5914  100484933.6224
      -333.702        -260.013
  22585027.48347  22585026.62243  22585031.17343 118685118.3144   92481940.3354
      2122.945        1654.247
  24760688.30545  24760686.68041  24760691.83341 130118331.7594  101390890.5384
      3240.666        2525.190
  21022922.81848  21022922.86344  21022925.22944 110476217.3154   86085387.4944
      2283.868        1779.646
  21348786.03647  21348787.16347  21348791.93244 114201619.8944   88823522.2944
     -3490.133       -2714.557
 04  5  5  1 41 30.0000000  0 12G 4G 5G 6G 7G 9G14G17G20G24G25G30R24
  22329596.77747  22329596.95543  22329600.35843 117342863.9704   91435992.5554
      -367.313        -286.213
  20266138.06948  20266137.54345  20266141.21845 106499330.6564   82986499.8884
      -589.864        -459.625
  23967485.37246  23967486.09441  23967488.66341 125950002.9624   98142870.3754
      3490.965        2720.249
  24787926.39245                                 130261435.8934
     -3349.899
  23211008.23047  23211007.00442  23211011.69842 121974698.2954   95045251.4274
     -3790.355       -2953.556
  23006851.36847  23006850.63942  23006851.60942 120901819.4164   94209245.8434
     -1672.689       -1303.406
  24635437.26345  24635436.56341  24635443.49641 129460114.1284  100878011.6604
      3461.782        2697.483
  24541407.61845  24541411.22741  24541412.36341 128965971.5724  100492979.7754
      -354.606        -276.363
  22572956.22547  22572955.68443  22572959.12943 118621677.5504   92432505.9824
      2106.450        1641.390
  24742207.91946  24742206.22941  24742210.37041 130021215.2334  101315215.2214
      3233.775        2519.844
  21009924.08948  21009924.01744  21009926.95644 110407907.9314   86032159.4034
      2270.105        1768.919
  21368391.09347  21368392.11147  21368396.93244 114306497.2284   88905093.5114
     -3501.615       -2723.465
 04  5  5  1 42  0.0000000  0 12G 4G 5G 6G 7G 9G14G17G20G24G25G30R24
  22331751.66747  22331752.35143  22331756.08243 117354189.5034   91444817.6174
      -387.840        -302.220
  20269550.51548  20269549.70545  20269553.66145 106517261.8094   83000472.1984
      -605.643        -471.934
  23947569.86846  23947566.30641  23947573.81441 125845336.2814   98061311.9774
      3486.721        2716.898
  24807056.66445                                 130361968.9134
     -3352.301
  23232663.86447  23232662.70842  23232667.17742 122088501.6964   95133929.3844
     -3796.633       -2958.429
  23016448.75747  23016447.92842  23016450.37042 120952256.9004   94248547.7704
     -1689.940       -1316.851
  24615680.92146  24615678.87241  24615684.03041 129356294.5584  100797113.2884
      3459.369        2695.666
  24543487.77646  24543485.77941  24543493.87641 128976898.6444  100501494.2854
      -373.911        -291.329
  22560972.02247  22560971.96443  22560975.88343 118558707.2094   92383438.2034
      2091.427        1629.641
  24723761.29845  24723762.56041  24723765.09941 129924280.6564  101239681.7204
      3228.395        2515.680
  20996999.41948  20996998.92944  20997002.09444 110339987.0864   85979234.0674
      2257.842        1759.350
  21388057.81647  21388058.23647  21388062.98944 114411694.4234   88986913.5114
     -3511.556       -2731.217
 04  5  5  1 42 30.0000000  0 12G 4G 5G 6G 7G 9G14G17G20G24G25G30R24
  22334025.79747  22334026.75543  22334029.92143 117366141.7794   91454131.0574
      -408.779        -318.533
  20273054.90148  20273054.14345  20273058.04345 106535678.1824   83014822.6154
      -621.880        -484.582
  23927678.14246  23927678.88241  23927682.95241 125740811.6134   97979864.2554
      3481.834        2713.102
  24826203.85445                                 130462583.0134
     -3355.133
  23254357.66947  23254357.05442  23254361.55542 122202504.3594   95222762.5884
     -3803.349       -2963.639
  23026147.37247  23026147.55442  23026149.61842 121003223.6704   94288262.1014
     -1707.629       -1330.631
  24595940.00645  24595938.69741  24595944.94041 129252559.5204  100716280.8294
      3456.436        2693.292
  24545679.00646  24545681.76641  24545684.06541 128988417.3764  100510470.0064
      -393.703        -306.737
  22549078.06347  22549077.45643  22549082.12743 118496200.3244   92334731.5334
      2075.879        1617.568
  24705349.82346  24705350.59841  24705355.27241 129827521.1084  101164284.6214
      3222.504        2510.999
  20984146.37348  20984146.43844  20984149.32844 110272446.9644   85926605.3984
      2245.048        1749.389
  21407779.46147  21407781.09647  21407786.19944 114517198.4194   89068972.1314
     -3521.819       -2739.188
 04  5  5  1 43  0.0000000  0 12G 4G 5G 6G 7G 9G14G17G20G24G25G30R24
  22336423.95047  22336422.99743  22336427.48343 117378737.0034   91463945.5104
      -430.402        -335.379
  20276655.33548  20276654.30345  20276657.96045 106554596.3304   83029564.0254
      -638.817        -497.775
  23907819.28146  23907817.35141  23907822.70541 125636447.2194   97898541.3654
      3476.245        2708.796
  24845367.63645                                 130563293.2614
     -3358.468
  23276092.55747  23276092.63342  23276096.15042 122316720.4154   95311762.0954
     -3810.569       -2969.262
  23035949.30447  23035949.12542  23035951.30442 121054734.3234   94328400.2874
     -1725.958       -1344.927
  24576220.48746  24576220.40141  24576224.23241 129148928.2104  100635529.2704
      3452.688        2690.356
  24547987.07346  24547982.23141  24547993.22641 129000543.3014  100519918.7554
      -414.135        -322.716
  22537275.42447  22537273.81043  22537278.55843 118434175.4634   92286400.4784
      2059.582        1604.885
  24686974.34446  24686973.47641  24686979.27841 129730955.2784  101089038.5024
      3215.765        2505.844
  20971370.09948  20971369.95744  20971373.05644 110205305.9284   85874287.7114
      2231.513        1738.846
  21427562.53347  21427564.65247  21427568.55144 114623024.3094   89151281.1174
     -3532.592       -2747.567
 04  5  5  1 43 30.0000000  0 12G 4G 5G 6G 7G 9G14G17G20G24G25G30R24
  22338942.53747  22338942.01643  22338946.00843 117391972.0524   91474258.5224
      -451.631        -351.930
  20280349.76648  20280348.96545  20280352.88245 106574012.6064   83044693.5884
      -655.307        -510.628
  23887988.28846  23887989.48341  23887992.34341 125532241.8924   97817342.4394
      3471.095        2704.740
  24864550.61545                                 130664095.2944
     -3361.404
  23297867.09347  23297866.44842  23297870.46842 122431144.5924   95400923.7524
     -3817.357       -2974.551
  23045855.26547  23045854.72542  23045856.43542 121106783.8594   94368958.3184
     -1743.754       -1358.737
  24556520.28646  24556519.44041  24556523.66641 129045400.5394  100554858.3544
      3449.380        2687.823
  24550409.28145  24550408.97641  24550415.36541 129013273.5364  100529838.3584
      -434.146        -338.291
  22525563.43547  22525562.97943  22525567.65243 118372631.8854   92238444.4874
      2043.608        1592.395
  24668634.85546  24668635.25041  24668636.25941 129634582.5284  101013942.8364
      3209.392        2500.859
  20958669.20748  20958668.86244  20958672.46444 110138562.5994   85822279.9194
      2218.346        1728.581
  21447405.48247  21447407.34247  21447411.14244 114729165.2174   89233835.1194
     -3543.026       -2755.690
 04  5  5  1 44  0.0000000  0 12G 4G 5G 6G 7G 9G14G17G20G24G25G30R24
  22341582.01847  22341581.99143  22341583.91943 117405843.2694   91485067.2374
      -472.914        -368.475
  20284138.92248  20284138.09045  20284141.83545 106593923.9324   83060208.8964
      -671.907        -523.559
  23868188.36146  23868190.68541  23868193.12041 125428194.4754   97736266.5574
      3465.698        2700.530
  24883748.48245                                 130764984.6854
     -3364.365
  23319679.47047  23319680.05642  23319682.77342 122545771.7454   95490243.5934
     -3824.205       -2979.872
  23055860.74047  23055860.41742  23055862.14042 121159367.5464   94409932.6394
     -1761.588       -1372.683
  24536839.04246  24536838.61441  24536840.96941 128941976.0964  100474267.9274
      3445.792        2685.065
  24552946.66345  24552945.60141  24552950.38741 129026604.9974  100540226.4994
      -454.302        -353.996
  22513943.92047  22513943.04243  22513947.74143 118311569.0944   92190863.0814
      2027.409        1579.804
  24650331.99546  24650328.50741  24650335.14441 129538402.7104  100938997.5594
      3202.866        2495.765
  20946043.86248  20946043.88744  20946047.13544 110072215.8254   85770581.1364
      2204.989        1718.174
  21467303.69647  21467305.77247  21467310.84744 114835615.4484   89316629.7094
     -3553.369       -2763.718
 04  5  5  1 44 30.0000000  0 12G 4G 5G 6G 7G 9G14G17G20G24G25G30R24
  22344340.66447  22344340.66143  22344344.57743 117420342.9484   91496365.6794
      -493.632        -384.662
  20288020.43449  20288019.82945  20288023.41845 106614322.5594   83076103.9224
      -687.892        -536.017
  23848418.69946  23848416.81841  23848420.89641 125324299.0504   97655309.1024
      3460.765        2696.704
  24902962.42745                                 130865952.1754
     -3366.723
  23341528.26847  23341528.24942  23341533.04742 122660591.9084   95579713.8264
     -3830.369       -2984.685
  23065966.85646  23065965.53742  23065968.90042 121212475.5164   94451315.4094
     -1778.763       -1386.042
  24517175.08446  24517175.22741  24517179.36841 128838649.6644  100393753.8754
      3442.753        2682.691
  24555595.29846  24555594.93141  24555597.28641 129040529.5734  100551076.9214
      -473.875        -369.233
  22502414.02147  22502413.35743  22502418.90743 118250981.6674   92143652.0954
      2011.812        1567.645
  24632063.95745  24632066.61941  24632068.27541 129442410.1524  100864198.1134
      3196.825        2491.058
  20933493.09448  20933492.95144  20933495.85544 110006259.5804   85719186.6554
      2192.191        1708.205
  21487260.26247  21487261.36347  21487265.13144 114942364.2564   89399656.5134
     -3563.111       -2771.296
 04  5  5  1 45  0.0000000  0 12G 4G 5G 6G 7G 9G14G17G20G24G25G30R24
  22347219.78147  22347220.53443  22347223.98043 117435472.2774   91508154.7274
      -515.229        -401.487
  20291995.44748  20291994.41545  20291998.50845 106635209.8774   83092379.7424
      -704.813        -549.201
  23828676.08646  23828675.65841  23828680.21341 125220559.3084   97574472.9884
      3454.957        2692.224
  24922192.88845                                 130966998.1014
     -3369.932
  23363414.77147  23363414.63042  23363418.62242 122775604.3224   95669333.8604
     -3837.381       -2990.177
  23076172.68347  23076171.60942  23076173.92142 121266107.8224   94493106.8274
     -1796.895       -1400.176
  24497532.65546  24497533.19041  24497537.78641 128735426.3044  100313320.1334
      3438.583        2679.444
  24558358.10045  24558358.31341  24558365.22141 129055049.0724  100562391.1094
      -494.357        -385.157
  22490975.34647  22490975.02843  22490980.77943 118190873.5834   92096814.6464
      1995.137        1554.648
  24613834.08046  24613834.72441  24613837.92741 129346608.9194  100789547.9014
      3189.771        2485.590
  20921016.78448  20921016.84944  20921019.86644 109940697.5574   85668099.3614
      2178.376        1697.440
  21507272.11547  21507272.27747  21507278.27844 115049411.3944   89482915.3654
     -3573.560       -2779.428
 04  5  5  1 45 30.0000000  0 12G 4G 5G 6G 7G 9G14G17G20G24G25G30R24
  22350220.31447  22350220.44243  22350224.29443 117451238.3604   91520439.9554
      -536.248        -417.842
  20296064.72548  20296063.48545  20296067.20545 106656592.9514   83109041.8694
      -721.122        -561.903
  23808967.74746  23808967.12341  23808972.75441 125116984.3234   97493765.2844
      3449.640        2688.065
  24941433.44245                                 131068128.3254
     -3372.482
  23385339.30847  23385338.69642  23385342.65342 122890814.1054   95759107.7124
     -3843.701       -2995.083
  23086478.97247  23086477.90042  23086481.20642 121320269.8394   94535310.9344
     -1814.270       -1413.729
  24477912.00746  24477909.47741  24477916.73841 128632315.6664  100232974.1704
      3435.041        2676.672
  24561236.25246  24561235.59941  24561240.58441 129070169.6124  100574173.5004
      -514.122        -400.631
  22479630.97947  22479630.78843  22479635.20143 118131254.4794   92050358.2034
      1979.027        1542.079
  24595643.07746  24595641.88941  24595648.04641 129251008.6104  100715054.1824
      3183.166        2480.372
  20908617.56348  20908617.45544  20908620.49544 109875538.9584   85617326.4364
      2165.133        1687.127
  21527340.22747  21527340.56247  21527344.64244 115156760.7234   89566409.2714
     -3583.437       -2787.121
 04  5  5  1 46  0.0000000  0 12G 4G 5G 6G 7G 9G14G17G20G24G25G30R24
  22353340.51647  22353339.53443  22353344.32943 117467633.5444   91533215.4094
      -556.933        -433.969
  20300226.57948  20300225.59045  20300229.52245 106678464.9484   83126084.9794
      -737.166        -574.413
  23789286.69346  23789288.20341  23789291.36341 125013568.7814   97413181.7524
      3444.501        2684.044
  24960693.74945                                 131169334.4094
     -3374.739
  23407298.95847  23407298.45042  23407302.90342 123006212.0834   95849028.1994
     -3849.672       -2999.762
  23096886.17147  23096885.48842  23096887.13442 121374952.4654   94577920.7794
     -1831.366       -1427.071
  24458309.87746  24458309.04741  24458316.54741 128529313.7944  100152713.0094
      3431.562        2673.969
  24564226.00445  24564224.81841  24564229.34241 129085883.9944  100586418.3954
      -533.627        -415.841
  22468377.62347  22468376.71043  22468382.26443 118072119.5484   92004279.0504
      1963.112        1529.676
  24577488.25746  24577485.70641  24577491.76641 129155604.4984  100640713.3274
      3176.963        2475.583
  20896294.41348  20896294.06444  20896296.97144 109810778.3014   85566863.5874
      2152.069        1676.944
  21547462.32147  21547463.61947  21547467.63244 115264403.1654   89650131.1204
     -3592.912       -2794.489
 04  5  5  1 46 30.0000000  0 12G 4G 5G 6G 7G 9G14G17G20G24G25G30R24
  22356580.27847  22356579.89243  22356584.68143 117484660.3144   91546482.9824
      -578.492        -450.780
  20304482.00048  20304481.22945  20304484.85345 106700828.2784   83143510.9364
      -754.065        -587.579
  23769639.59346  23769639.24941  23769643.61441 124910317.3604   97332726.1304
      3438.562        2679.362
  24979966.33945                                 131270617.7174
     -3377.829
  23429293.73447  23429293.07742  23429297.90442 123121798.8404   95939095.7654
     -3856.445       -3004.996
  23107389.33246  23107388.85942  23107392.49742 121430156.4174   94620936.8184
     -1849.215       -1440.965
  24438731.26546  24438732.93441  24438735.26241 128426426.1684  100072540.8424
      3427.195        2670.527
  24567329.40145  24567329.04741  24567333.24241 129102194.8114  100599128.0434
      -554.064        -431.732
  22457218.26147  22457217.53143  22457221.74943 118013474.0154   91958581.2384
      1946.242        1516.545
  24559372.60446  24559366.76241  24559375.70241 129060402.2614  100566529.7994
      3169.562        2469.788
  20884047.33348  20884046.83244  20884050.05244 109746420.1104   85516714.3474
      2138.110        1666.057
  21567640.20347  21567641.12547  21567645.71944 115372338.6484   89734080.9164
     -3603.128       -2802.434
 04  5  5  1 47  0.0000000  0 12G 4G 5G 6G 7G 9G14G17G20G24G25G30R24
  22359941.08847  22359940.03643  22359944.08343 117502318.0554   91560242.2224
      -599.377        -467.046
  20308831.14448  20308830.30345  20308834.02045 106723682.2424   83161319.2094
      -770.229        -600.173
  23750024.05946  23750023.31141  23750026.44941 124807231.9194   97252399.8454
      3433.143        2675.173
  24999255.71445                                 131371976.5624
     -3380.170
  23451325.04746  23451324.10442  23451329.97842 123237572.0154   96029308.6104
     -3862.398       -3009.699
  23117995.05247  23117994.22641  23117995.20341 121485879.6464   94664357.4754
     -1866.358       -1454.304
  24419175.50746  24419175.35541  24419179.30041 128323655.2874   99992459.6364
      3423.447        2667.662
  24570547.95446  24570544.21441  24570550.68841 129119101.6554  100612302.2324
      -573.756        -447.052
  22446151.00247  22446150.44743  22446155.64243 117955319.5264   91913266.0424
      1930.002        1503.910
  24541293.64546  24541293.60241  24541298.94341 128965404.1494  100492505.2824
      3162.851        2464.575
  20871876.63348  20871876.82844  20871880.01044 109682466.2684   85466880.1814
      2124.766        1655.657
  21587870.22247  21587871.87747  21587876.27744 115480564.0364   89818256.1854
     -3612.638       -2809.831
 04  5  5  1 47 30.0000000  0 12G 4G 5G 6G 7G 9G14G17G20G24G25G30R24
  22363419.92347  22363419.45543  22363423.53843 117520602.7964   91574490.0664
      -619.674        -482.852
  20313272.92948  20313271.92045  20313275.92845 106747023.5964   83179507.2764
      -785.898        -612.394
  23730438.16246  23730437.97741  23730441.53141 124704310.9024   97172201.6844
      3428.202        2671.296
  25018556.78545                                 131473406.5234
     -3381.886
  23473390.31546  23473388.85642  23473396.11342 123353526.3374   96119662.6084
     -3867.878       -3013.949
  23128695.77847  23128694.82942  23128698.72942 121542116.8464   94708178.6704
     -1882.875       -1467.167
  24399641.57346  24399639.78841  24399643.50541 128221000.8764   99912469.1944
      3420.108        2665.065
  24573876.93146  24573881.25341  24573880.43441 129136600.5644  100625937.8314
      -592.892        -462.026
  22435178.42347  22435177.93143  22435183.11943 117897655.3144   91868332.9244
      1914.226        1491.604
  24523256.33046  24523255.24341  24523261.28641 128870609.1424  100418639.1364
      3156.705        2459.768
  20859783.78148  20859783.29544  20859786.24444 109618915.0934   85417359.7924
      2111.927        1645.663
  21608156.18347  21608156.75347  21608161.87444 115589072.9934   89902652.0134
     -3621.420       -2816.662
 04  5  5  1 48  0.0000000  0 12G 4G 5G 6G 7G 9G14G17G20G24G25G30R24
  22367019.43147  22367018.60543  22367022.57243 117539518.7584   91589229.7544
      -640.622        -499.194
  20317808.08348  20317807.28545  20317811.15345 106770856.2904   83198078.2014
      -802.201        -625.098
  23710885.75646  23710884.60341  23710890.02741 124601560.2964   97092136.3284
      3422.554        2666.939
  25037873.49545                                 131574910.5554
     -3384.201
  23495489.42046  23495490.42242  23495494.08442 123469663.6134   96210159.1524
     -3873.837       -3018.562
  23139494.25247  23139494.60541  23139497.13142 121598870.2604   94752402.0794
     -1899.987       -1480.534
  24380129.62145  24380128.21141  24380134.95741 128118469.9194   99832574.9804
      3416.017        2661.805
  24577322.01545  24577322.56641  24577321.66341 129154695.5754  100640037.9784
      -612.696        -477.462
  22424299.84347  22424298.88943  22424303.68443 117840487.8754   91823786.8754
      1897.676        1478.696
  24505254.88746  24505253.49541  24505262.06041 128776023.9394  100344936.4384
      3149.733        2454.319
  20847768.38548  20847767.91044  20847770.91244 109555772.6144   85368157.8684
      2098.332        1635.060
  21628494.52347  21628495.67547  21628498.63544 115697867.3634   89987269.8194
     -3630.851       -2823.999
 04  5  5  1 48 30.0000000  0 12G 4G 5G 6G 7G 9G14G17G20G24G25G30R24
  22370740.18447  22370739.71543  22370742.73443 117559067.8474   91604462.7754
      -662.272        -516.038
  20322437.19548  20322436.41245  20322439.99245 106795182.9894   83217034.0604
      -819.232        -638.359
  23691366.77646  23691365.27241  23691368.99241 124498984.8624   97012207.4544
      3416.118        2661.891
  25057203.04045                                 131676489.8354
     -3387.333
  23517627.21447  23517625.58042  23517631.67242 123585984.2694   96300798.5784
     -3880.468       -3023.695
  23150393.19046  23150393.93242  23150398.12142 121656140.4024   94797028.1234
     -1917.716       -1494.316
  24360643.06146  24360643.46441  24360648.21641 128016067.6554   99752781.0534
      3411.135        2658.043
  24580877.32646  24580879.55141  24580881.98541 129173388.7124  100654604.0844
      -633.162        -493.392
  22413515.86447  22413515.80243  22413520.27643 117783821.9984   91779631.6404
      1880.370        1465.251
  24487297.52546  24487297.17041  24487302.86241 128681653.5794  100271401.1414
      3141.899        2448.224
  20835831.09348  20835831.11144  20835834.18844 109493043.3504   85319277.9204
      2083.971        1623.869
  21648885.44947  21648886.78647  21648891.38044 115806947.0904   90072109.5504
     -3640.835       -2831.762
 04  5  5  1 49  0.0000000  0 12G 4G 5G 6G 7G 9G14G17G20G24G25G30R24
  22374578.64447  22374577.66743  22374582.05443 117579238.5654   91620180.2094
      -682.938        -532.170
  20327158.52848  20327157.64645  20327161.16745 106819992.5984   83236366.2104
      -835.255        -650.849
  23671876.69846  23671878.35441  23671881.54141 124396575.3574   96932407.8754
      3410.686        2657.678
  25076543.56645                                 131778131.9084
     -3389.360
  23539793.93846  23539791.77941  23539795.72741 123702475.2084   96391570.7364
     -3886.062       -3028.112
  23161387.49847  23161386.60942  23161390.76042 121713914.5104   94842046.8474
     -1934.428       -1507.362
  24341179.93146  24341178.74041  24341183.35341 127913786.3284   99673081.3024
      3407.074        2654.854
  24584546.52846  24584547.35641  24584551.71741 129192668.4994  100669627.1964
      -652.602        -508.485
  22402827.59447  22402827.31443  22402831.18443 117727649.0984   91735860.5764
      1863.944        1452.417
  24469378.04446  24469375.41641  24469382.42441 128587489.5734  100198026.6464
      3135.148        2442.975
  20823970.83848  20823970.65544  20823973.62944 109430718.2334   85270712.8944
      2070.521        1613.394
  21669326.21647  21669328.11247  21669333.03344 115916298.9294   90157160.9564
     -3649.823       -2838.756
 04  5  5  1 49 30.0000000  0 12G 4G 5G 6G 7G 9G14G17G20G24G25G30R24
  22378536.97547  22378536.85143  22378539.99143 117600043.9494   91636392.1664
      -704.086        -548.649
  20331973.81248  20331972.80445  20331976.86945 106845297.9364   83256084.6384
      -851.764        -663.714
  23652425.69046  23652423.54341  23652427.84541 124294347.0264   96852749.4304
      3404.594        2652.948
  25095900.48545                                 131879848.9444
     -3391.852
  23561995.12346  23561994.27742  23562000.70942 123819147.5104   96482484.1774
     -3892.089       -3032.772
  23172479.45147  23172478.91242  23172482.58242 121772203.7614   94887466.9964
     -1951.545       -1520.678
  24321742.19646  24321743.99741  24321745.10241 127811642.0104   99593488.4134
      3402.490        2651.223
  24588329.64246  24588327.87641  24588331.35441 129212547.9234  100685117.5304
      -672.648        -524.122
  22392234.35047  22392234.20243  22392239.23543 117671984.5924   91692485.6234
      1847.003        1439.215
  24451502.28446  24451499.59141  24451503.81441 128493547.8164  100124825.3234
      3127.683        2437.159
  20812190.73748  20812190.80844  20812193.76045 109368812.2974   85222474.4994
      2056.543        1602.502
  21689820.44247  21689822.69447  21689828.16444 116025933.4434   90242432.2044
     -3659.116       -2845.972
 04  5  5  1 50  0.0000000  0 12G 4G 5G 6G 7G 9G14G17G20G24G25G30R24
  22382617.09147  22382615.94143  22382619.65743 117621480.8694   91653096.2064
      -724.954        -564.888
  20336883.18148  20336882.09045  20336886.22845 106871096.2384   83276187.2004
      -868.039        -676.390
  23633005.73546  23633004.36341  23633009.52941 124192299.4534   96773231.8694
      3398.687        2648.337
  25115268.92845                                 131981637.3884
     -3393.975
  23584230.25446  23584228.29141  23584233.60541 123935996.7494   96573535.5474
     -3897.790       -3037.254
  23183668.31247  23183667.97241  23183673.01742 121831003.9274   94933285.3124
     -1968.382       -1533.834
  24302331.06546  24302331.37541  24302334.51841 127709635.1574   99514002.5874
      3397.998        2647.805
  24592226.29945  24592223.40341  24592227.85141 129233024.4044  100701073.3014
      -692.310        -539.430
  22381738.84947  22381738.22143  22381743.04043 117616828.4594   91649506.8354
      1830.146        1426.093
  24433667.69346  24433671.17241  24433670.58841 128399828.5224  100051797.4224
      3120.396        2431.466
  20800489.79748  20800489.94344  20800492.88145 109307324.9114   85174562.2484
      2042.677        1591.697
  21710370.70647  21710371.56347  21710375.32944 116135846.0584   90327919.7504
     -3668.219       -2853.064
 04  5  5  1 50 30.0000000  0 12G 4G 5G 6G 7G 9G14G17G20G24G25G30R24
  22386815.13947  22386814.73043  22386817.95143 117643541.7514   91670286.5104
      -745.872        -581.226
  20341885.15548  20341883.97845  20341888.10745 106897380.5624   83296668.4754
      -884.323        -689.080
  23613620.53146  23613619.33741  23613624.05841 124090427.4234   96693851.1224
      3392.698        2643.672
  25134651.19545                                 132083488.7914
     -3396.182
  23606498.08846  23606497.00741  23606504.13441 124053013.6204   96664717.4804
     -3903.409       -3041.639
  23194953.64946  23194953.08841  23194957.49442 121890305.8394   94979494.5264
     -1985.127       -1546.869
  24282944.79446  24282945.14241  24282950.79341 127607761.4974   99434620.5434
      3393.473        2644.255
  24596236.21146  24596233.50741  24596241.48341 129254090.0854  100717488.0644
      -712.047        -554.763
  22371338.57547  22371338.15643  22371343.01943 117562175.9014   91606920.4354
      1813.258        1412.914
  24415875.06846  24415875.61841  24415880.29541 128306326.9594   99978939.0924
      3112.989        2425.716
  20788867.93248  20788868.02844  20788871.02745 109246250.9754   85126972.1564
      2028.803        1580.887
  21730965.90847  21730967.61647  21730973.23544 116246026.1894   90413615.3654
     -3677.156       -2860.012
 04  5  5  1 51  0.0000000  0 12G 4G 5G 6G 7G 9G14G17G20G24G25G30R24
  22391130.88647  22391130.69643  22391134.24843 117666220.9364   91687958.5734
      -766.654        -597.385
  20346977.75348  20346977.07945  20346980.97945 106924145.1514   83317523.9854
      -900.547        -701.725
  23594266.43846  23594267.41941  23594270.85641 123988727.7264   96614604.6444
      3386.762        2639.042
  25154044.39745                                 132185396.5264
     -3398.282
  23628796.13646  23628796.38841  23628801.86441 124170190.8104   96756024.3644
     -3908.955       -3045.947
  23206331.87847  23206332.05441  23206334.43041 121950102.1404   95026089.0564
     -2001.828       -1559.880
  24263585.53246  24263582.95141  24263588.21141 127506018.7244   99355340.4914
      3388.825        2640.663
  24600353.67246  24600356.38441  24600354.67241 129275739.1254  100734357.4284
      -731.732        -570.188
  22361034.39847  22361033.30843  22361038.41043 117508023.5814   91564723.8214
      1796.312        1399.723
  24398124.10945  24398123.93841  24398124.00941 128213040.3324   99906248.2544
      3105.560        2419.911
  20777324.28848  20777323.93544  20777327.02945 109185587.0384   85079701.5694
      2014.889        1570.036
  21751611.24747  21751613.82247  21751617.52644 116356466.4684   90499513.3234
     -3686.019       -2866.915
 04  5  5  1 51 30.0000000  0 12G 4G 5G 6G 7G 9G14G17G20G24G25G30R24
  22395565.61547  22395565.84943  22395568.94343 117689529.9404   91706121.4314
      -787.060        -613.320
  20352164.90148  20352163.85545  20352167.66845 106951402.2144   83338763.2434
      -916.358        -714.056
  23574949.76346  23574948.96741  23574953.87841 123887214.4514   96535503.4054
      3381.040        2634.577
  25173449.21245                                 132287371.6184
     -3399.807
  23651127.40446  23651125.37641  23651130.31141 124287538.4954   96847464.0924
     -3913.991       -3049.844
  23217807.54647  23217807.74442  23217810.31442 122010403.0554   95073076.7774
     -2018.002       -1572.461
  24244249.23446  24244249.06841  24244253.19641 127404421.8344   99276174.0914
      3384.580        2637.309
  24604587.85046  24604583.71341  24604588.96541 129297983.3874  100751690.6254
      -750.945        -585.129
  22350826.47347  22350825.71843  22350831.45543 117454386.0564   91522928.3644
      1779.736        1386.792
  24380414.65546  24380411.86141  24380420.21641 128119983.3174   99833736.3374
      3098.402        2414.334
  20765860.62148  20765860.89844  20765863.72145 109125347.2164   85032761.4414
      2001.312        1559.466
  21772306.89647  21772309.33047  21772314.19444 116467176.6924   90585621.2394
     -3694.320       -2873.362
 04  5  5  1 52  0.0000000  0 12G 4G 5G 6G 7G 9G14G17G20G24G25G30R24
  22400121.12847  22400121.92943  22400125.83743 117713472.9974   91724778.3404
      -809.192        -630.543
  20357446.36348  20357445.46845  20357449.28645 106979156.2324   83360389.7464
      -933.965        -727.773
  23555669.16146  23555669.47241  23555672.20841 123785894.0694   96456552.5044
      3373.542        2628.750
  25192868.03545                                 132389417.5304
     -3403.178
  23673490.71446  23673490.61641  23673493.84241 124405059.2304   96939038.6774
     -3920.797       -3055.163
  23229378.35747  23229377.56141  23229379.83741 122071211.1394   95120459.7144
     -2035.922       -1586.449
  24224947.72546  24224946.55841  24224951.23241 127302978.9584   99197127.7714
      3378.304        2632.445
  24608934.16745  24608932.68141  24608939.93941 129320826.7204  100769490.4654
      -771.976        -601.584
  22340719.49547  22340718.37143  22340723.55143 117401270.2824   91481539.4524
      1761.264        1372.407
  24362751.09946  24362751.91641  24362756.85441 128027163.4884   99761409.2674
      3089.485        2407.338
  20754479.34748  20754479.43744  20754482.52345 109065537.9254   84986156.7994
      1985.882        1547.429
  21793055.83347  21793056.33947  21793061.60744 116578159.5534   90671941.1834
     -3704.531       -2881.310
 04  5  5  1 52 30.0000000  0 12G 4G 5G 6G 7G 9G14G17G20G24G25G30R24
  22404796.94747  22404796.85143  22404801.36643 117738040.3114   91743921.6654
      -828.698        -645.729
  20362820.70648  20362819.56045  20362823.61745 107007398.0694   83382396.3504
      -948.903        -739.389
  23536423.34546  23536423.46841  23536427.45041 123684759.7314   96377746.5584
      3368.640        2624.930
  25212300.17145                                 132491524.4204
     -3403.945
  23695885.75446  23695884.10141  23695890.76841 124522742.0724   97030739.5624
     -3924.851       -3058.284
  23241045.18547  23241044.09741  23241046.96541 122132515.7274   95168229.4974
     -2051.137       -1598.261
  24205671.07546  24205670.92341  24205675.92941 127201683.3274   99118196.1234
      3374.636        2629.610
  24613392.78945  24613392.33641  24613393.00241 129344260.0654  100787750.3274
      -790.307        -615.820
  22330708.86647  22330709.17943  22330713.88943 117348669.6744   91440551.9564
      1745.351        1360.032
  24345132.26546  24345131.46641  24345136.21141 127934574.4904   99689262.0644
      3083.046        2402.365
  20743178.92248  20743178.64744  20743182.11745 109006152.1754   84939882.1814
      1973.057        1537.468
  21813850.33947  21813851.13946  21813857.02444 116689402.6274   90758463.5364
     -3711.805       -2886.950
 04  5  5  1 53  0.0000000  0 12G 4G 5G 6G 7G 9G14G17G20G24G25G30R24
  22409587.50547  22409587.65543  22409591.31143 117763214.4424   91763537.8304
      -849.198        -661.688
  20368284.41748  20368283.38145  20368287.16545 107036110.2144   83404769.4334
      -964.873        -751.844
  23517211.78446  23517209.68242  23517214.19242 123583796.2374   96299073.7254
      3362.625        2620.225
  25231737.64345                                 132593673.5734
     -3405.609
  23718305.90246  23718306.11541  23718311.18241 124640567.4744   97122551.5394
     -3929.844       -3062.182
  23252801.07746  23252801.16042  23252803.01141 122194297.1144   95216370.7944
     -2067.281       -1610.844
  24186420.19946  24186420.98941  24186424.25341 127100521.1894   99039368.5164
      3369.829        2625.881
  24617960.99045  24617962.14541  24617967.47841 129368265.4584  100806455.8234
      -809.693        -630.925
  22320795.51047  22320794.57143  22320799.18943 117296569.0664   91399954.0964
      1728.372        1346.781
  24327553.57246  24327554.88541  24327560.33341 127842201.4824   99617283.0964
      3075.548        2396.546
  20731955.83748  20731955.53244  20731958.70945 108947174.6844   84893925.6884
      1959.121        1526.598
  21834690.51447  21834692.77247  21834697.49944 116800886.1294   90845172.8874
     -3720.073       -2893.374
 04  5  5  1 53 30.0000000  0 12G 4G 5G 6G 7G 9G14G17G20G24G25G30R24
  22414498.30847  22414496.24443  22414500.87643 117789012.9904   91783640.5874
      -870.876        -678.637
  20373841.30748  20373839.94945  20373844.22845 107065310.7894   83427523.1164
      -982.050        -765.228
  23498035.80046  23498033.57742  23498037.00242 123483023.8844   96220549.8734
      3355.337        2614.509
  25251187.46945                                 132695882.2234
     -3408.475
  23740758.28746  23740758.81441  23740761.69141 124758551.8454   97214487.4154
     -3935.938       -3066.939
  23264651.68946  23264652.34542  23264655.38642 122256571.8624   95264896.5494
     -2084.606       -1624.361
  24167200.45246  24167198.40641  24167204.46441 126999513.8054   98960661.5304
      3363.730        2621.106
  24622640.89645  24622645.26741  24622644.35741 129392860.8894  100825621.0904
      -830.261        -646.994
  22310979.56747  22310979.53443  22310984.27543 117244988.8124   91359761.6804
      1710.080        1332.552
  24310021.09146  24310021.10141  24310024.43641 127750065.5184   99545488.9114
      3066.667        2389.598
  20720813.91548  20720814.22645  20720817.40545 108888625.6674   84848303.0754
      1943.886        1514.716
  21855580.80947  21855582.36347  21855585.32444 116912625.9734   90932081.6274
     -3729.465       -2900.703
 04  5  5  1 54  0.0000000  0 12G 4G 5G 6G 7G 9G14G17G20G24G25G30R24
  22419526.35747  22419526.67443  22419530.30043 117815443.9414   91804236.0894
      -891.438        -694.625
  20379492.25748  20379491.18745  20379495.24445 107095008.2804   83450664.0104
      -998.057        -777.701
  23478897.08547  23478895.42342  23478901.05242 123382453.2524   96142183.1804
      3349.102        2609.679
  25270650.11645                                 132798158.0804
     -3410.263
  23763240.79046  23763239.71941  23763243.39441 124876702.0674   97306552.4974
     -3940.951       -3070.847
  23276598.48647  23276596.66141  23276600.97041 122319346.6204   95313811.9274
     -2100.661       -1636.879
  24148008.40146  24148009.09841  24148012.94241 126898672.6274   98882084.0164
      3358.685        2617.144
  24627437.36946  24627438.87441  24627440.99741 129418054.2954  100845252.2404
      -849.557        -661.945
  22301265.52747  22301264.80043  22301270.63743 117193939.8004   91319983.2394
      1692.889        1319.103
  24292536.54246  24292535.16941  24292541.48541 127658177.9724   99473888.2524
      3058.865        2383.539
  20709756.63448  20709756.05845  20709759.24745 108830515.5864   84803022.4894
      1929.810        1503.752
  21876519.70847  21876519.51647  21876523.71744 117024629.3904   91019195.3354
     -3737.692       -2907.090
 04  5  5  1 54 30.0000000  0 11G 4G 5G 6G 9G14G17G20G24G25G30R24
  22424674.38347  22424673.54243  22424677.25043 117842493.5324   91825313.6704
      -911.738        -710.454
  20385235.40648  20385234.45745  20385238.26545 107125189.3934   83474181.7584
     -1013.866        -790.028
  23459794.54246  23459794.23342  23459799.27442 123282073.3944   96063965.1134
      3343.021        2604.958
  23785752.95346  23785752.01341  23785757.48941 124995002.9074   97398734.9444
     -3945.608       -3074.483
  23288635.97647  23288636.17641  23288636.98341 122382606.1194   95363105.0324
     -2116.446       -1649.163
  24128848.89646  24128848.59941  24128855.65241 126797987.6054   98803628.1644
      3353.752        2613.258
  24632341.88246  24632343.05541  24632345.93141 129443832.0764  100865338.9534
      -868.770        -676.971
  22291651.10847  22291649.92243  22291655.12543 117143411.2214   91280610.3284
      1675.812        1305.849
  24275095.31946  24275093.55141  24275097.43441 127566528.1944   99402472.8654
      3051.217        2377.557
  20698779.76448  20698779.26845  20698782.83945 108772833.3214   84758075.2614
      1915.807        1492.848
  21897500.65647  21897503.41747  21897507.64444 117136880.5714   91106501.7664
     -3745.571       -2913.213
 04  5  5  1 55  0.0000000  0 11G 4G 5G 6G 9G14G17G20G24G25G30R24
  22429941.10947  22429940.50743  22429945.93543 117870171.4274   91846880.8354
      -933.174        -727.153
  20391072.63248  20391071.74945  20391075.68545 107155864.0924   83498084.1154
     -1030.839        -803.255
  23440731.60146  23440731.79742  23440736.84842 123181896.3574   95985905.1134
      3335.700        2599.240
  23808295.44446  23808295.17341  23808298.75241 125113462.3554   97491041.0274
     -3951.440       -3079.079
  23300766.61546  23300765.56541  23300769.12041 122446358.4084   95412782.1124
     -2133.417       -1662.391
  24109723.22146  24109721.73841  24109726.50541 126697471.9644   98725304.3254
      3347.556        2608.490
  24637359.68145  24637356.99441  24637364.29141 129470203.4414  100885887.8564
      -889.068        -692.767
  22282136.94047  22282135.48243  22282140.93743 117093415.2334   91241652.4194
      1657.516        1291.553
  24257702.29246  24257702.55141  24257705.45841 127475128.9524   99331252.7104
      3042.311        2370.588
  20687887.01648  20687886.65245  20687889.94145 108715590.7754   84713470.6784
      1900.603        1480.988
  21918534.18247  21918535.55646  21918540.69044 117249386.4924   91194006.3354
     -3754.609       -2920.247
 04  5  5  1 55 30.0000000  0 11G 4G 5G 6G 9G14G17G20G24G25G30R24
  22435325.03347  22435324.28543  22435328.99843 117898465.6394   91868928.2214
      -953.308        -742.839
  20397001.68948  20397000.91345  20397004.82045 107187020.8984   83522362.1264
     -1046.481        -815.442
  23421706.86347  23421705.51742  23421709.28942 123081912.8944   95907995.9694
      3329.612        2594.483
  23830865.37246  23830865.71441  23830867.55941 125232067.2494   97583460.3674
     -3955.796       -3082.447
  23312990.06247  23312988.02541  23312991.47341 122510590.3204   95462832.9294
     -2148.929       -1674.486
  24090625.71046  24090623.94841  24090630.34141 126597117.5304   98647106.0844
      3342.521        2604.578
  24642487.57245  24642492.31741  24642491.15141 129497157.5294  100906891.2694
      -908.080        -707.596
  22272722.16147  22272721.60843  22272726.11843 117043942.9554   91203102.5884
      1640.407        1278.254
  24240355.55146  24240354.20741  24240360.45141 127383971.8734   99260221.2854
      3034.628        2364.637
  20677075.64248  20677075.80345  20677078.76145 108658778.7584   84669201.5664
      1886.633        1470.107
  21939611.01547  21939613.05747  21939616.95644 117362133.9454   91281698.7274
     -3762.168       -2926.115
 04  5  5  1 56  0.0000000  0 11G 4G 5G 6G 9G14G17G20G24G25G30R24
  22440826.99747  22440825.88543  22440830.39643 117927374.5444   91891454.6314
      -974.036        -758.966
  20403022.16448  20403021.60545  20403025.09845 107218659.0254   83547015.2034
     -1062.786        -828.139
  23402716.33947  23402715.94742  23402720.46142 122982124.2234   95830238.5864
      3322.843        2589.218
  23853461.35546  23853459.17041  23853466.52041 125350814.7474   97675990.9064
     -3960.791       -3086.336
  23325303.92247  23325302.54341  23325304.55441 122575298.7434   95513255.0874
     -2165.073       -1687.085
  24071559.24146  24071557.79241  24071565.19341 126496926.0864   98569034.8464
      3336.770        2600.075
  24647727.71845  24647728.34941  24647732.18641 129524691.7184  100928346.5974
      -927.615        -722.815
  22263407.70647  22263407.24743  22263411.58043 116994995.6444   91164961.8194
      1622.652        1264.422
  24223056.90846  24223055.99041  24223059.27841 127293058.7104   99189379.8874
      3026.204        2358.078
  20666346.98048  20666347.07845  20666349.95345 108602398.1654   84625268.6334
      1871.995        1458.705
  21960732.76047  21960733.88047  21960739.61144 117475120.1654   91369576.8594
     -3770.266       -2932.419
 04  5  5  1 56 30.0000000  0 11G 4G 5G 6G 9G14G17G20G24G25G30R24
  22446443.83247  22446444.23843  22446448.60343 117956897.8614   91914459.7844
      -994.404        -774.873
  20409134.09248  20409133.45245  20409137.37645 107250778.1374   83572043.0744
     -1078.709        -840.556
  23383765.02947  23383764.50642  23383767.20342 122882532.4494   95752634.6044
      3316.364        2584.198
  23876086.59046  23876084.75341  23876091.33041 125469703.0824   97768631.1284
     -3965.297       -3089.846
  23337707.18346  23337707.09041  23337710.08741 122640482.1164   95564047.2714
     -2180.760       -1699.278
  24052526.03546  24052523.99741  24052533.05341 126396901.5294   98491093.6754
      3331.260        2595.795
  24653079.33945  24653079.66241  24653079.72341 129552805.6684  100950253.5474
      -946.837        -737.863
  22254193.67047  22254193.53243  22254198.62243 116946575.3914   91127231.7744
      1605.137        1250.745
  24205803.88246  24205801.63241  24205806.18841 127202392.1704   99118730.6724
      3018.026        2351.718
  20655700.67948  20655700.42145  20655703.63945 108546451.2364   84581673.6174
      1857.586        1447.468
  21981898.61347  21981899.07146  21981904.28144 117588341.8504   91457638.1124
     -3778.038       -2938.473
 04  5  5  1 57  0.0000000  0 11G 4G 5G 6G 9G14G17G20G24G25G30R24
  22452179.56447  22452179.74543  22452183.04943 117987035.2434   91937943.4374
     -1014.407        -790.443
  20415337.85048  20415336.95045  20415341.22445 107283378.5794   83597445.9974
     -1094.293        -852.700
  23364850.71346  23364850.93942  23364853.43542 122783140.2834   95675186.1784
      3310.130        2579.294
  23898735.80946  23898735.88741  23898741.80141 125588730.6774   97861379.8654
     -3969.475       -3093.094
  23350202.10046  23350200.83041  23350203.82641 122706138.5634   95615208.1304
     -2196.004       -1711.192
  24033522.80246  24033523.59441  24033527.35441 126297046.6554   98413284.6934
      3326.028        2591.672
  24658538.16945  24658532.22641  24658547.48741 129581499.9244  100972612.7524
      -965.721        -752.478
  22245080.97748  22245080.08943  22245085.81443 116898685.2984   91089914.8294
      1587.873        1237.288
  24188598.38946  24188595.57341  24188599.56241 127111975.6764   99048276.2974
      3010.105        2345.496
  20645136.97548  20645137.10145  20645140.40645 108490940.4054   84538418.4194
      1843.484        1436.476
  22003107.21947  22003109.69246  22003115.67443 117701798.3314   91545882.0154
     -3785.432       -2944.221
 04  5  5  1 57 30.0000000  0 11G 4G 5G 6G 9G14G17G20G24G25G30R24
  22458030.70847  22458029.97143  22458033.60143 118017779.2744   91961899.8054
     -1035.361        -806.787
  20421632.12748  20421631.23945  20421634.94745 107316453.5234   83623218.6704
     -1110.858        -865.602
  23345974.20647  23345973.58842  23345979.53642 122683943.0114   95597889.6334
      3302.869        2573.661
  23921411.70846  23921410.56941  23921415.73841 125707888.9724   97954230.4704
     -3974.553       -3097.058
  23362783.28846  23362780.99641  23362786.34841 122772259.5564   95666730.9074
     -2212.238       -1723.839
  24014554.24446  24014551.65441  24014558.77241 126197358.1704   98335605.3944
      3319.624        2586.732
  24664106.10246  24664108.78541  24664111.67541 129610766.4364  100995417.7764
      -985.579        -767.996
  22236067.53747  22236066.68843  22236072.35143 116851320.7244   91053007.3804
      1569.568        1223.033
  24171438.19646  24171438.70441  24171440.90441 127021805.0074   98978013.4834
      3001.093        2338.485
  20634655.97348  20634655.97245  20634658.78845 108435860.9084   84495499.3294
      1828.293        1424.639
  22024359.12346  22024360.85046  22024365.72544 117815480.0884   91634301.1064
     -3793.613       -2950.594
 04  5  5  1 58  0.0000000  0 11G 4G 5G 6G 9G14G17G20G24G25G30R24
  22463998.99847  22463997.09643  22464000.77043 118049140.6444   91986337.1954
     -1055.906        -822.783
  20428018.40248  20428017.44545  20428021.19545 107350013.9824   83649369.6594
     -1127.028        -878.201
  23327138.14447  23327136.85842  23327140.13542 122584953.9104   95520755.2994
      3295.882        2568.223
  23944113.85246  23944112.79541  23944119.58441 125827187.3054   98047190.1854
     -3979.192       -3100.687
  23375456.43546  23375455.15541  23375460.21341 122838854.2014   95718622.8094
     -2227.943       -1736.093
  23995618.22246  23995618.11241  23995622.64741 126097850.7294   98258067.1604
      3313.638        2582.105
  24669786.15045  24669787.58541  24669790.13841 129640616.6434  101018677.8544
     -1004.956        -783.095
  22227157.12347  22227156.75343  22227160.89343 116804494.7494   91016519.5964
      1551.599        1209.036
  24154328.83046  24154328.51741  24154335.99441 126931894.4554   98907953.3074
      2992.426        2331.763
  20624259.13748  20624259.23545  20624262.52045 108381225.8494   84452926.5454
      1813.483        1413.103
  22045656.11047  22045656.89146  22045660.44543 117929396.7834   91722902.9204
     -3801.335       -2956.589
 04  5  5  1 58 30.0000000  0 11G 4G 5G 6G 9G14G17G20G24G25G30R24
  22470082.72947  22470083.40343  22470086.38743 118081116.7854   92011253.6394
     -1076.119        -838.535
  20434496.88448  20434495.87845  20434499.54645 107384058.1104   83675897.5374
     -1142.884        -890.548
  23308339.76147  23308339.24942  23308343.61942 122486173.1814   95443783.3424
      3289.181        2562.976
  23966840.11146  23966839.17941  23966845.35941 125946622.0314   98140256.1694
     -3983.407       -3103.923
  23388219.77046  23388218.24541  23388221.76741 122905918.5474   95770880.7254
     -2243.306       -1748.011
  23976717.87346  23976715.02141  23976722.23041 125998525.0304   98180670.5134
      3307.799        2577.478
  24675578.99346  24675586.24441  24675584.66741 129671047.5024  101042390.3354
     -1024.057        -797.976
  22218348.05647  22218347.83943  22218352.75843 116758207.9004   90980451.9314
      1533.866        1195.221
  24137270.16246  24137268.61841  24137273.24241 126842244.5064   98838096.2524
      2983.936        2325.104
  20613947.37648  20613946.86445  20613950.34245 108327035.3944   84410700.2164
      1798.911        1401.755
  22066992.98546  22066994.98246  22066999.52143 118043543.0854   91811683.3334
     -3808.684       -2962.303
 04  5  5  1 59  0.0000000  0 11G 4G 5G 6G 9G14G17G20G24G25G30R24
  22476285.17747  22476284.43343  22476289.07443 118113708.3464   92036649.6234
     -1096.149        -854.141
  20441067.53348  20441066.63545  20441070.42345 107418587.1114   83702803.2414
     -1158.606        -902.807
  23289581.88247  23289581.56042  23289587.00542 122387604.5844   95366976.6324
      3282.498        2557.773
  23989593.76746  23989593.34341  23989596.81541 126066192.6534   98233428.0364
     -3987.485       -3107.093
  23401070.03246  23401069.52541  23401072.26841 122973452.1134   95823504.2224
     -2258.442       -1759.798
  23957852.44646  23957849.79341  23957856.29841 125899385.8494   98103419.2154
      3301.975        2572.954
  24681480.38546  24681480.61041  24681485.68041 129702059.8264  101066555.8834
     -1042.977        -812.712
  22209643.85147  22209643.76643  22209648.38643 116712463.7604   90944807.1614
      1516.196        1181.445
  24120260.92346  24120259.42441  24120263.22841 126752859.8754   98768445.9204
      2975.488        2318.598
  20603720.00448  20603720.13645  20603723.36745 108273292.8664   84368822.9154
      1784.374        1390.418
  22088373.57846  22088375.31846  22088381.08744 118157919.1534   91900642.4594
     -3815.888       -2967.920
 04  5  5  1 59 30.0000000  0 11G 4G 5G 6G 9G14G17G20G24G25G30R24
  22482603.07847  22482602.74643  22482606.09843 118146909.1474   92062520.3594
     -1116.845        -870.276
  20447729.19148  20447728.25945  20447732.32245 107453595.0454   83730082.1404
     -1174.912        -915.511
  23270865.89447  23270866.18242  23270868.70242 122289244.5944   95290332.5154
      3275.191        2552.088
  24012371.52746  24012371.68841  24012375.60741 126185891.7544   98326700.0674
     -3992.088       -3110.704
  23414009.48746  23414008.77141  23414011.00441 123041447.0214   95876487.2544
     -2274.134       -1772.054
  23939021.13546  23939019.76841  23939024.41541 125800430.6424   98026311.2904
      3295.380        2567.849
  24687491.72445  24687486.20941  24687493.87941 129733647.3934  101091169.6594
     -1062.483        -827.928
  22201041.40647  22201041.16443  22201046.41543 116667258.8944   90909582.5904
      1497.845        1167.128
  24103301.00246  24103299.00541  24103304.43341 126663737.2134   98698999.6964
      2966.384        2311.476
  20593578.15948  20593577.91745  20593581.17345 108219994.7594   84327291.9114
      1769.194        1378.595
  22109797.79747  22109798.84146  22109803.07744 118272516.8584   91989773.9624
     -3823.526       -2973.856
 04  5  5  2  0  0.0000000  0 11G 4G 5G 6G 9G14G17G20G24G25G30R24
  22489035.22947  22489035.20543  22489039.28243 118180711.5364   92088859.8544
     -1136.754        -885.780
  20454480.90848  20454479.78745  20454483.63645 107489074.7824   83757728.6834
     -1190.515        -927.676
  23252187.60147  23252187.50942  23252192.40942 122191088.2204   95213847.0464
      3268.477        2546.855
  24035173.97146  24035172.54741  24035177.70841 126305710.4824   98420065.2814
     -3995.952       -3113.766
  23427033.69046  23427033.78641  23427036.31341 123109894.5264   95929822.9504
     -2289.104       -1783.776
  23920224.94846  23920222.91441  23920229.07741 125701655.7644   97949343.8654
      3289.394        2563.131
  24693610.34645  24693606.96441  24693612.95741 129765802.2854  101116225.5044
     -1081.276        -842.561
  22192541.69447  22192540.12043  22192545.52843 116622588.1444   90874774.2254
      1480.089        1153.306
  24086390.09746  24086390.45041  24086395.49541 126574873.2274   98629755.1044
      2957.816        2304.810
  20583519.31848  20583519.22045  20583522.19945 108167135.9674   84286103.2364
      1754.591        1367.208
  22131260.48846  22131262.16846  22131267.31343 118387327.2314   92079070.8654
     -3830.536       -2979.303
 04  5  5  2  0 30.0000000  0 11G 4G 5G 6G 9G14G17G20G24G25G30R24
  22495582.79047  22495582.84443  22495586.16843 118215119.2154   92115671.0254
     -1156.802        -901.396
  20461323.05948  20461322.04845  20461325.90445 107525030.8704   83785746.4064
     -1206.255        -939.938
  23233548.84047  23233548.19942  23233552.41142 122093142.4514   95137525.6834
      3261.593        2541.500
  24057997.10846  24057996.69741  24057999.71541 126425651.7374   98513525.9664
     -3999.827       -3116.729
  23440146.31446  23440145.81241  23440148.38041 123178797.1844   95983513.2954
     -2304.122       -1795.449
  23901465.08246  23901463.99841  23901467.98241 125603069.1644   97872523.1594
      3283.254        2558.366
  24699837.18145  24699838.23541  24699843.50741 129798528.6574  101141726.6194
     -1100.140        -857.251
  22184142.96647  22184142.82143  22184147.23843 116578458.6884   90840387.6414
      1462.151        1139.349
  24069529.28746  24069530.56341  24069533.28741 126486274.7924   98560717.3204
      2949.052        2297.985
  20573545.45348  20573545.53545  20573548.50545 108114723.3644   84245262.2374
      1739.845        1355.722
  22152762.10246  22152764.96746  22152769.66343 118502352.9364   92168535.2794
     -3837.439       -2984.671
 04  5  5  2  1  0.0000000  0 11G 4G 5G 6G 9G14G17G20G24G25G30R24
  22502246.43247  22502245.89743  22502249.26943 118250135.5224   92142956.4274
     -1177.731        -917.724
  20468256.66248  20468255.62245  20468259.42545 107561467.0234   83814138.1984
     -1222.904        -952.917
  23214951.23147  23214950.73942  23214955.84042 121995413.2164   95061373.0474
      3253.618        2535.283
  24080844.08046  24080841.89241  24080850.01341 126545717.3484   98607083.5614
     -4004.580       -3120.475
  23453343.93746  23453343.82441  23453346.30141 123248156.7574   96037559.6964
     -2319.947       -1807.775
  23882741.28746  23882740.59141  23882744.91341 125504677.5994   97795854.4034
      3276.089        2552.794
  24706175.40346  24706174.33941  24706179.13741 129831829.9644  101167675.7924
     -1120.031        -872.801
  22175850.05948  22175848.82643  22175853.78843 116534876.4494   90806427.4744
      1443.236        1124.580
  24052722.67746  24052721.12141  24052725.94541 126397948.4314   98491891.6764
      2939.256        2290.310
  20563658.00448  20563657.71845  20563660.78945 108062762.6874   84204773.3994
      1724.093        1343.444
  22174306.14746  22174308.70147  22174312.99443 118617595.1634   92258168.0734
     -3845.389       -2990.860
 04  5  5  2  1 30.0000000  0 11G 4G 5G 6G 9G14G17G20G24G25G30R24
  22509025.62647  22509025.93543  22509029.24943 118285761.7914   92170717.1314
     -1197.537        -933.154
  20475281.84448  20475280.74045  20475284.84145 107598385.5814   83842905.8924
     -1238.511        -965.073
  23196396.04747  23196395.60442  23196399.34742 121897904.7954   94985392.5004
      3246.762        2529.910
  24103717.10346  24103716.77941  24103720.05241 126665907.7624   98700738.3944
     -4008.253       -3123.267
  23466629.71246  23466629.73641  23466630.83541 123317973.2994   96091962.1564
     -2334.658       -1819.224
  23864055.88446  23864055.40441  23864059.35241 125406486.2634   97719341.6894
      3269.862        2547.934
  24712622.81646  24712618.70441  24712625.40341 129865707.2604  101194073.6724
     -1138.693        -887.276
  22167661.99047  22167660.61643  22167666.04543 116491845.4104   90772896.8024
      1425.307        1110.641
  24035966.15046  24035967.05341  24035969.28041 126309899.2094   98423281.9014
      2930.505        2283.485
  20553856.49548  20553856.69845  20553859.81945 108011258.0834   84164639.9344
      1709.363        1331.964
  22195892.83147  22195893.23246  22195896.72643 118733054.6534   92347969.8474
     -3852.104       -2996.079
 04  5  5  2  2  0.0000000  0 11G 4G 5G 6G 9G14G17G20G24G25G30R24
  22515917.99347  22515917.54343  22515921.95243 118321982.5014   92198941.0204
     -1217.268        -948.505
  20482396.09548  20482395.32345  20482399.12045 107635771.6244   83872037.8674
     -1253.979        -977.131
  23177881.15847  23177880.79242  23177883.99742 121800604.7624   94909574.2914
      3239.852        2524.593
  24126607.80646  24126607.16941  24126612.43941 126786206.5204   98794477.6544
     -4011.724       -3126.029
  23479999.53146  23479999.59141  23480001.67841 123388229.9524   96146707.5894
     -2349.162       -1830.487
  23845406.05946  23845405.35141  23845410.83641 125308483.8214   97642976.1454
      3263.610        2543.066
  24719175.31346  24719167.81441  24719177.95741 129900145.5044  101220908.8024
     -1157.333        -901.932
  22159575.40748  22159574.96543  22159579.79743 116449353.1174   90739785.9264
      1407.416        1096.697
  24019262.74246  24019262.05341  24019266.07241 126222115.3624   98354878.9564
      2921.708        2276.646
  20544140.20348  20544140.02845  20544143.31845 107960196.8354   84124851.9434
      1694.641        1320.504
  22217513.62646  22217513.75346  22217518.97243 118848714.6574   92437927.5754
     -3858.650       -3001.169
 04  5  5  2  2 30.0000000  0 11G 4G 5G 6G 9G14G17G20G24G25G30R24
  22522925.72247  22522925.47043  22522929.43743 118358808.3234   92227636.4564
     -1238.034        -964.706
  20489602.00248  20489600.79945  20489604.76345 107673635.9654   83901542.5434
     -1270.528        -990.024
  23159406.96347  23159406.91142  23159410.14442 121703526.5714   94833928.9814
      3231.761        2518.243
  24149523.00746  24149523.54441  24149528.23041 126906622.8644   98888308.5304
     -4016.257       -3129.533
  23493455.56346  23493455.01041  23493457.73641 123458936.2204   96201803.3484
     -2364.740       -1842.677
  23826794.70946  23826795.34041  23826798.98841 125210684.9584   97566769.2444
      3256.126        2537.189
  24725835.76245  24725837.46641  24725838.36141 129935154.6954  101248188.5594
     -1176.869        -917.067
  22151595.21648  22151593.81243  22151597.85443 116407412.9274   90707105.2744
      1388.378        1081.864
  24002610.36745  24002607.62141  24002615.38941 126134611.2234   98286693.9544
      2911.695        2268.854
  20534510.79648  20534510.49745  20534513.56545 107909592.2154   84085419.7714
      1678.763        1308.124
  22239172.55646  22239173.28346  22239178.90343 118964584.0054   92528048.1474
     -3866.251       -3007.086
 04  5  5  2  3  0.0000000  0 11G 4G 5G 6G 9G14G17G20G24G25G30R24
  22530049.26547  22530049.43543  22530052.49343 118396241.4784   92256805.1204
     -1257.853        -980.132
  20496898.17648  20496897.62845  20496901.48645 107711981.6474   83931422.2864
     -1286.182       -1002.222
  23140976.89346  23140976.75842  23140980.22442 121606675.5624   94758460.6924
      3224.592        2512.648
  24172459.75446  24172460.82741  24172465.74341 127027158.5904   98982232.4684
     -4019.777       -3132.292
  23506994.99046  23506995.80741  23506997.31741 123530093.1234   96257250.2644
     -2379.362       -1854.039
  23808225.07646  23808224.14341  23808228.90241 125113095.9724   97490725.9134
      3249.458        2532.033
  24732609.36146  24732614.69641  24732610.52741 129970737.9154  101275915.7054
     -1195.672        -931.594
  22143719.43447  22143719.13843  22143723.48043 116366030.0414   90674858.8664
      1370.159        1067.681
  23986013.84946  23986013.78441  23986017.80641 126047392.8334   98218731.5974
      2902.508        2261.656
  20524968.52348  20524968.52245  20524971.53045 107859449.6184   84046347.6174
      1663.726        1296.405
  22260873.92446  22260874.68946  22260878.50443 119080663.4104   92618332.0674
     -3872.707       -3012.109
 04  5  5  2  3 30.0000000  0 11G 4G 5G 6G 9G14G17G20G24G25G30R24
  22537286.22647  22537286.10943  22537289.86243 118434272.8824   92286439.9574
     -1278.110        -995.937
  20504285.70848  20504284.53445  20504288.35545 107750800.0694   83961670.3944
     -1302.262       -1014.748
  23122589.47247  23122588.07642  23122593.48642 121510045.3644   94683164.4234
      3216.866        2506.686
  24195419.19446  24195418.86241  24195421.24341 127147803.3804   99076241.3434
     -4023.723       -3135.375
  23520619.85846  23520618.59941  23520623.98741 123601690.1424   96313040.1294
     -2394.332       -1865.693
  23789693.88546  23789693.04641  23789698.46841 125015711.3314   97414841.7724
      3242.247        2526.412
  24739486.66945                                 130006885.9234
     -1214.677
  22135949.50947  22135948.90743  22135953.98543 116325198.1484   90643041.8084
      1351.434        1053.072
  23969469.97546  23969469.47241  23969473.07741 125960454.4304   98150987.4314
      2892.800        2254.151
  20515513.29348  20515513.15745  20515516.31845 107809762.4524   84007630.3224
      1648.208        1284.325
  22282609.20246  22282610.72646  22282615.16243 119196942.8864   92708771.5954
     -3879.729       -3017.567
 04  5  5  2  4  0.0000000  0 11G 4G 5G 6G 9G14G17G20G24G25G30R24
  22544636.52647  22544635.70642  22544640.56143 118472897.7094   92316537.1854
     -1297.347       -1010.930
  20511761.56548  20511760.57145  20511764.52645 107790087.3164   83992283.8234
     -1317.391       -1026.542
  23104243.65047  23104243.02042  23104245.84242 121413634.3844   94608039.0214
      3210.030        2501.336
  24218397.07946  24218397.67941  24218400.53041 127268551.6404   99170330.8554
     -4026.613       -3137.650
  23534326.48146  23534327.84841  23534327.16341 123673721.2584   96369168.2214
     -2408.286       -1876.582
  23771200.92146  23771199.72341  23771205.52341 124918530.8544   97339116.7424
      3235.921        2521.482
  24746472.15145                                 130043593.1934
     -1232.934
  22128284.43247  22128283.88343  22128288.44843 116284915.5414   90611652.7834
      1333.572        1039.153
  23952977.95846  23952978.50341  23952983.43241 125873794.9624   98083460.5134
      2883.951        2247.276
  20506144.76448  20506144.58645  20506147.67145 107760528.8114   83969266.4454
      1633.546        1272.897
  22304383.50146  22304384.91346  22304390.71443 119313416.7184   92799362.3224
     -3885.610       -3022.135
 04  5  5  2  4 30.0000000  0 11G 4G 5G 6G 9G14G17G20G24G25G30R24
  22552099.89647  22552099.54142  22552102.62243 118512120.3894   92347100.2824
     -1317.157       -1026.332
  20519327.79148  20519326.93845  20519331.01445 107829848.4494   84023266.4964
     -1333.052       -1038.723
  23085938.98346  23085938.59542  23085943.07842 121317450.2214   94533090.3334
      3202.589        2495.538
  24241393.65146  24241392.53241  24241396.07541 127389407.0354   99264503.8904
     -4030.084       -3140.314
  23548117.39846  23548115.17441  23548119.57741 123746189.7324   96425637.1254
     -2422.654       -1887.725
  23752747.66146  23752747.61541  23752753.72241 124821562.5944   97263557.0184
      3228.919        2516.101
  24753564.62446                                 130080864.8954
     -1251.578
  22120724.12747  22120723.64943  22120728.57843 116245189.4784   90580697.4294
      1315.125        1024.790
  23936542.87846  23936542.27441  23936545.93341 125787422.8144   98016157.5794
      2874.489        2239.866
  20496863.36048  20496863.31745  20496866.65145 107711756.0424   83931261.6774
      1618.297        1261.027
  22326195.01446  22326196.12246  22326200.53043 119430087.9004   92890106.5144
     -3892.057       -3027.144
 04  5  5  2  5  0.0000000  0 11G 4G 5G 6G 9G14G17G20G24G25G30R24
  22559677.55847  22559676.73942  22559681.14843 118551934.9024   92378124.5514
     -1336.662       -1041.553
  20526983.20248  20526982.51545  20526986.33745 107870078.0554   84054614.2374
     -1348.472       -1050.764
  23067679.34346  23067678.08542  23067683.14942 121221489.8064   94458316.0014
      3195.226        2489.793
  24264410.54646  24264410.67741  24264414.63241 127510362.3224   99358754.7274
     -4033.144       -3142.682
  23561988.86546  23561990.49741  23561992.30041 123819088.1884   96482441.1084
     -2436.783       -1898.811
  23734335.79746  23734334.56141  23734339.42041 124724804.6144   97188161.2304
      3222.040        2510.660
  24760764.54746                                 130118695.3374
     -1270.004
  22113270.45448  22113269.21943  22113274.58543 116206016.7784   90550173.2634
      1296.854        1010.535
  23920160.97346  23920160.35641  23920164.58441 125701335.4434   97949076.5064
      2865.143        2232.554
  20487669.17848  20487669.33145  20487672.59745 107663440.8944   83893613.5114
      1603.189        1249.230
  22348039.46746  22348041.65246  22348046.30943 119546948.8394   92980998.3014
     -3898.193       -3031.922
 04  5  5  2  5 30.0000000  0 11G 4G 5G 6G 9G14G17G20G24G25G30R24
  22567364.54247  22567365.05443  22567368.83343 118592336.4274   92409606.2274
     -1356.208       -1056.791
  20534727.56448  20534726.32445  20534730.04245 107910772.5554   84086324.2224
     -1363.910       -1062.781
  23049460.42146  23049459.81842  23049463.42442 121125751.4164   94383714.6874
      3187.851        2484.046
  24287444.81046  24287446.05741  24287450.94041 127631412.1924   99453079.2334
     -4036.260       -3145.161
  23575942.74046  23575941.65841  23575942.67741 123892410.9494   96539575.6964
     -2450.840       -1909.746
  23715963.12246  23715961.78141  23715968.14641 124628256.6854   97112929.0754
      3215.037        2505.252
  24768067.15746                                 130157079.4624
     -1288.347
  22105920.30547  22105920.04443  22105924.77643 116167395.6714   90520078.8974
      1278.461         996.209
  23903834.46046  23903831.23641  23903836.35041 125615532.1154   97882216.7024
      2855.628        2225.206
  20478561.86848  20478562.08345  20478564.83845 107615581.6644   83856320.5994
      1588.003        1237.413
  22369920.81646  22369921.52346  22369926.67643 119663994.5754   93072033.8304
     -3904.288       -3036.659
 04  5  5  2  6  0.0000000  0 11G 4G 5G 6G 9G14G17G20G24G25G30R24
  22575165.40547  22575164.96043  22575168.72843 118633327.2654   92441547.0894
     -1376.493       -1072.560
  20542559.76648  20542559.27445  20542562.96645 107951934.0674   84118398.1094
     -1380.145       -1075.425
  23031285.46547  23031284.49642  23031288.54342 121030240.1204   94309290.3164
      3179.616        2477.657
  24310497.85546  24310500.56841  24310503.58841 127752557.7154   99547478.3534
     -4040.078       -3148.144
  23589976.95046  23589976.50441  23589979.50141 123966158.6384   96597041.3694
     -2465.607       -1921.244
  23697632.25246  23697632.03941  23697636.89641 124531924.5874   97037865.0854
      3207.105        2499.042
  24775477.22145                                 130196018.7954
     -1307.589
  22098677.00147  22098676.28243  22098681.67443 116129330.9204   90490418.0704
      1259.237         981.236
  23887560.77246  23887561.08541  23887565.86241 125530018.3724   97815582.6084
      2845.311        2217.129
  20469542.51048  20469542.16545  20469545.01145 107568183.0134   83819386.5814
      1571.955        1224.904
  22391835.57946  22391836.56446  22391842.57643 119781225.4534   93163213.3514
     -3911.105       -3041.947
